[[{"header":{"parameterUnit":"m.s-1","parameterCategory":1,"la1":30.6,"la2":28.766,"lo1":-90.7593,"lo2":-88.6598,"dy":0.0162,"dx":0.0183,"nx":116,"ny":114,"refTime":"2023-05-23T12:00:00:Z","depth":0,"parameterNumber":2,"parameterNumberName":"U-component_of_WINDS"},"data":[0.0,0.0,0.0,0.0,0.0,0.0,0.0,0.0,0.0,0.0,0.0,0.0,0.0,0.0,0.0,0.0,0.0,0.0,0.0,0.0,0.0,0.0,0.0,0.0,0.0,0.0,0.0,0.0,0.0,0.0,0.0,0.0,0.0,0.0,0.0,0.0,0.0,0.0,0.0,0.0,0.0,0.0,0.0,0.0,0.0,0.0,0.0,0.0,0.0,0.0,0.0,0.0,0.0,0.0,0.0,0.0,0.0,0.0,0.0,0.0,0.0,0.0,0.0,0.0,0.0,0.0,0.0,0.0,0.0,0.0,0.0,0.0,0.0,0.0,0.0,0.0,0.0,0.0,0.0,0.0,0.0,0.0,0.0,0.0,0.0,0.0,0.0,0.0,0.0,0.0,0.0,0.0,0.0,0.0,0.0,0.0,0.0,0.0,0.0,0.0,0.0,0.0,0.0,0.0,0.0,0.0,0.0,0.0,0.0,0.0,0.0,0.0,0.0,0.0,0.0,0.0,0.0,0.0,0.0,0.0,0.0,0.0,0.0,0.0,0.0,0.0,0.0,0.0,0.0,0.0,0.0,0.0,0.0,0.0,0.0,0.0,0.0,0.0,0.0,0.0,0.0,0.0,0.0,0.0,0.0,0.0,0.0,0.0,0.0,0.0,0.0,0.0,0.0,0.0,0.0,0.0,0.0,0.0,0.0,0.0,0.0,0.0,0.0,0.0,0.0,0.0,0.0,0.0,0.0,0.0,0.0,0.0,0.0,0.0,0.0,0.0,0.0,0.0,0.0,0.0,0.0,0.0,0.0,0.0,0.0,0.0,0.0,0.0,0.0,0.0,0.0,0.0,0.0,0.0,0.0,0.0,0.0,0.0,0.0,0.0,0.0,0.0,0.0,0.0,0.0,0.0,0.0,0.0,0.0,0.0,0.0,0.0,0.0,0.0,0.0,0.0,0.0,0.0,0.0,0.0,0.0,0.0,0.0,0.0,0.0,0.0,0.0,0.0,0.0,0.0,0.0,0.0,0.0,0.0,0.0,0.0,0.0,0.0,0.0,0.0,0.0,0.0,0.0,0.0,0.0,0.0,0.0,0.0,0.0,0.0,0.0,0.0,0.0,0.0,0.0,0.0,0.0,0.0,0.0,0.0,0.0,0.0,0.0,0.0,0.0,0.0,0.0,0.0,0.0,0.0,0.0,0.0,0.0,0.0,0.0,0.0,0.0,0.0,0.0,0.0,0.0,0.0,0.0,0.0,0.0,0.0,0.0,0.0,0.0,0.0,0.0,0.0,0.0,0.0,0.0,0.0,0.0,0.0,0.0,0.0,0.0,0.0,0.0,0.0,0.0,0.0,0.0,0.0,0.0,0.0,0.0,0.0,0.0,0.0,0.0,0.0,0.0,0.0,0.0,0.0,0.0,0.0,0.0,0.0,0.0,0.0,0.0,0.0,0.0,0.0,0.0,0.0,0.0,0.0,0.0,0.0,0.0,0.0,0.0,0.0,0.0,0.0,0.0,0.0,0.0,0.0,0.0,0.0,0.0,0.0,0.0,0.0,0.0,0.0,0.0,0.0,0.0,0.0,0.0,0.0,0.0,0.0,0.0,0.0,0.0,0.0,0.0,0.0,0.0,0.0,0.0,0.0,0.0,0.0,0.0,0.0,0.0,0.0,0.0,0.0,0.0,0.0,0.0,0.0,0.0,0.0,0.0,0.0,0.0,0.0,0.0,0.0,0.0,0.0,0.0,0.0,0.0,0.0,0.0,0.0,0.0,0.0,0.0,0.0,0.0,0.0,0.0,0.0,0.0,0.0,0.0,0.0,0.0,0.0,0.0,0.0,0.0,0.0,0.0,0.0,0.0,0.0,0.0,0.0,0.0,0.0,0.0,0.0,0.0,0.0,0.0,0.0,0.0,0.0,0.0,0.0,0.0,0.0,0.0,0.0,0.0,0.0,0.0,0.0,0.0,0.0,0.0,0.0,0.0,0.0,0.0,0.0,0.0,0.0,0.0,0.0,0.0,0.0,0.0,0.0,0.0,0.0,0.0,0.0,0.0,0.0,0.0,0.0,0.0,0.0,0.0,0.0,0.0,0.0,0.0,0.0,0.0,0.0,0.0,0.0,0.0,0.0,0.0,0.0,0.0,0.0,0.0,0.0,0.0,0.0,0.0,0.0,0.0,0.0,0.0,0.0,0.0,0.0,0.0,0.0,0.0,0.0,0.0,0.0,0.0,0.0,0.0,0.0,0.0,0.0,0.0,0.0,0.0,0.0,0.0,0.0,0.0,0.0,0.0,0.0,0.0,0.0,0.0,0.0,0.0,0.0,0.0,0.0,0.0,0.0,0.0,0.0,0.0,0.0,0.0,0.0,0.0,0.0,0.0,0.0,0.0,0.0,0.0,0.0,0.0,0.0,0.0,0.0,0.0,0.0,0.0,0.0,0.0,0.0,0.0,0.0,0.0,0.0,0.0,0.0,0.0,0.0,0.0,0.0,0.0,0.0,0.0,0.0,0.0,0.0,0.0,0.0,0.0,0.0,0.0,0.0,0.0,0.0,0.0,0.0,0.0,0.0,0.0,0.0,0.0,0.0,0.0,0.0,0.0,0.0,0.0,0.0,0.0,0.0,0.0,0.0,0.0,0.0,0.0,0.0,0.0,0.0,0.0,0.0,0.0,0.0,0.0,0.0,0.0,0.0,0.0,0.0,0.0,0.0,0.0,0.0,0.0,0.0,0.0,0.0,0.0,0.0,0.0,0.0,0.0,0.0,0.0,0.0,0.0,0.0,0.0,0.0,0.0,0.0,0.0,0.0,0.0,0.0,0.0,0.0,0.0,0.0,0.0,0.0,0.0,0.0,0.0,0.0,0.0,0.0,0.0,0.0,0.0,0.0,0.0,0.0,0.0,0.0,0.0,0.0,0.0,0.0,0.0,0.0,0.0,0.0,0.0,0.0,0.0,0.0,0.0,0.0,0.0,0.0,0.0,0.0,0.0,0.0,0.0,0.0,0.0,0.0,0.0,0.0,0.0,0.0,0.0,0.0,0.0,0.0,0.0,0.0,0.0,0.0,0.0,0.0,0.0,0.0,0.0,0.0,0.0,0.0,0.0,0.0,0.0,0.0,0.0,0.0,0.0,0.0,0.0,0.0,0.0,0.0,0.0,0.0,0.0,0.0,0.0,0.0,0.0,0.0,0.0,0.0,0.0,0.0,0.0,0.0,0.0,0.0,0.0,0.0,0.0,0.0,0.0,0.0,0.0,0.0,0.0,0.0,0.0,0.0,0.0,0.0,0.0,0.0,0.0,0.0,0.0,0.0,0.0,0.0,0.0,0.0,0.0,0.0,0.0,0.0,0.0,0.0,0.0,0.0,0.0,0.0,0.0,0.0,0.0,0.0,0.0,0.0,0.0,0.0,0.0,0.0,0.0,0.0,0.0,0.0,0.0,0.0,0.0,0.0,0.0,0.0,0.0,0.0,0.0,0.0,0.0,0.0,0.0,0.0,0.0,0.0,0.0,0.0,0.0,0.0,0.0,0.0,0.0,0.0,0.0,0.0,0.0,0.0,0.0,0.0,0.0,0.0,0.0,0.0,0.0,0.0,0.0,0.0,0.0,0.0,0.0,0.0,0.0,0.0,0.0,0.0,0.0,0.0,0.0,0.0,0.0,0.0,0.0,0.0,0.0,0.0,0.0,0.0,0.0,0.0,0.0,0.0,0.0,0.0,0.0,0.0,0.0,0.0,0.0,0.0,0.0,0.0,0.0,0.0,0.0,0.0,0.0,0.0,0.0,0.0,0.0,0.0,0.0,0.0,0.0,0.0,0.0,0.0,0.0,0.0,0.0,0.0,0.0,0.0,0.0,0.0,0.0,0.0,0.0,0.0,0.0,0.0,0.0,0.0,0.0,0.0,0.0,0.0,0.0,0.0,0.0,0.0,0.0,0.0,0.0,0.0,0.0,0.0,0.0,0.0,0.0,0.0,0.0,0.0,0.0,0.0,0.0,0.0,0.0,0.0,0.0,0.0,0.0,0.0,0.0,0.0,0.0,0.0,0.0,0.0,0.0,0.0,0.0,0.0,0.0,0.0,0.0,0.0,0.0,0.0,0.0,0.0,0.0,0.0,0.0,0.0,0.0,0.0,0.0,0.0,0.0,0.0,0.0,0.0,0.0,0.0,0.0,0.0,0.0,0.0,0.0,0.0,0.0,0.0,0.0,0.0,0.0,0.0,0.0,0.0,0.0,0.0,0.0,0.0,0.0,0.0,0.0,0.0,0.0,0.0,0.0,0.0,0.0,0.0,0.0,0.0,0.0,0.0,0.0,0.0,0.0,0.0,0.0,0.0,0.0,0.0,0.0,0.0,0.0,0.0,0.0,0.0,0.0,0.0,0.0,0.0,0.0,0.0,0.0,0.0,0.0,0.0,0.0,0.0,0.0,0.0,0.0,0.0,0.0,0.0,0.0,0.0,0.0,0.0,0.0,0.0,0.0,0.0,0.0,0.0,0.0,0.0,0.0,0.0,0.0,0.0,0.0,0.0,0.0,0.0,0.0,0.0,0.0,0.0,0.0,0.0,0.0,0.0,0.0,0.0,0.0,0.0,0.0,0.0,0.0,0.0,0.0,0.0,0.0,0.0,0.0,0.0,0.0,0.0,0.0,0.0,0.0,0.0,0.0,0.0,0.0,0.0,0.0,0.0,0.0,0.0,0.0,0.0,0.0,0.0,0.0,0.0,0.0,0.0,0.0,0.0,0.0,0.0,0.0,0.0,0.0,0.0,0.0,0.0,0.0,0.0,0.0,0.0,0.0,0.0,0.0,0.0,0.0,0.0,0.0,0.0,0.0,0.0,0.0,0.0,0.0,0.0,0.0,0.0,0.0,0.0,0.0,0.0,0.0,0.0,0.0,0.0,0.0,0.0,0.0,0.0,0.0,0.0,0.0,0.0,0.0,0.0,0.0,0.0,0.0,0.0,0.0,0.0,0.0,0.0,0.0,0.0,0.0,0.0,0.0,0.0,0.0,0.0,0.0,0.0,0.0,0.0,0.0,0.0,0.0,0.0,0.0,0.0,0.0,0.0,0.0,0.0,0.0,0.0,0.0,0.0,0.0,0.0,0.0,0.0,0.0,0.0,0.0,0.0,0.0,0.0,0.0,0.0,0.0,0.0,0.0,0.0,0.0,0.0,0.0,0.0,0.0,0.0,0.0,0.0,0.0,0.0,0.0,0.0,0.0,0.0,0.0,0.0,0.0,0.0,0.0,0.0,0.0,0.0,0.0,0.0,0.0,0.0,0.0,0.0,0.0,0.0,0.0,0.0,0.0,0.0,0.0,0.0,0.0,0.0,0.0,0.0,0.0,0.0,0.0,0.0,0.0,0.0,0.0,0.0,0.0,0.0,0.0,0.0,0.0,0.0,0.0,0.0,0.0,0.0,0.0,0.0,0.0,0.0,0.0,0.0,0.0,0.0,0.0,0.0,0.0,0.0,0.0,0.0,0.0,0.0,0.0,0.0,0.0,0.0,0.0,0.0,0.0,0.0,0.0,0.0,0.0,0.0,0.0,0.0,0.0,0.0,0.0,0.0,0.0,0.0,0.0,0.0,0.0,0.0,0.0,0.0,0.0,0.0,0.0,0.0,0.0,0.0,0.0,0.0,0.0,0.0,0.0,0.0,0.0,0.0,0.0,0.0,0.0,0.0,0.0,0.0,0.0,0.0,0.0,0.0,0.0,0.0,0.0,0.0,0.0,0.0,0.0,0.0,0.0,0.0,0.0,0.0,0.0,0.0,0.0,0.0,0.0,0.0,0.0,0.0,0.0,0.0,0.0,0.0,0.0,0.0,0.0,0.0,0.0,0.0,0.0,0.0,0.0,0.0,0.0,0.0,0.0,0.0,0.0,0.0,0.0,0.0,0.0,0.0,0.0,0.0,0.0,0.0,0.0,0.0,0.0,0.0,0.0,0.0,0.0,0.0,0.0,0.0,0.0,0.0,0.0,0.0,0.0,0.0,0.0,0.0,0.0,0.0,0.0,0.0,0.0,0.0,0.0,0.0,0.0,0.0,0.0,0.0,0.0,0.0,0.0,0.0,0.0,0.0,0.0,0.0,3.5081,3.4933,0.0,0.0,0.0,0.0,0.0,0.0,0.0,0.0,0.0,0.0,0.0,0.0,0.0,0.0,0.0,0.0,0.0,0.0,0.0,0.0,0.0,0.0,0.0,0.0,0.0,0.0,0.0,0.0,0.0,0.0,0.0,0.0,0.0,0.0,0.0,0.0,0.0,0.0,3.3861,3.5071,3.7022,3.8206,3.8449,3.7903,0.0,0.0,0.0,0.0,0.0,0.0,0.0,0.0,0.0,0.0,0.0,0.0,0.0,0.0,0.0,0.0,0.0,0.0,0.0,0.0,0.0,0.0,0.0,0.0,0.0,0.0,0.0,0.0,0.0,0.0,0.0,0.0,0.0,0.0,0.0,0.0,0.0,0.0,0.0,0.0,0.0,0.0,0.0,0.0,0.0,0.0,0.0,0.0,0.0,0.0,0.0,0.0,0.0,0.0,0.0,0.0,0.0,0.0,0.0,0.0,0.0,0.0,0.0,0.0,0.0,0.0,0.0,0.0,0.0,0.0,3.6439,3.5744,0.0,0.0,0.0,0.0,0.0,0.0,0.0,0.0,0.0,0.0,0.0,0.0,0.0,0.0,0.0,0.0,0.0,0.0,0.0,0.0,0.0,0.0,0.0,2.9325,2.9235,3.0027,2.9877,3.002,0.0,0.0,0.0,0.0,0.0,0.0,0.0,3.0749,3.1389,3.3307,3.3528,3.5215,3.8194,3.7465,3.6948,3.6685,3.8003,0.0,0.0,0.0,0.0,0.0,0.0,0.0,0.0,0.0,0.0,0.0,0.0,0.0,0.0,0.0,0.0,0.0,0.0,0.0,0.0,0.0,0.0,0.0,0.0,0.0,0.0,0.0,0.0,0.0,0.0,0.0,0.0,0.0,0.0,0.0,0.0,0.0,0.0,0.0,0.0,0.0,0.0,0.0,0.0,0.0,0.0,0.0,0.0,0.0,0.0,0.0,0.0,0.0,0.0,0.0,0.0,0.0,0.0,0.0,0.0,0.0,0.0,0.0,3.805,3.858,3.9467,3.9467,3.9589,3.9787,3.8514,3.7369,3.6367,3.6108,0.0,0.0,0.0,0.0,0.0,0.0,0.0,0.0,0.0,0.0,0.0,0.0,0.0,0.0,0.0,0.0,0.0,0.0,0.0,0.0,0.0,3.0658,3.0754,3.2011,3.1054,3.0658,3.1331,0.0,0.0,0.0,0.0,0.0,3.0635,3.0431,3.1051,3.2533,3.3637,3.5043,3.6681,3.6457,3.6332,3.6325,3.725,3.7675,3.7702,0.0,0.0,0.0,0.0,0.0,0.0,0.0,0.0,0.0,0.0,0.0,0.0,0.0,0.0,0.0,0.0,0.0,0.0,0.0,0.0,0.0,0.0,0.0,0.0,0.0,0.0,0.0,0.0,0.0,0.0,0.0,0.0,0.0,0.0,0.0,0.0,0.0,0.0,0.0,0.0,0.0,3.5059,3.5059,0.0,0.0,0.0,0.0,0.0,0.0,0.0,0.0,0.0,0.0,0.0,0.0,0.0,3.7327,3.8603,3.9189,3.9942,4.0845,4.1506,4.1885,4.2021,4.2021,4.2052,4.2049,4.1571,0.0,3.7818,3.6533,0.0,0.0,0.0,0.0,0.0,0.0,0.0,0.0,0.0,0.0,0.0,0.0,0.0,0.0,0.0,0.0,0.0,0.0,0.0,0.0,0.0,3.0695,3.0731,3.1323,3.1189,3.1189,3.1481,3.1219,0.0,0.0,0.0,3.0402,3.1046,3.0654,3.1236,3.2967,3.4623,3.5926,3.6889,3.684,3.7006,3.7387,3.7765,3.7824,3.7633,3.8097,0.0,0.0,0.0,0.0,0.0,0.0,0.0,0.0,0.0,0.0,0.0,0.0,0.0,0.0,0.0,0.0,0.0,0.0,0.0,0.0,0.0,0.0,0.0,0.0,0.0,0.0,0.0,0.0,0.0,0.0,0.0,0.0,0.0,0.0,0.0,0.0,0.0,0.0,0.0,3.5364,3.557,3.5143,3.548,3.5286,0.0,0.0,0.0,0.0,0.0,0.0,0.0,0.0,0.0,3.8464,3.879,3.9291,4.0019,4.061,4.1318,4.214,4.2028,4.2325,4.288,4.247,4.2389,4.2522,4.1973,4.0887,3.9395,3.8296,3.7572,3.7063,0.0,0.0,0.0,0.0,3.6136,3.5835,0.0,0.0,0.0,0.0,0.0,0.0,0.0,0.0,0.0,0.0,0.0,0.0,3.0717,3.0605,3.0702,3.121,3.1398,3.1563,3.1742,3.1279,3.095,3.0763,3.0133,3.0156,3.1009,3.1173,3.2131,3.3942,3.5707,3.6909,3.7582,3.7749,3.807,3.857,3.875,3.8534,3.8122,3.8747,3.8379,3.7365,0.0,0.0,0.0,0.0,0.0,0.0,0.0,0.0,0.0,0.0,0.0,0.0,0.0,0.0,0.0,0.0,0.0,0.0,0.0,0.0,0.0,0.0,0.0,0.0,0.0,0.0,0.0,0.0,0.0,0.0,0.0,0.0,0.0,0.0,0.0,0.0,0.0,3.6098,3.6387,3.5301,3.6291,3.6426,0.0,0.0,0.0,0.0,0.0,0.0,3.8246,3.8776,3.9432,4.0293,4.0862,4.1304,4.1643,4.2126,4.2758,4.3493,4.2924,4.3083,4.3829,4.3104,4.2901,4.3097,4.2284,4.1549,4.0843,3.9849,3.8817,3.7813,3.7807,3.7833,3.7768,3.7445,3.7077,3.6737,0.0,0.0,0.0,0.0,0.0,0.0,0.0,0.0,0.0,0.0,0.0,2.9887,3.131,3.0867,3.127,3.3185,3.2213,3.178,3.2422,3.0709,2.9422,2.878,2.8111,2.8364,2.9675,3.2093,3.4009,3.538,3.6688,3.7683,3.837,3.892,3.9212,3.9282,3.9965,4.0036,3.9596,3.9643,3.9354,3.8842,3.8125,0.0,0.0,0.0,0.0,0.0,0.0,0.0,0.0,0.0,0.0,0.0,0.0,0.0,0.0,0.0,0.0,0.0,0.0,0.0,0.0,0.0,0.0,0.0,0.0,0.0,0.0,0.0,0.0,0.0,0.0,0.0,0.0,0.0,0.0,0.0,0.0,0.0,0.0,3.5633,3.7714,0.0,0.0,0.0,0.0,3.8246,3.8357,3.8989,4.0356,4.0482,4.1114,4.249,4.2577,4.3209,4.4487,4.4519,4.4898,4.5656,4.5624,4.5634,4.5652,4.4924,4.4586,4.4526,4.3559,4.2709,4.1909,4.0463,3.9837,3.976,3.9764,3.975,3.9715,3.9369,3.8358,3.7132,0.0,0.0,0.0,0.0,0.0,0.0,0.0,0.0,2.8306,2.8024,2.9424,3.0488,3.059,3.1233,3.1938,3.2608,3.266,3.2757,3.295,3.104,3.0359,3.1405,3.0081,3.0401,3.2699,3.3973,3.5278,3.6708,3.7485,3.8034,3.8413,3.8622,3.8722,3.8724,3.8997,3.9363,3.9773,4.0219,3.9845,3.8977,3.8707,3.7861,0.0,0.0,0.0,0.0,0.0,0.0,0.0,0.0,0.0,0.0,0.0,0.0,0.0,0.0,0.0,0.0,0.0,0.0,0.0,0.0,0.0,0.0,0.0,0.0,0.0,0.0,0.0,0.0,0.0,0.0,0.0,0.0,0.0,0.0,0.0,0.0,0.0,3.8144,3.97,0.0,3.8547,3.8944,3.9408,3.9652,4.0364,4.1215,4.2171,4.2632,4.3343,4.4458,4.449,4.4804,4.5403,4.5403,4.553,4.5773,4.5309,4.5078,4.5087,4.4369,4.4053,4.4045,4.3685,4.2848,4.1802,4.1957,4.1311,4.0209,4.0234,4.0227,4.019,3.9879,3.9438,3.8969,0.0,0.0,0.0,0.0,0.0,0.0,0.0,0.0,2.8128,2.7542,2.933,3.0609,3.0446,3.1693,3.2612,3.2804,3.3064,3.319,3.3145,3.1228,3.0667,3.1979,3.1065,3.1716,3.4238,3.5039,3.6136,3.7526,3.8148,3.8519,3.8632,3.8724,3.8727,3.875,3.9012,3.9471,4.0106,4.0624,4.0265,3.9397,3.9391,3.8774,3.7805,0.0,0.0,0.0,0.0,0.0,0.0,0.0,0.0,0.0,0.0,0.0,0.0,0.0,0.0,0.0,0.0,0.0,0.0,0.0,0.0,0.0,0.0,0.0,0.0,0.0,0.0,0.0,0.0,0.0,0.0,0.0,0.0,0.0,0.0,3.9574,4.0388,3.9945,4.1715,4.2284,4.0388,4.1312,4.2043,4.2043,4.2716,4.3439,4.4103,4.4571,4.5,4.538,4.5608,4.5704,4.5613,4.5613,4.5619,4.5682,4.521,4.5025,4.5056,4.4347,4.4022,4.4036,4.3801,4.3169,4.2364,4.3097,4.2508,4.1163,4.103,4.0972,4.0933,4.0648,4.0403,4.0093,0.0,0.0,0.0,0.0,0.0,0.0,0.0,2.6371,2.7099,2.7829,2.9051,3.0148,3.0999,3.2244,3.3276,3.3948,3.3402,3.3003,3.3003,3.1168,3.0101,3.016,3.0778,3.2029,3.3956,3.5263,3.6547,3.7835,3.8684,3.908,3.909,3.931,3.9391,3.9418,4.0161,4.054,4.0618,4.0833,4.0687,4.0246,4.017,4.0136,3.9937,0.0,0.0,0.0,0.0,0.0,0.0,0.0,0.0,0.0,0.0,0.0,0.0,0.0,0.0,0.0,0.0,0.0,0.0,0.0,0.0,0.0,0.0,0.0,0.0,0.0,0.0,0.0,0.0,0.0,0.0,0.0,0.0,0.0,3.9598,4.1439,4.226,4.0948,4.3783,4.4794,4.2054,4.4072,4.5525,4.5525,4.5372,4.5519,4.6183,4.6224,4.5934,4.527,4.5881,4.5912,4.5279,4.5248,4.5319,4.5512,4.5512,4.5582,4.5773,4.5047,4.474,4.4708,4.4027,4.3711,4.3711,4.3688,4.3246,4.2585,4.2219,4.2093,4.2021,4.1679,4.1137,4.0363,0.0,0.0,0.0,0.0,0.0,0.0,0.0,2.6432,2.7207,2.6494,2.8729,3.0461,3.0717,3.2402,3.3784,3.4459,3.3483,3.3043,3.3483,3.1134,3.0207,3.1284,3.283,3.4433,3.605,3.6291,3.7093,3.8541,3.8772,3.8962,3.909,3.931,3.9391,3.943,4.0106,4.0512,4.0707,4.1418,4.1635,4.1547,4.1123,4.0635,4.0102,0.0,0.0,0.0,0.0,0.0,0.0,0.0,0.0,0.0,0.0,0.0,0.0,0.0,0.0,0.0,0.0,0.0,0.0,0.0,0.0,0.0,0.0,0.0,0.0,0.0,0.0,0.0,0.0,0.0,0.0,0.0,4.0005,4.1604,4.1793,4.3169,4.4339,4.4836,4.6161,4.6661,4.5768,4.6164,4.6516,4.6516,4.6332,4.6308,4.6473,4.6503,4.6469,4.6429,4.6594,4.6703,4.6651,4.6171,4.595,4.6006,4.5667,4.5549,4.5573,4.552,4.5498,4.5466,4.474,4.4139,4.3651,4.3177,4.2308,4.1372,4.1724,4.1579,4.1097,4.0572,4.026,4.0036,0.0,0.0,0.0,0.0,0.0,0.0,0.0,2.6403,2.7164,2.6649,2.8927,3.0706,3.0953,3.2775,3.4064,3.4197,3.3247,3.2685,3.2772,3.1274,3.115,3.2831,3.3968,3.5361,3.7036,3.6967,3.7443,3.8557,3.8631,3.8778,3.8971,3.9469,3.9746,3.9849,4.0516,4.1037,4.1429,4.1519,4.1918,4.243,4.1995,4.1666,4.1476,4.1458,4.086,3.9993,3.9991,3.9458,3.8798,3.8798,0.0,0.0,0.0,0.0,0.0,0.0,0.0,0.0,0.0,0.0,0.0,0.0,0.0,0.0,0.0,0.0,0.0,0.0,0.0,0.0,0.0,0.0,0.0,0.0,4.1251,4.2941,4.474,4.5446,4.6122,4.7093,4.7825,4.8089,4.7659,4.771,4.7653,4.7343,4.7123,4.7034,4.7034,4.7034,4.694,4.6782,4.706,4.6964,4.6534,4.614,4.5847,4.5652,4.5391,4.5334,4.549,4.5632,4.5543,4.5291,4.4656,4.4126,4.3648,4.2756,4.195,4.1234,0.0,0.0,0.0,0.0,3.9898,3.9859,0.0,0.0,0.0,0.0,0.0,0.0,0.0,2.6429,2.7004,2.7528,2.9348,3.0786,3.1249,3.3077,3.4051,3.3437,3.2774,3.214,3.1531,3.1568,3.2439,3.4324,3.4478,3.5378,3.7264,3.7293,3.7593,3.8202,3.8389,3.8594,3.8815,3.9699,4.0221,4.0427,4.1194,4.1851,4.2352,4.1547,4.2014,4.3203,4.2808,4.2888,4.3184,4.2476,4.2461,4.2699,4.1891,4.1071,4.0368,4.0368,0.0,0.0,0.0,0.0,0.0,0.0,0.0,0.0,0.0,0.0,0.0,0.0,0.0,0.0,0.0,0.0,0.0,0.0,0.0,0.0,0.0,0.0,0.0,0.0,4.2644,4.4055,4.7736,4.7914,4.7924,4.8462,4.9095,4.922,4.8567,4.8902,4.8893,4.816,4.7936,4.7804,4.7711,4.765,0.0,0.0,0.0,4.6942,4.5844,4.562,4.5318,4.4913,4.4801,4.4977,4.5389,4.5407,4.5132,4.4584,4.4013,4.3626,4.331,4.2204,4.1652,4.1432,4.0828,4.0226,3.9704,3.9704,3.9704,3.9634,0.0,0.0,0.0,0.0,0.0,0.0,0.0,2.672,2.6836,2.6946,2.9101,3.0437,2.9994,3.2201,3.34,3.2737,3.209,3.1626,3.151,3.2003,3.2932,3.4324,3.491,3.5868,3.7264,3.7293,3.7593,3.8202,3.8389,3.8594,3.8815,3.9699,4.0221,4.0457,4.1682,4.2278,4.2392,4.2548,4.3417,4.4616,4.3733,4.3001,4.2454,4.274,4.1775,4.0258,3.9992,3.9443,3.8845,3.8845,3.9428,3.9986,3.8773,3.8711,0.0,0.0,0.0,0.0,0.0,0.0,0.0,0.0,0.0,0.0,0.0,0.0,0.0,0.0,0.0,0.0,0.0,0.0,0.0,4.307,4.4724,4.6339,4.8276,4.9849,5.0746,5.0494,5.0577,5.0544,5.0251,5.029,5.0095,4.9416,4.9313,4.9035,4.844,4.7886,4.7794,4.8194,4.7281,4.6942,4.7219,4.5815,4.5057,4.4974,4.421,0.0,4.477,4.488,4.461,4.4012,4.3362,4.2499,4.1464,4.0652,4.0036,3.9613,3.9484,3.9071,3.8518,3.8518,3.8518,3.8518,0.0,0.0,0.0,0.0,0.0,0.0,0.0,2.6807,2.6917,2.7223,2.8659,2.9653,2.9588,3.1069,3.1773,3.1096,3.1053,3.1315,3.1974,3.2903,3.4005,3.5291,3.6266,3.7263,3.8231,3.8251,3.8405,3.8696,3.8791,3.8998,3.9337,4.0405,4.1069,4.1433,4.2411,4.2851,4.285,4.2966,4.3416,4.4009,4.3612,4.3113,4.2631,4.2909,4.2246,4.1097,4.0612,4.0246,3.9897,3.9541,3.9842,4.0182,3.8972,3.8846,3.8939,0.0,0.0,0.0,0.0,0.0,0.0,0.0,0.0,0.0,0.0,0.0,0.0,0.0,0.0,3.9729,4.0928,0.0,4.1817,4.5051,4.6019,4.7035,4.9082,5.0522,5.1385,5.1369,5.1342,5.131,5.1201,5.0882,5.0431,4.9754,4.9692,4.9374,4.8655,4.7841,4.7769,4.8573,4.7262,4.6773,4.7246,4.5864,4.4985,4.464,4.4158,4.418,4.461,4.4986,4.4688,4.3811,4.3205,4.2371,4.1322,4.0344,3.9638,3.911,3.8787,3.8464,3.8202,3.8202,3.8202,3.8202,0.0,0.0,0.0,0.0,0.0,0.0,0.0,2.6807,2.6975,2.747,2.8296,2.8971,2.9211,3.0045,3.0321,2.9646,3.0198,3.1192,3.2592,3.3752,3.5029,3.6422,3.7593,3.8522,3.9189,3.9305,3.9412,3.945,3.945,3.9574,3.9895,4.1174,4.1922,4.2251,4.296,4.33,4.3289,4.3189,4.3235,4.3401,4.3439,4.3434,4.3372,4.3063,4.2834,4.2552,4.1504,4.1294,4.1393,4.0514,4.038,4.0417,3.9503,3.9186,3.9054,3.8626,3.8466,0.0,0.0,0.0,0.0,0.0,0.0,0.0,0.0,3.825,3.8978,4.0713,4.0842,4.1311,4.3489,4.2801,4.3067,4.6644,4.6743,4.718,4.9478,5.0388,5.093,5.1239,5.1634,5.1887,5.1887,5.121,5.0594,5.0102,4.9891,4.949,4.886,4.7784,4.7638,4.8563,4.7104,4.6579,4.7095,4.5933,4.5106,4.4547,4.42,4.4256,4.4661,4.5011,4.4614,4.359,4.2804,4.2081,4.1387,4.0298,3.9599,3.9131,3.8454,3.8202,3.8202,3.8202,3.8202,3.8202,0.0,0.0,0.0,0.0,0.0,0.0,0.0,0.0,2.6807,2.6894,2.8412,2.9095,2.8014,2.953,3.0321,2.9646,3.0198,3.1374,3.3263,3.4022,3.5224,3.7119,3.7854,3.8522,3.9189,3.9741,4.0129,4.0354,4.0354,4.0274,4.009,4.1426,4.187,4.1553,4.2771,4.33,4.3309,4.3516,4.4096,4.48,4.4167,4.4297,4.4706,4.3288,4.2694,4.2347,4.0422,4.0539,4.1402,4.0049,4.0265,4.0999,4.0231,3.9841,3.9502,3.8458,3.7818,3.7457,3.7451,3.7614,3.7855,3.8237,3.8183,3.8737,0.0,4.1371,4.1194,4.1968,4.2551,4.3146,4.3774,4.3552,4.402,4.6224,4.6814,4.7425,4.8595,4.9356,4.9795,4.9816,5.1456,5.2595,5.2595,5.166,5.1167,5.1462,5.0607,4.9909,4.9588,4.8067,4.7638,4.8563,4.6649,4.6336,4.7849,4.6346,4.5525,4.5454,4.3881,4.374,4.4836,4.4327,4.3707,4.298,4.1193,4.0363,4.0227,3.9576,3.9247,3.9131,3.8454,3.8202,3.8202,3.8202,3.8202,3.8202,0.0,0.0,0.0,0.0,0.0,0.0,0.0,0.0,0.0,2.6807,2.7803,2.8166,2.7281,2.7911,2.8579,2.9036,3.0002,3.144,3.3379,3.4748,3.6045,3.7235,3.858,3.945,3.9712,4.0479,4.0908,4.1027,4.1135,4.1214,4.1277,4.2198,4.2564,4.2542,4.306,4.33,4.3309,4.3587,4.4007,4.4408,4.4007,4.4064,4.4287,4.2595,4.2413,4.2865,4.0771,4.018,0.0,3.9521,3.9599,3.9916,3.9334,3.886,3.8387,3.7714,3.7141,3.6824,3.7271,3.7484,3.7725,3.8293,3.8994,3.9843,4.1017,4.1628,4.2335,4.3739,4.4287,4.4919,4.6163,4.6048,4.6345,4.8139,4.8546,4.8696,4.8757,4.954,4.9639,4.8297,4.9473,5.0523,5.0845,5.0815,5.0513,4.9923,5.0342,4.9961,4.8448,4.7739,4.7521,4.7826,4.6545,4.6267,4.7108,4.6223,4.5373,4.4594,4.3863,4.361,4.3788,4.3863,4.3571,4.2909,4.135,4.067,4.0583,3.9625,3.9189,3.9131,3.8454,3.8202,3.8202,3.8202,3.8202,3.8202,0.0,0.0,0.0,0.0,0.0,0.0,0.0,0.0,0.0,0.0,2.76,2.7803,2.7359,2.701,2.7301,2.8586,2.9711,3.1229,3.335,3.5105,3.6458,3.7356,3.9131,4.0148,4.0305,4.1211,4.1731,4.1851,4.1991,4.2179,4.2455,4.2892,4.326,4.3569,4.3569,4.3698,4.3868,4.4128,4.4226,4.4163,4.4025,4.3833,4.3517,4.2176,4.1972,4.216,4.0448,3.9956,3.9932,3.8942,3.8699,3.873,3.8187,3.7642,3.7173,3.6905,3.6528,3.628,3.6698,3.7142,3.7663,3.8381,3.9631,4.0744,4.1069,4.1978,4.3278,4.522,4.5668,4.622,4.7894,4.7893,4.8013,4.9172,4.9494,4.9417,4.8802,4.9358,4.9159,4.7318,4.7636,4.8254,4.8868,4.947,4.963,4.9156,5.0198,4.9858,4.7597,4.7673,4.7566,4.7103,4.6432,4.6343,4.6807,4.6398,4.5608,4.4454,4.4089,4.3696,4.3258,4.3538,4.3418,4.2931,4.1864,4.1366,4.1279,4.0176,3.9625,3.9392,3.8725,3.8367,3.8202,3.8202,3.8202,3.8202,0.0,0.0,0.0,0.0,0.0,0.0,0.0,0.0,0.0,0.0,0.0,0.0,0.0,2.754,2.7301,2.8586,2.9283,3.0734,3.3329,3.4695,3.6052,3.7524,3.9217,4.0315,4.0782,4.183,4.2547,4.2941,4.2951,4.3051,4.326,4.329,4.3628,4.4267,4.4267,4.4636,4.5265,4.5532,4.5233,4.4579,4.466,4.3896,4.2701,4.2448,4.1173,3.9427,3.8727,3.9777,4.1097,3.83,3.7608,3.7811,3.6993,3.6556,3.6306,3.6161,3.6026,3.5867,3.569,3.6497,3.7667,3.8713,3.9903,4.1157,4.2528,4.3314,4.4278,4.6098,4.6479,4.682,4.8002,4.8178,4.8192,4.8246,4.872,4.8916,4.8308,4.8192,4.7891,4.7185,4.6592,4.6543,4.7198,4.7753,4.873,5.0316,5.0473,4.9698,4.7788,4.82,4.7886,4.6554,4.6263,4.6583,4.7574,4.7081,4.6526,4.5822,4.4597,4.3964,4.385,4.3298,4.3011,4.2961,4.2332,4.2063,4.2015,4.1347,4.0651,4.0002,3.9421,3.8773,3.8202,3.8202,3.8202,3.8202,0.0,0.0,0.0,0.0,0.0,0.0,0.0,0.0,0.0,0.0,0.0,0.0,0.0,0.0,0.0,0.0,2.9653,3.1011,3.2708,3.4572,3.6009,3.6892,3.9259,4.0626,4.0801,4.21,4.287,4.2991,4.314,4.323,4.33,4.33,4.3658,4.4307,4.4307,4.4666,4.5295,4.5061,4.5183,4.5395,4.3945,4.3431,4.3346,4.1216,3.9999,3.9212,0.0,3.7308,3.7433,3.6642,3.6164,3.5953,3.6308,3.6093,3.5613,3.5106,3.5548,3.618,3.6239,3.7557,3.9142,3.9983,4.1498,4.3012,4.3887,4.4867,4.5775,4.6373,4.5871,4.5424,4.5818,4.5887,4.6008,4.6415,4.7634,4.8421,4.8229,4.8536,4.8187,4.6667,4.6323,4.6308,4.6514,4.7052,4.7658,4.8261,4.9295,4.9114,4.7331,4.8039,4.794,4.6744,4.6645,4.6583,4.648,4.6767,4.6128,4.4626,4.3341,4.273,4.2703,4.2519,4.2402,4.2363,4.173,4.1435,4.1366,4.0699,4.0292,4.0089,3.9886,3.9654,3.945,3.945,3.945,3.9334,0.0,0.0,0.0,0.0,0.0,0.0,0.0,0.0,0.0,0.0,0.0,0.0,0.0,0.0,0.0,0.0,0.0,3.0793,3.2156,3.3734,3.5079,3.607,3.7956,3.9177,3.9571,4.0448,4.1049,4.1373,4.1727,4.2133,4.2631,4.2631,4.322,4.4307,4.4057,4.4456,4.5265,4.482,4.466,4.4578,4.297,4.2195,4.177,3.9808,3.8772,0.0,3.6686,3.5707,3.5154,3.5182,3.4917,3.4654,3.5158,3.5171,3.5055,3.5058,3.5525,3.6291,3.7395,3.8552,3.979,4.1189,4.2682,4.4011,4.4827,4.579,4.6454,4.6237,4.5674,4.5109,4.4673,4.4779,4.5061,4.5375,4.6566,4.7638,4.8041,4.8397,4.8258,4.7226,4.6893,4.6887,4.7114,4.7058,4.704,4.7165,4.8886,4.8968,4.6829,4.7841,4.7885,4.6582,4.6535,4.6336,4.5917,4.6325,4.568,4.399,4.2944,4.2295,4.2092,4.2092,4.2092,4.2063,4.1628,4.1464,4.1424,4.0989,4.067,4.0437,4.0176,4.0089,4.006,3.9867,3.9915,3.9944,0.0,0.0,0.0,0.0,0.0,0.0,0.0,0.0,0.0,0.0,0.0,0.0,0.0,0.0,0.0,0.0,0.0,0.0,3.167,3.2365,3.3446,3.5017,3.5575,3.6339,3.7387,3.7258,3.7585,3.8461,3.9101,4.0058,4.1313,4.1323,4.2301,4.4077,4.3449,4.3908,4.5106,4.468,4.3706,4.2349,4.1787,4.0326,3.8457,3.835,3.7563,3.6395,3.5729,3.5078,3.4448,3.4106,3.4037,3.4023,3.3718,3.4059,3.4789,3.6074,3.6183,3.6438,3.9063,3.9521,3.9832,4.2311,4.3371,4.4119,4.5301,4.598,4.621,4.5665,4.5753,4.5576,4.4416,4.4741,4.5133,4.4993,4.5689,4.6647,4.7832,4.7935,4.8135,4.8716,4.8246,4.8092,4.8739,4.7629,4.696,4.7109,4.914,4.9186,4.647,4.7706,4.7793,4.6272,4.6044,4.5935,4.5935,4.5877,4.5238,4.399,4.3322,4.2673,4.2092,4.2092,4.2092,4.2092,4.2092,4.2092,4.2092,4.2092,4.1725,4.1076,4.0437,4.0205,4.0118,3.9567,3.9712,4.0128,0.0,0.0,0.0,0.0,0.0,0.0,0.0,0.0,0.0,0.0,0.0,0.0,0.0,0.0,0.0,0.0,0.0,0.0,3.1249,3.2461,3.3338,3.3781,3.5399,3.6675,3.7396,3.7831,3.8429,3.9161,3.9311,3.9571,3.9909,4.0046,4.0641,4.1554,4.1505,4.1972,4.2746,4.2288,4.214,4.2094,4.0388,3.9646,3.9394,3.7653,3.6784,3.6395,3.5729,3.5078,3.4448,3.4106,3.4462,3.5105,3.5479,3.6025,3.68,3.8086,3.9054,3.988,4.0733,4.1616,4.2455,4.3239,4.36,4.4011,4.4746,4.4704,4.4545,4.473,4.3428,4.2125,4.1641,4.2111,4.2693,4.3097,4.5236,4.744,4.9082,4.9311,4.9503,5.0125,4.9175,4.8538,4.8716,4.8416,4.8058,4.7647,4.8162,4.8359,4.8067,4.8455,4.8463,4.8056,4.7091,4.6569,4.6569,4.5634,4.4774,4.399,4.3322,4.2673,4.2092,4.2092,4.2092,4.2092,4.2092,4.2092,4.2092,4.2092,4.2005,4.1831,4.1667,4.1599,4.157,4.1424,4.1464,4.1482,0.0,0.0,0.0,0.0,0.0,0.0,0.0,0.0,0.0,0.0,0.0,0.0,0.0,0.0,0.0,0.0,0.0,0.0,0.0,3.1961,3.2571,3.2929,3.3827,3.4614,3.5242,3.5631,3.599,3.637,3.7276,3.7545,3.7263,3.8026,3.8546,3.8908,3.9376,3.997,4.0564,4.0307,4.0238,0.0,0.0,3.8036,3.7958,3.6563,3.6058,3.5998,3.5639,3.5332,3.5117,3.5199,3.5484,3.5956,3.6838,3.7583,3.8434,4.0002,4.0819,4.1433,4.2385,4.3211,4.392,4.4302,4.4615,4.4793,4.4593,4.4495,4.4118,4.2999,4.2099,4.11,3.9889,4.0672,4.1685,4.2227,4.4316,4.665,4.8973,4.9305,4.9746,5.0937,5.044,4.9963,4.9963,4.9744,4.9553,4.9465,4.8955,4.8665,4.8687,4.8687,4.8687,4.8687,4.7468,4.6685,4.6406,4.5703,4.5006,4.4396,4.3757,4.3119,4.248,4.2208,4.2092,4.2092,4.2092,4.2092,4.2092,4.2092,4.2092,4.2063,4.1773,4.1831,4.2063,4.1773,4.1841,4.2044,0.0,0.0,0.0,0.0,0.0,0.0,0.0,0.0,0.0,0.0,0.0,0.0,0.0,0.0,0.0,0.0,0.0,0.0,0.0,0.0,3.1759,3.2482,3.2026,3.2086,3.2759,3.2759,3.2759,3.2759,3.4494,3.5011,3.4406,3.5714,3.6337,3.6367,3.713,3.782,3.8458,3.8458,3.8154,3.7651,3.6924,3.6263,3.5712,0.0,3.5511,3.5511,3.5511,3.5618,3.5899,3.666,3.6892,3.7003,3.8202,3.916,4.0205,4.2073,4.2323,4.2389,4.4193,4.4697,4.4886,4.5567,4.5902,4.5781,4.465,4.457,4.3917,4.1154,4.1241,4.1169,3.8987,4.0181,4.1673,4.2262,4.3585,4.5602,4.8668,4.9006,4.9673,5.1617,5.1704,5.1617,5.1717,5.1191,5.1046,5.1572,5.0569,4.9652,4.8989,4.8861,4.8745,4.86,4.7497,4.6609,4.5906,4.5906,4.5529,4.4774,4.4251,4.3612,4.2857,4.2335,4.2092,4.2092,4.2092,4.2092,4.2092,4.2092,4.2092,4.2034,4.1464,4.1599,4.2034,4.1464,4.1599,4.2092,0.0,0.0,0.0,0.0,0.0,0.0,0.0,0.0,0.0,0.0,3.1688,3.172,0.0,0.0,0.0,0.0,0.0,0.0,0.0,0.0,0.0,3.2482,3.2908,3.3462,3.4128,3.4158,3.4158,3.4158,3.4488,3.4338,3.3679,3.4219,3.4478,3.4493,3.4911,3.5469,3.6076,3.6076,3.6352,3.6697,3.6274,3.6032,3.5918,3.5611,0.0,0.0,3.5511,3.5312,3.5322,3.7063,3.8424,3.9567,4.035,4.1773,4.3438,4.4832,4.5183,4.5417,4.6807,4.6867,4.6692,4.7299,4.645,4.5256,4.4473,4.3215,4.1878,4.0618,4.0148,3.9781,3.9179,4.0675,4.2357,4.3475,4.5178,4.7462,5.0647,5.0656,5.1046,5.2936,5.2239,5.1817,5.2352,5.1817,5.1485,5.1601,5.1398,5.1004,5.0378,4.9838,4.9042,4.7997,4.7735,4.7068,4.5906,4.5906,4.5296,4.4164,4.4048,4.338,4.2237,4.216,4.2092,4.2092,4.2092,4.2092,4.2092,4.2092,4.2092,4.2092,4.1976,4.2005,4.2092,4.1976,4.2005,4.2092,0.0,0.0,0.0,0.0,0.0,0.0,0.0,0.0,3.1227,3.1957,3.2471,3.2747,3.2671,3.3226,0.0,0.0,0.0,0.0,0.0,0.0,0.0,0.0,3.3335,3.3642,3.3979,3.4308,3.4316,3.3979,0.0,3.3979,3.2983,3.3313,3.3286,3.2997,3.4051,3.469,3.5021,3.5722,3.6161,3.6328,3.6092,3.5949,3.583,0.0,0.0,0.0,3.5511,3.5719,3.6229,3.7405,3.9338,4.1323,4.1901,4.3166,4.4716,4.5982,4.6377,4.6592,4.7532,4.7837,4.7904,4.7901,4.7248,4.6086,4.4169,4.3008,4.1727,3.9626,3.9282,3.9198,3.8774,3.9973,4.1482,4.2799,4.4327,4.6592,5.0104,5.0349,5.1133,5.372,5.3168,5.2849,5.353,5.2965,5.2588,5.2588,5.231,5.1713,5.0739,5.0071,4.9245,4.8304,4.7968,4.7329,4.6377,4.6051,4.5587,4.4977,4.4629,4.4135,4.3554,4.3235,4.2915,4.2557,4.2557,4.2382,4.2092,4.2092,4.2092,4.2092,4.2092,4.2092,4.2092,4.2092,4.2092,4.2092,0.0,0.0,0.0,0.0,0.0,0.0,0.0,3.0999,3.1471,3.2391,3.3086,3.3566,3.3732,3.4193,3.433,0.0,0.0,0.0,0.0,0.0,0.0,0.0,0.0,0.0,3.3941,0.0,0.0,3.3702,3.4256,0.0,0.0,0.0,0.0,0.0,3.3666,3.4244,3.4343,3.5522,3.6014,0.0,0.0,3.5824,3.568,0.0,0.0,0.0,0.0,3.6313,3.7217,3.7857,3.9795,4.2009,4.2642,4.3993,4.5488,4.6337,4.7004,4.7555,4.8229,4.8856,4.9199,4.8636,4.8237,4.7195,4.4093,4.3091,4.1928,3.8841,3.8609,3.8812,3.8289,3.9247,4.0525,4.1889,4.3293,4.5442,4.8984,4.9826,5.1162,5.3952,5.4068,5.4097,5.4648,5.4097,5.3778,5.3894,5.321,5.2191,5.0768,5.0187,4.9536,4.8716,4.8246,4.7608,4.6818,4.6319,4.5964,4.5674,4.5151,4.4832,4.4687,4.4276,4.3706,4.3066,4.3129,4.2769,4.2164,4.2164,4.2133,4.2092,4.2092,4.2133,4.2164,4.2113,4.2133,4.2164,0.0,0.0,0.0,0.0,0.0,0.0,0.0,3.1065,3.1753,3.3045,3.3362,3.3963,3.5166,3.5337,3.5345,0.0,0.0,0.0,0.0,0.0,0.0,0.0,0.0,0.0,0.0,0.0,0.0,3.4406,3.4466,0.0,0.0,0.0,0.0,0.0,0.0,3.349,3.3545,3.4137,0.0,0.0,0.0,0.0,0.0,0.0,0.0,0.0,0.0,3.6735,3.7354,3.8596,3.9701,4.0773,4.199,4.4341,4.654,4.6098,4.7625,4.9586,5.0262,5.0859,5.1182,5.0577,4.9516,4.7776,4.465,4.3018,4.1435,3.8754,3.826,3.828,3.8202,3.9247,4.0525,4.1889,4.3641,4.5761,4.8438,5.0312,5.1978,5.3429,5.4561,5.5258,5.5316,5.4764,5.4648,5.5171,5.4097,5.263,5.0797,5.0651,5.0029,4.8745,4.8658,4.8019,4.6818,4.6743,4.6145,4.4977,4.4919,4.46,4.4088,4.4194,4.39,4.3305,4.3526,4.3163,4.2361,4.2361,4.2248,4.2092,4.2092,4.2216,4.2341,4.2175,4.2226,4.2341,0.0,0.0,0.0,0.0,0.0,0.0,3.1058,3.1205,3.1805,3.3235,3.3484,3.3993,3.5362,3.5511,3.5511,0.0,0.0,0.0,0.0,0.0,0.0,0.0,0.0,0.0,0.0,0.0,3.537,3.5108,3.4697,0.0,0.0,0.0,0.0,0.0,0.0,3.4667,3.4691,3.5194,0.0,0.0,0.0,0.0,0.0,0.0,0.0,0.0,0.0,0.0,3.7988,3.8374,3.9431,4.0578,4.0607,4.2694,4.5285,4.6174,4.7462,4.8868,5.0303,5.1149,5.1456,5.0842,4.942,4.7433,4.4629,4.3021,4.1377,3.8725,3.8522,3.8812,3.8812,3.9218,3.9973,4.1279,4.2131,4.3631,4.6592,4.7666,4.9494,5.3081,5.3617,5.4327,5.5852,5.5403,5.4996,5.488,5.401,5.2849,5.1323,5.09,5.0262,4.932,4.8902,4.8455,4.7961,4.7166,4.6754,4.6644,4.5877,4.5654,4.5904,4.5584,4.5189,4.4683,4.479,4.4436,4.3782,4.3782,4.3505,4.307,4.307,4.3103,4.3165,4.3082,4.3103,4.3165,0.0,0.0,0.0,0.0,0.0,3.1014,3.1256,3.1321,3.1863,3.3297,3.3492,3.3993,3.5362,3.5511,3.5511,3.5511,0.0,0.0,0.0,0.0,0.0,0.0,0.0,0.0,0.0,0.0,3.5511,3.5511,3.5019,3.4811,0.0,0.0,3.4425,3.4334,0.0,0.0,0.0,0.0,0.0,0.0,0.0,0.0,0.0,0.0,0.0,0.0,0.0,0.0,0.0,0.0,0.0,4.0851,4.0089,4.1491,4.3689,4.5002,4.6812,4.8636,4.9797,5.112,5.1978,5.1162,4.9494,4.7416,4.4861,4.3148,4.1453,3.9218,3.9131,3.9479,3.9479,3.9625,4.006,4.096,4.157,4.2799,4.5267,4.6255,4.813,5.1933,5.2323,5.3239,5.5606,5.5751,5.5345,5.4561,5.4068,5.3226,5.1949,5.1586,5.0871,4.9722,4.9233,4.8938,4.8818,4.7934,4.7672,4.8039,4.7134,4.6922,4.7292,4.6902,4.6348,4.5725,4.579,4.5435,4.479,4.479,4.4345,4.3702,4.3702,4.3744,4.3775,4.3723,4.3744,4.3775,0.0,0.0,0.0,0.0,0.0,0.0,0.0,3.1424,3.1989,3.3335,3.3492,3.3993,3.5362,3.5511,3.5511,3.5511,0.0,0.0,0.0,0.0,0.0,0.0,0.0,0.0,0.0,0.0,3.5511,3.5511,3.5481,3.5548,3.5704,3.5673,3.5429,3.4995,0.0,0.0,0.0,0.0,0.0,0.0,0.0,0.0,0.0,0.0,0.0,0.0,0.0,0.0,0.0,0.0,0.0,0.0,0.0,4.1358,4.2121,4.215,4.5709,4.9528,4.889,5.105,5.3168,5.192,5.0138,4.8019,4.5471,4.3438,4.1725,4.036,4.0089,4.0089,4.0089,4.0641,4.1076,4.1105,4.2702,4.4193,4.4832,4.7074,4.8931,4.9652,5.0859,5.2385,5.4329,5.5635,5.5867,5.459,5.4503,5.3936,5.2655,5.2842,5.1962,4.9763,4.9693,4.9494,4.9103,4.9074,4.8922,4.8594,4.8594,4.8229,4.7586,4.7781,4.7188,4.601,4.6205,4.5785,4.4992,4.4992,4.4481,4.3702,4.3702,4.3816,4.3979,4.3764,4.3826,4.3979,0.0,0.0,0.0,0.0,0.0,0.0,0.0,3.1482,3.1989,3.3335,3.3492,3.3993,3.5362,3.5511,3.5511,3.5511,0.0,0.0,0.0,0.0,0.0,0.0,0.0,0.0,0.0,0.0,3.5511,3.5511,3.5511,3.5514,3.5578,3.5669,3.5607,3.5481,3.5608,3.5534,0.0,0.0,0.0,0.0,0.0,0.0,3.8063,0.0,0.0,0.0,0.0,0.0,0.0,0.0,0.0,0.0,0.0,0.0,0.0,4.1786,4.3894,4.6563,4.7236,4.8467,4.9407,4.8542,4.719,4.5663,4.3979,4.2828,4.1715,4.0379,4.0466,4.0786,4.0786,4.097,4.1395,4.2277,4.2915,4.3699,4.4745,4.6348,4.831,5.0701,5.3661,5.5736,5.6361,5.5983,5.5548,5.5155,5.43,5.355,5.2913,5.2961,5.2477,5.132,5.1038,5.0861,5.074,4.9834,4.9557,4.9876,4.9026,4.8574,4.8493,4.8086,4.7524,4.6902,4.6978,4.6847,4.6574,4.6574,4.6143,4.5483,4.5483,4.5526,4.5557,4.5504,4.5526,4.5508,0.0,0.0,0.0,0.0,0.0,0.0,0.0,3.1503,3.1989,3.3335,3.3492,3.3993,3.5362,3.5511,3.5511,3.5511,0.0,0.0,0.0,0.0,0.0,0.0,0.0,0.0,0.0,3.5759,3.5759,3.5511,3.5759,3.5759,3.5511,3.5603,3.5749,3.5998,3.6142,3.6191,0.0,0.0,0.0,0.0,0.0,0.0,3.8033,0.0,0.0,0.0,0.0,0.0,0.0,0.0,0.0,0.0,0.0,0.0,0.0,0.0,4.2158,4.3688,4.5389,4.6806,4.7648,4.6975,4.5826,4.4629,4.3612,4.2702,4.186,4.1028,4.1192,4.1482,4.1482,4.1667,4.2073,4.2857,4.3409,4.4164,4.543,4.6714,4.8542,5.1269,5.4358,5.6244,5.6244,5.605,5.5828,5.5566,5.4712,5.3967,5.3517,5.362,5.3507,5.3066,5.2051,5.1547,5.1602,5.0538,5.0248,5.0745,4.995,4.9527,4.9392,4.8957,4.8511,4.8038,4.7788,4.7668,0.0,4.7399,4.6909,4.63,4.63,4.63,4.63,4.63,4.63,4.6241,0.0,0.0,0.0,0.0,0.0,0.0,0.0,0.0,3.1989,3.3335,3.3492,3.3993,3.5362,3.5511,3.5511,3.5511,0.0,0.0,0.0,0.0,0.0,0.0,0.0,0.0,0.0,3.6216,3.6246,3.5639,3.6216,3.6186,3.5571,3.5511,3.5848,3.6493,3.6455,3.6434,0.0,0.0,0.0,0.0,0.0,0.0,0.0,0.0,0.0,0.0,0.0,0.0,0.0,0.0,0.0,0.0,0.0,0.0,0.0,0.0,0.0,0.0,0.0,4.5682,4.7218,4.6563,4.5558,4.4563,4.399,4.2944,0.0,4.2092,4.2092,4.2121,4.216,4.2596,4.2974,4.3119,4.4077,4.5285,4.6627,4.8048,4.9644,5.1514,5.3487,5.4662,5.453,5.5908,5.6538,5.5951,5.553,5.5041,5.4418,5.4662,5.4815,5.4828,5.2775,5.1745,5.1892,5.122,5.0994,5.1206,5.1206,5.0847,5.0207,5.0207,4.9841,4.9187,4.8588,4.8278,4.8188,4.7549,4.6939,4.636,4.636,4.636,4.636,4.636,4.636,4.636,0.0,0.0,0.0,0.0,0.0,0.0,0.0,0.0,0.0,0.0,3.3492,3.3993,3.5362,3.5511,3.5511,0.0,0.0,0.0,0.0,0.0,0.0,0.0,0.0,0.0,0.0,3.6866,3.7097,3.6947,3.6665,3.6425,3.6246,3.5729,3.5848,3.6493,3.5968,0.0,0.0,0.0,0.0,0.0,0.0,0.0,0.0,0.0,0.0,0.0,3.8981,3.905,0.0,0.0,0.0,0.0,0.0,0.0,0.0,0.0,4.1003,4.1132,4.1705,0.0,4.3051,4.2758,4.2825,4.2921,0.0,4.2295,4.2092,4.2092,4.2092,4.2237,4.2702,4.2538,4.2789,4.4222,4.4309,4.4821,4.6569,4.9611,5.2033,5.2936,5.5171,5.6167,5.4924,5.6014,5.6839,5.6953,5.5901,5.5325,5.5369,5.5002,5.4905,5.5108,5.4102,5.3356,5.2892,5.2222,5.1649,5.1206,5.1206,5.0847,5.0207,5.0207,4.9591,4.8528,4.8379,4.8008,4.7519,4.7369,4.7209,4.7059,4.7059,4.7059,4.7059,4.7059,4.7059,4.6999,0.0,0.0,0.0,0.0,0.0,0.0,0.0,0.0,0.0,0.0,0.0,0.0,0.0,0.0,0.0,0.0,0.0,0.0,0.0,0.0,0.0,0.0,0.0,0.0,3.6896,3.7524,3.7584,3.6985,3.6926,3.6596,3.6028,3.5661,3.5848,3.6485,3.6118,0.0,0.0,0.0,0.0,0.0,3.8012,0.0,0.0,0.0,0.0,0.0,3.8601,3.8721,0.0,3.9948,4.0217,4.004,0.0,0.0,0.0,0.0,4.0319,4.0319,4.0319,4.1013,4.1666,4.1566,4.1985,4.2361,4.2248,4.1932,4.1715,4.2044,4.187,4.1831,4.2469,4.2567,4.2944,4.428,4.4716,4.5732,4.8246,5.0407,5.2394,5.4155,5.5345,5.6062,5.623,5.6981,5.7453,5.7487,5.6657,5.6089,5.5947,5.5321,5.5057,5.5209,5.485,5.4192,5.3228,5.2558,5.1846,5.1206,5.1206,5.0996,5.0656,5.0656,5.0099,4.9164,4.8876,4.8379,4.7728,4.7429,4.7309,4.7309,4.7309,4.7309,4.7309,4.7309,4.7309,4.7238,0.0,0.0,0.0,0.0,0.0,0.0,0.0,0.0,0.0,0.0,0.0,0.0,0.0,0.0,0.0,0.0,0.0,0.0,0.0,0.0,0.0,0.0,0.0,3.7246,3.7246,3.7922,3.7712,3.6635,3.7075,3.6716,3.5639,3.5541,3.5848,3.6493,3.6605,0.0,0.0,0.0,0.0,0.0,3.8131,0.0,0.0,0.0,0.0,0.0,0.0,0.0,0.0,3.9658,3.9729,3.9331,3.9798,0.0,0.0,0.0,0.0,0.0,3.9445,4.0606,4.1696,4.146,4.1899,4.2363,4.2234,4.1702,4.1395,4.1976,4.1667,4.1482,4.2248,4.2731,4.3322,4.4269,4.5674,4.7689,5.0697,5.1278,5.2394,5.5006,5.5122,5.5649,5.7349,5.7979,5.8137,5.777,5.7351,5.6838,5.6222,5.5551,5.5192,5.5192,5.5192,5.4563,5.3228,5.2648,5.1977,5.1206,5.1206,5.1206,5.1206,5.1206,5.0847,5.0177,4.9565,4.8917,4.8248,4.7578,4.7309,4.7309,4.7309,4.7309,4.7309,4.7309,4.7309,4.7309,0.0,0.0,0.0,0.0,0.0,0.0,0.0,0.0,0.0,0.0,0.0,0.0,0.0,0.0,0.0,0.0,0.0,0.0,0.0,0.0,0.0,0.0,3.6896,3.6635,3.6635,3.7255,3.7464,3.7246,3.6844,3.6545,3.6335,3.5759,3.5848,3.6515,3.7015,3.7366,0.0,0.0,0.0,0.0,3.8131,0.0,0.0,0.0,0.0,0.0,0.0,0.0,0.0,3.8281,3.864,3.8461,3.8003,0.0,0.0,0.0,0.0,0.0,3.9728,4.0952,4.1646,4.0388,4.1263,4.2205,4.1468,4.1629,4.1976,4.2063,4.2005,4.2306,4.3496,4.3322,4.3747,4.5988,4.8391,5.0697,5.2775,5.3994,5.4756,5.4964,5.6365,5.6979,5.617,5.763,5.8451,5.8065,5.7457,5.6838,5.6222,5.5551,5.5192,5.5192,5.5192,5.4563,5.3228,5.3097,5.2438,5.1206,5.1206,5.1206,5.1206,5.1206,5.0847,5.0177,4.9565,4.8917,4.8248,4.7578,4.7309,4.7309,4.7309,4.7309,4.7309,4.7309,4.7309,4.7309,0.0,0.0,0.0,0.0,0.0,0.0,0.0,0.0,0.0,0.0,0.0,0.0,0.0,0.0,0.0,0.0,0.0,0.0,0.0,0.0,0.0,3.7426,3.6806,3.6665,3.6985,3.7255,3.7246,3.6896,3.6635,3.6306,3.5938,3.5631,3.6028,3.6985,3.6926,3.7494,3.8464,0.0,0.0,0.0,0.0,0.0,0.0,0.0,0.0,0.0,0.0,0.0,0.0,0.0,3.8401,3.8281,3.7605,0.0,0.0,0.0,0.0,0.0,3.9023,4.021,4.1125,4.0468,4.1615,4.2702,4.1977,4.169,4.1744,4.244,4.2335,4.2586,4.4193,4.4541,4.5529,4.842,5.0191,5.173,5.3284,5.3573,5.4051,5.5307,5.6054,5.6734,5.7298,5.8186,5.8519,5.8131,5.7483,5.6838,5.6222,5.5551,5.5192,5.5192,5.5192,5.4743,5.3743,5.3366,5.2528,5.1206,5.1206,5.1206,5.1206,5.1206,5.0847,5.0177,4.9901,4.9224,4.8278,4.7978,4.7638,4.7309,4.7309,4.7309,4.7309,4.7309,4.7309,4.7309,0.0,0.0,0.0,0.0,0.0,0.0,0.0,0.0,0.0,0.0,0.0,0.0,0.0,0.0,0.0,0.0,0.0,0.0,0.0,0.0,3.7396,3.7396,3.6956,3.6784,3.6947,3.6947,3.6716,3.6276,3.6276,3.6088,3.5721,3.5721,3.6417,3.7605,3.7144,3.7943,3.9601,3.9089,0.0,0.0,0.0,0.0,0.0,0.0,0.0,0.0,0.0,0.0,0.0,0.0,0.0,0.0,0.0,0.0,0.0,3.7734,3.8003,3.8452,3.8728,3.9737,4.0704,4.0626,4.1837,4.299,4.2806,4.2255,4.2179,4.3602,4.3398,4.3456,4.5053,4.6138,4.7648,5.0274,5.1701,5.2878,5.401,5.3762,5.4189,5.6205,5.6282,5.6871,5.8627,5.8773,5.8587,5.8131,5.7483,5.6838,5.6222,5.5551,5.5192,5.5192,5.5192,5.488,5.4209,5.3545,5.2618,5.1427,5.1277,5.1206,5.1206,5.1206,5.0936,5.0416,5.0267,4.9572,4.8517,4.8368,4.7919,4.7309,4.7309,4.7309,4.7309,4.7309,4.7309,4.7328,0.0,0.0,0.0,0.0,0.0,0.0,0.0,0.0,0.0,0.0,0.0,0.0,0.0,0.0,0.0,0.0,0.0,0.0,0.0,0.0,3.7396,3.7396,3.7366,3.6798,3.5661,3.5631,3.5631,3.5571,3.5571,3.5887,3.6434,3.6434,3.7122,3.8341,3.8281,3.9029,4.0337,4.0277,4.0645,0.0,0.0,0.0,0.0,0.0,0.0,0.0,0.0,0.0,0.0,0.0,0.0,0.0,0.0,0.0,3.7575,3.8161,3.8371,3.8626,3.968,4.0335,4.0646,4.0471,4.1295,4.249,4.3634,4.3826,4.4298,4.6162,4.604,4.5848,4.654,4.8194,4.9715,5.0552,5.3181,5.5374,5.607,5.687,5.754,5.7979,5.8295,5.8611,5.9031,5.9058,5.8803,5.8145,5.7483,5.6838,5.6222,5.5551,5.5192,5.5192,5.5192,5.488,5.4209,5.3545,5.2827,5.2127,5.1487,5.1206,5.1206,5.1206,5.1176,5.1086,5.0476,4.9841,4.9168,4.8558,4.7919,4.7309,4.7309,4.7309,4.7309,4.7309,4.7309,4.7399,0.0,0.0,0.0,0.0,0.0,0.0,0.0,0.0,0.0,0.0,0.0,0.0,0.0,0.0,0.0,0.0,0.0,0.0,0.0,0.0,3.7396,3.7396,3.7396,3.6798,3.5519,3.5511,3.5511,3.5511,3.5511,3.5848,3.6493,3.6493,3.7182,3.8401,3.8401,3.8901,3.9819,4.0208,4.0546,4.0765,0.0,0.0,0.0,0.0,0.0,0.0,0.0,0.0,0.0,0.0,3.6493,3.6434,3.5998,3.6596,3.7375,3.7263,3.7434,3.7828,3.8644,3.9394,4.0138,4.0832,4.1858,4.2799,4.3264,4.399,4.4995,4.6482,4.7236,4.7828,4.8478,5.0498,5.2152,5.2397,5.4778,5.6651,5.6912,5.7577,5.81,5.8181,5.865,5.8977,5.9085,5.9099,5.8816,5.8145,5.7483,5.6838,5.6222,5.5551,5.5192,5.5192,5.5192,5.488,5.4209,5.3545,5.2857,5.2187,5.1517,5.1206,5.1206,5.1206,5.1206,5.1176,5.0936,5.0458,4.9841,4.9602,4.9093,4.8528,4.8528,4.8528,4.8528,4.8528,4.8528,4.8588,0.0,0.0,0.0,0.0,0.0,0.0,0.0,0.0,0.0,0.0,0.0,0.0,0.0,0.0,0.0,0.0,0.0,0.0,3.7037,3.7306,3.7396,3.7396,3.7396,3.6887,3.5848,3.5601,3.5511,3.5511,3.5699,3.6148,3.6784,3.6994,3.7682,3.873,3.873,3.9071,3.9759,4.0217,4.0516,4.0705,4.0487,4.0397,0.0,0.0,0.0,0.0,0.0,0.0,0.0,0.0,3.6186,3.6186,3.6118,3.6708,3.7357,3.7114,3.7259,3.7541,3.7682,3.8427,3.9379,4.0266,4.1596,4.2944,4.3728,4.489,4.64,4.8484,4.9134,4.9511,5.0162,5.173,5.3023,5.3429,5.5731,5.7458,5.7458,5.7974,5.8362,5.8362,5.88,5.9099,5.9099,5.9099,5.8816,5.8145,5.7483,5.6838,5.6222,5.5551,5.5102,5.488,5.488,5.4551,5.3892,5.3216,5.2648,5.2187,5.1517,5.1206,5.1206,5.1206,5.1206,5.1206,5.1206,5.0817,5.0207,5.0207,4.9841,4.9288,4.9288,4.9288,4.9318,4.9505,4.9595,4.9625,0.0,0.0,0.0,0.0,0.0,0.0,0.0,0.0,0.0,0.0,0.0,0.0,0.0,0.0,0.0,0.0,0.0,0.0,3.6464,3.7075,3.7396,3.7396,3.7396,3.7105,3.6493,3.5848,3.5511,3.5511,3.6156,3.6814,3.7426,3.8071,3.8751,3.9391,3.9382,3.9759,4.0367,4.0397,4.0765,4.1313,4.0666,4.0397,0.0,0.0,0.0,0.0,0.0,0.0,0.0,0.0,3.5511,3.5721,3.6977,3.7396,3.7511,3.8028,3.8201,3.8008,3.7145,3.7689,3.8473,3.8512,4.0343,4.2799,4.5325,4.6905,4.8868,5.2704,5.202,5.09,5.1514,5.1617,5.2065,5.3313,5.5937,5.7795,5.7795,5.8307,5.8707,5.8707,5.8923,5.9099,5.9099,5.9099,5.8816,5.8145,5.7483,5.6838,5.6222,5.5551,5.488,5.4209,5.4209,5.3892,5.3198,5.2516,5.2187,5.2187,5.1517,5.1206,5.1206,5.1206,5.1206,5.1206,5.1206,5.0817,5.0207,5.0207,4.9871,4.9318,4.9318,4.9318,4.9396,4.9979,5.0237,5.0327,0.0,0.0,0.0,0.0,0.0,0.0,0.0,0.0,0.0,0.0,0.0,0.0,0.0,0.0,0.0,0.0,0.0,0.0,3.6464,3.6665,3.6784,3.6784,3.6784,3.6447,3.5818,3.6058,3.6186,3.6186,3.5946,3.6357,3.7396,3.7605,3.7785,3.8015,3.8973,3.8981,3.8353,3.9311,3.9819,3.9969,3.9789,3.9886,0.0,0.0,0.0,0.0,0.0,0.0,0.0,0.0,0.0,0.0,3.574,3.6688,3.7523,3.6787,3.7134,3.7734,3.7465,3.7519,3.8083,3.9887,4.1911,4.4211,4.719,4.784,4.8868,5.2704,5.3052,5.2717,5.2907,5.3661,5.4271,5.4213,5.6037,5.7514,5.7767,5.8128,5.8445,5.868,5.8923,5.9099,5.9099,5.9099,5.8816,5.8145,5.7483,5.6838,5.6222,5.5551,5.488,5.4209,5.4209,5.3653,5.2516,5.2306,5.1977,5.1487,5.1307,5.1206,5.1206,5.1206,5.1206,5.1206,5.1206,5.1086,5.0907,5.0907,5.0799,5.0631,5.0631,5.0631,5.072,5.1367,5.1606,5.1636,0.0,0.0,0.0,0.0,0.0,0.0,0.0,0.0,0.0,0.0,0.0,0.0,0.0,0.0,0.0,0.0,0.0,0.0,0.0,3.6335,3.6374,3.6126,3.6365,3.6306,3.5916,3.6545,3.6994,3.7263,3.6596,3.6537,3.7045,3.7554,3.7793,3.7853,3.8913,3.8793,3.7853,3.8652,3.9011,3.9011,3.9011,3.9292,3.9563,0.0,0.0,0.0,0.0,0.0,0.0,0.0,0.0,0.0,3.5697,3.6419,3.6913,3.6352,3.65,3.6939,3.7375,3.7772,3.8551,4.0583,4.2944,4.5529,4.8426,4.9976,5.1556,5.4126,5.4242,5.4039,5.4561,5.4851,5.5084,5.5229,5.6597,5.7723,5.7934,5.8307,5.8637,5.8814,5.8991,5.9099,5.9099,5.8846,5.8427,5.7739,5.7094,5.6479,5.5833,5.5431,5.4773,5.3832,5.3803,5.3174,5.1828,5.1786,5.1726,5.1606,5.1337,5.1337,5.1576,5.1325,5.1206,5.1206,5.1206,5.1367,5.1606,5.1606,5.1756,5.1995,5.1995,5.1995,5.2067,5.2755,5.2815,5.2618,0.0,0.0,0.0,0.0,0.0,0.0,0.0,0.0,0.0,0.0,0.0,0.0,0.0,0.0,0.0,0.0,0.0,0.0,0.0,0.0,3.6126,3.5519,3.6126,3.6545,3.6673,3.7195,3.7764,3.8311,3.7644,3.7075,3.6613,3.7772,3.8281,3.8251,3.8981,3.8892,3.823,3.823,3.8221,3.8204,3.8221,3.8498,3.8756,3.7681,0.0,0.0,0.0,0.0,0.0,0.0,0.0,0.0,3.6374,3.6395,3.5999,3.6383,3.6181,3.6067,3.7174,3.8318,3.9567,4.1076,4.3903,4.698,4.947,5.282,5.5562,5.6099,5.5403,5.5055,5.6258,5.5548,5.5142,5.6273,5.7442,5.8167,5.8195,5.8705,5.9072,5.9099,5.9099,5.9099,5.9099,5.8487,5.7829,5.7154,5.6551,5.5923,5.5251,5.5192,5.4623,5.3336,5.3276,5.2677,5.1385,5.1325,5.1606,5.2187,5.1517,5.1517,5.2097,5.1487,5.1206,5.1206,5.1337,5.1696,5.2187,5.2187,5.2618,5.3198,5.3079,5.3109,5.3288,5.3832,5.3653,5.3198,0.0,0.0,0.0,0.0,0.0,0.0,0.0,0.0,0.0,0.0,0.0,0.0,0.0,0.0,0.0,0.0,0.0,0.0,0.0,0.0,3.5639,3.5511,3.6126,3.6972,3.7982,3.8131,3.8003,3.7614,3.6994,3.6866,3.7225,3.7494,3.7375,3.6964,3.8101,3.7982,3.6913,3.6913,3.6828,3.668,3.6853,3.7002,3.7081,3.6615,3.6216,0.0,0.0,0.0,0.0,0.0,0.0,0.0,3.5627,3.6029,3.6131,3.5773,3.627,3.7212,3.8473,3.8986,3.9973,4.3264,4.6905,5.0204,5.221,5.4097,5.5316,5.4967,5.549,5.6215,5.6984,5.6883,5.6781,5.7071,5.7567,5.7961,5.8154,5.8541,5.8855,5.9072,5.9099,5.9099,5.9099,5.8487,5.7829,5.7154,5.6551,5.5923,5.5251,5.5192,5.4832,5.4012,5.397,5.3593,5.2767,5.2247,5.2067,5.2187,5.1517,5.1277,5.1427,5.1277,5.1206,5.1265,5.2306,5.2558,5.2187,5.2187,5.2618,5.3097,5.2037,5.2276,5.3169,5.2755,5.2887,5.3126,0.0,0.0,0.0,0.0,0.0,0.0,0.0,0.0,0.0,0.0,0.0,0.0,0.0,0.0,0.0,0.0,0.0,0.0,0.0,0.0,3.5511,3.5511,3.6126,3.6934,3.7913,3.7913,3.7913,3.7883,3.6964,3.6485,3.6498,3.7127,3.7216,3.6956,3.7952,3.7862,3.6896,3.6513,3.6351,3.6343,3.6259,3.6432,3.6681,3.6241,3.5882,3.5517,3.4932,0.0,0.0,0.0,0.0,0.0,0.0,0.0,3.5927,3.6217,3.678,3.7651,3.9218,4.0321,4.1947,4.575,4.8723,5.1017,5.2297,5.3574,5.4503,5.4503,5.5751,5.6839,5.6868,5.71,5.7142,5.667,5.7122,5.7498,5.7476,5.7727,5.7981,5.8128,5.8441,5.8637,5.8637,5.8008,5.7483,5.7137,5.6239,5.5564,5.5222,5.5192,5.488,5.4209,5.4209,5.37,5.2737,5.2366,5.2187,5.2187,5.1517,5.1367,5.1666,5.1367,5.1206,5.1247,5.1947,5.2217,5.2187,5.2187,5.2618,5.3139,5.2438,5.2785,5.3605,5.2917,5.2887,5.3097,0.0,0.0,0.0,0.0,0.0,0.0,0.0,0.0,0.0,0.0,0.0,0.0,0.0,0.0,0.0,0.0,0.0,0.0,0.0,0.0,0.0,3.5669,3.6186,3.6784,3.7396,3.7396,3.7614,3.8071,3.7032,0.0,0.0,0.0,0.0,3.7285,3.7823,3.7764,3.7178,3.6382,3.6097,3.6189,3.5849,3.6012,3.6402,0.0,0.0,3.5319,3.4823,3.4647,3.4718,3.5232,0.0,0.0,0.0,0.0,3.579,3.6954,3.7293,3.7699,3.9596,4.1754,4.4356,4.7961,4.9872,5.1046,5.1746,5.282,5.3836,5.4387,5.5736,5.6694,5.6302,5.6663,5.6788,5.5942,5.6546,5.7019,5.6756,5.6941,5.7094,5.7094,5.759,5.7919,5.7919,5.7334,5.6958,5.6958,5.585,5.5192,5.5192,5.5192,5.488,5.4209,5.4209,5.3611,5.2366,5.2247,5.2187,5.2187,5.1517,5.1606,5.2336,5.1666,5.1427,5.1546,5.1666,5.2025,5.2546,5.2546,5.2887,5.3366,5.3258,5.3605,5.4089,5.3336,5.3097,5.3109,0.0,0.0,0.0,0.0,0.0,0.0,0.0,0.0,0.0,0.0,0.0,0.0,0.0,0.0,0.0,0.0,0.0,0.0,3.5511,0.0,0.0,3.6335,3.6455,3.6784,3.7396,3.7396,3.7195,3.6763,0.0,0.0,0.0,0.0,0.0,3.6605,0.0,3.6695,3.6567,3.571,3.5256,3.5094,3.5044,3.4903,0.0,0.0,0.0,0.0,3.4483,3.4454,3.4541,3.5189,3.5334,0.0,0.0,0.0,3.6315,3.709,3.7293,3.7699,3.9596,4.2741,4.6167,4.889,5.0515,5.1804,5.2994,5.3836,5.4387,5.4474,5.4706,5.4996,5.5461,5.5781,5.5971,5.5823,5.6324,5.6743,5.6723,5.6941,5.7094,5.7094,5.7184,5.7244,5.7244,5.6688,5.6312,5.6312,5.5611,5.5192,5.5192,5.5192,5.488,5.4209,5.4209,5.3832,5.3067,5.2498,5.2187,5.2187,5.1517,5.1858,5.3037,5.2366,5.2366,5.2977,5.3563,5.385,5.394,5.394,5.4,5.4012,5.3426,5.3605,5.4059,5.2785,5.2707,5.3007,0.0,0.0,0.0,0.0,0.0,0.0,0.0,0.0,0.0,0.0,0.0,0.0,0.0,0.0,0.0,3.5511,3.5511,3.5511,3.5511,3.5138,3.5228,3.5908,3.5938,3.6246,3.6866,3.6537,3.6387,3.6493,0.0,0.0,0.0,3.7007,3.7293,0.0,0.0,0.0,0.0,3.5469,3.4902,3.4885,3.4693,3.4593,0.0,0.0,0.0,0.0,0.0,0.0,3.4449,3.4756,3.4843,3.5018,3.5996,0.0,0.0,0.0,3.8077,3.8957,4.157,4.3787,4.6051,4.8984,5.0394,5.1423,5.2701,5.35,5.3952,5.3952,5.3952,5.4126,5.4793,5.5279,5.5439,5.5027,5.5496,5.5906,5.5862,5.597,5.603,5.603,5.6359,5.6611,5.6611,5.6372,5.6192,5.6192,5.5581,5.5192,5.5192,5.485,5.4491,5.4209,5.3832,5.3336,5.2648,5.2336,5.2187,5.2187,5.1917,5.2456,5.3755,5.3067,5.2707,5.2677,5.2965,5.3084,5.3084,5.3084,5.3294,5.3605,5.3318,5.3605,5.4089,5.3126,5.3186,5.3623,0.0,0.0,0.0,0.0,0.0,0.0,0.0,0.0,0.0,0.0,0.0,0.0,0.0,0.0,0.0,0.0,3.534,3.516,3.5003,3.4667,3.4727,3.522,3.54,3.5721,3.6246,3.5759,3.5704,0.0,0.0,0.0,3.7527,3.7405,3.8216,0.0,3.8772,3.7807,0.0,0.0,0.0,0.0,0.0,0.0,0.0,0.0,0.0,0.0,0.0,0.0,0.0,3.4382,3.4507,3.4806,3.5764,3.617,0.0,0.0,0.0,3.9567,4.248,4.3816,4.518,4.8415,4.9954,5.1029,5.2307,5.3078,5.3487,5.3487,5.3487,5.3688,5.4248,5.4648,5.4717,5.4151,5.4478,5.4768,5.468,5.4683,5.4743,5.491,5.5234,5.5564,5.5923,5.5803,5.576,5.5923,5.5491,5.5132,5.494,5.4478,5.403,5.37,5.3216,5.2618,5.1947,5.1947,5.2037,5.2187,5.2037,5.2665,5.3922,5.3246,5.2677,5.2217,5.2366,5.2456,5.2456,5.2456,5.2737,5.3216,5.3396,5.3743,5.4149,5.3635,5.3773,5.4089,0.0,0.0,0.0,0.0,0.0,0.0,0.0,0.0,0.0,0.0,0.0,0.0,0.0,3.5511,3.5511,3.5511,3.4929,3.4278,3.3642,3.4158,3.4526,3.4555,3.5168,0.0,3.5541,3.5519,3.543,0.0,0.0,0.0,3.7878,3.7982,3.901,4.0682,3.9357,3.7735,3.6005,0.0,0.0,0.0,0.0,0.0,0.0,0.0,0.0,0.0,0.0,0.0,0.0,0.0,3.4814,3.5363,3.5421,3.5839,3.6422,0.0,0.0,0.0,4.0699,4.216,4.3874,4.7097,4.9315,5.1029,5.2307,5.3078,5.3487,5.3487,5.3487,5.3595,5.387,5.3702,5.3482,5.3449,5.3384,5.3312,5.3306,5.3306,5.3545,5.4192,5.3725,5.3857,5.5132,5.467,5.4581,5.5192,5.5222,5.491,5.4299,5.4209,5.3623,5.2336,5.2276,5.1947,5.1265,5.1236,5.1576,5.2187,5.1546,5.1935,5.3216,5.2558,5.2247,5.2247,5.2857,5.3169,5.3169,5.3169,5.3169,5.3246,5.3892,5.4179,5.4209,5.4149,5.4179,5.4089,0.0,0.0,0.0,0.0,0.0,0.0,0.0,0.0,0.0,0.0,0.0,0.0,0.0,3.4847,3.4689,3.4262,3.4001,3.3949,3.4128,3.4376,3.4496,3.4496,3.513,3.5511,3.5511,3.5367,3.5277,0.0,0.0,3.5849,3.727,3.7181,3.7707,3.8737,3.824,3.7653,3.691,3.5714,0.0,0.0,0.0,0.0,0.0,0.0,0.0,0.0,0.0,0.0,0.0,0.0,0.0,0.0,0.0,0.0,3.7061,3.7699,3.8347,3.916,4.0699,4.1754,4.3166,4.6377,4.8026,4.9286,5.1,5.1846,5.2414,5.2846,5.2904,5.3127,5.3779,5.3792,5.3855,5.4255,5.4263,5.4154,5.3868,5.4204,5.4413,5.4209,5.4371,5.4683,5.5162,5.497,5.494,5.5179,5.5192,5.491,5.4239,5.3773,5.3144,5.2217,5.1786,5.1427,5.1206,5.1206,5.1546,5.2187,5.1977,5.2306,5.3198,5.2947,5.2618,5.2247,5.2917,5.3198,5.3198,5.3198,5.3707,5.4503,5.473,5.485,5.485,5.485,5.485,5.479,0.0,0.0,0.0,0.0,0.0,0.0,0.0,0.0,0.0,0.0,0.0,0.0,0.0,0.0,3.4437,3.3718,3.3705,3.3826,3.4042,3.4234,3.4353,3.4409,3.4985,3.5302,3.5302,3.5179,3.5067,0.0,0.0,0.0,0.0,3.6312,3.6719,3.7483,3.7063,3.6975,0.0,0.0,0.0,3.4756,0.0,0.0,3.4777,0.0,0.0,0.0,0.0,0.0,0.0,0.0,0.0,0.0,0.0,0.0,0.0,0.0,3.8347,3.9131,4.0408,4.125,4.2469,4.5419,4.6707,4.7742,4.9606,5.0398,5.0975,5.1797,5.2197,5.2658,5.357,5.3816,5.3937,5.4099,5.4016,5.3831,5.3569,5.3922,5.4192,5.4209,5.4401,5.4713,5.5162,5.4803,5.4713,5.5162,5.4773,5.4431,5.4209,5.3144,5.2217,5.1546,5.1086,5.0966,5.1206,5.1206,5.1427,5.1846,5.1846,5.2097,5.2528,5.2528,5.2396,5.2217,5.2426,5.2677,5.2887,5.3097,5.3875,5.485,5.485,5.4999,5.5192,5.5192,5.5192,5.5192,0.0,0.0,0.0,0.0,0.0,0.0,0.0,0.0,0.0,0.0,0.0,0.0,0.0,0.0,0.0,3.4061,3.413,3.3913,3.3274,3.3733,3.4088,3.4181,3.4655,3.4902,3.4902,3.4902,3.4827,3.4698,3.4819,3.5058,3.5363,0.0,3.6172,3.7177,3.5964,3.5723,3.6306,0.0,3.6498,3.5392,0.0,3.5421,3.5566,0.0,0.0,3.7331,3.7331,3.7351,3.7264,3.6626,0.0,0.0,0.0,0.0,0.0,0.0,0.0,3.8454,0.0,0.0,0.0,4.4204,4.5503,4.6584,4.8235,4.8802,4.933,5.0423,5.1341,5.2235,5.3204,5.36,5.3538,5.2884,5.2467,5.2217,5.2187,5.2217,5.2725,5.4,5.3563,5.3725,5.5042,5.3964,5.3767,5.5102,5.3977,5.3486,5.4119,5.2235,5.0877,5.0267,5.0207,5.0506,5.1176,5.1206,5.1206,5.1206,5.1206,5.1206,5.1247,5.1247,5.1576,5.2157,5.1546,5.1636,5.2247,5.2917,5.3605,5.4209,5.4209,5.464,5.5192,5.5192,5.5192,5.5192,0.0,0.0,0.0,0.0,0.0,0.0,0.0,0.0,0.0,0.0,0.0,0.0,0.0,0.0,3.3715,3.3994,3.4026,3.397,3.3776,3.434,3.4479,3.408,3.4597,3.4902,3.4902,3.4794,3.4748,3.4698,3.4605,3.46,3.469,3.4703,0.0,0.0,3.5566,3.5479,3.5645,3.5328,0.0,3.5392,3.5392,3.5674,3.6083,3.6422,3.7148,3.7932,3.7932,3.8551,3.9305,3.9102,3.9044,3.8957,0.0,0.0,0.0,0.0,0.0,0.0,3.9218,0.0,0.0,0.0,0.0,0.0,4.6207,4.685,4.7724,4.948,5.0027,5.0747,5.2623,5.303,5.2904,5.2431,5.2689,5.2737,5.2276,5.2618,5.2887,5.2785,5.3037,5.3545,5.4401,5.3695,5.3767,5.5102,5.3977,5.3067,5.2785,5.0882,5.0152,5.0907,5.0446,5.0506,5.1176,5.1206,5.1206,5.1206,5.1206,5.1457,5.1905,5.1905,5.2037,5.2247,5.3012,5.2923,5.2247,5.2917,5.3605,5.4239,5.473,5.5042,5.5192,5.5192,5.5192,5.5192,0.0,0.0,0.0,0.0,0.0,0.0,0.0,0.0,0.0,0.0,0.0,0.0,0.0,0.0,0.0,3.4111,3.4236,3.4277,3.4277,3.4538,3.458,3.4306,3.4538,3.4685,3.4685,3.4622,3.4572,3.4572,3.4471,3.4382,3.4382,3.4382,0.0,0.0,0.0,0.0,0.0,0.0,3.4785,3.5421,3.5674,3.6295,3.7148,3.767,3.8522,3.9421,3.9421,4.006,4.0854,4.0292,4.0089,0.0,0.0,0.0,0.0,0.0,0.0,0.0,0.0,0.0,0.0,4.2409,0.0,0.0,4.4515,4.5063,4.5875,4.7428,4.8319,4.939,5.1244,5.1667,5.1727,5.1762,5.1887,5.2007,5.2187,5.2558,5.2737,5.2618,5.2947,5.3336,5.3743,5.3186,5.3216,5.4294,5.3126,5.2067,5.1397,5.0571,5.0301,5.0757,5.0387,5.0506,5.1176,5.1206,5.1206,5.1206,5.0907,5.1116,5.1756,5.1487,5.1666,5.2217,5.2743,5.2653,5.2247,5.2917,5.3605,5.4281,5.494,5.5192,5.5162,5.488,5.479,5.473,0.0,0.0,0.0,0.0,0.0,0.0,0.0,0.0,0.0,0.0,0.0,0.0,0.0,0.0,0.0,0.0,3.4563,3.4673,3.4673,3.4513,3.4488,3.4664,3.4513,3.4382,3.4382,3.4382,3.4382,3.4382,3.4382,3.4382,3.4382,0.0,0.0,0.0,0.0,0.0,0.0,3.4478,3.4901,3.5558,3.6083,3.7099,3.8434,3.9567,4.0476,4.1105,4.1105,4.1541,4.1918,4.0728,4.0263,4.0118,3.9567,0.0,0.0,0.0,3.9218,0.0,0.0,0.0,0.0,0.0,4.315,0.0,4.3269,4.3683,4.4264,4.5135,4.6524,4.8015,4.9353,4.9812,5.0147,5.0667,5.0458,5.0637,5.1905,5.2097,5.2306,5.2917,5.2977,5.3007,5.3067,5.2486,5.2396,5.3126,5.1977,5.0936,5.0327,5.0727,5.0787,5.0327,5.0237,5.0506,5.1176,5.1206,5.1206,5.1176,5.0596,5.0656,5.1307,5.0637,5.0966,5.2067,5.1457,5.1546,5.2157,5.2887,5.3545,5.4149,5.4922,5.5192,5.5132,5.4521,5.4269,5.4119,0.0,0.0,0.0,0.0,0.0,0.0,0.0,0.0,0.0,0.0,0.0,0.0,0.0,0.0,0.0,0.0,3.4454,3.4471,3.4471,3.4437,3.4437,3.4471,3.4437,3.4382,3.4382,3.4382,3.4382,3.4382,3.4382,3.4382,3.4382,3.4382,0.0,0.0,0.0,0.0,0.0,3.4968,3.5549,3.6141,3.6248,3.7389,3.9044,3.9276,4.0089,4.1105,4.1105,4.1541,4.2073,4.1802,4.1337,4.0873,4.0757,4.0437,4.006,3.9799,0.0,0.0,0.0,0.0,0.0,4.2006,4.3169,0.0,4.3437,4.3787,4.4424,4.5157,4.5578,4.6228,4.7562,4.8293,4.8536,4.8136,4.9262,5.0476,5.1265,5.1397,5.1427,5.1576,5.1576,5.1786,5.2336,5.1786,5.1917,5.3097,5.1977,5.1146,5.0996,5.0163,5.0074,5.0966,5.0476,5.0506,5.1176,5.1206,5.1206,5.1206,5.1056,5.1367,5.1965,5.1295,5.1146,5.1397,5.1265,5.1265,5.1487,5.2707,5.3288,5.3516,5.4743,5.5192,5.5179,5.5029,5.467,5.4179,0.0,0.0,0.0,0.0,0.0,0.0,0.0,0.0,0.0,0.0,0.0,0.0,0.0,0.0,0.0,0.0,0.0,0.0,0.0,3.4382,3.4382,3.4382,3.4382,3.4382,3.4382,3.4382,3.4382,3.4382,3.4382,3.4382,3.4382,3.4382,0.0,0.0,0.0,0.0,3.4441,3.5122,3.5752,3.6364,3.6974,3.8202,3.9683,4.0031,4.0757,4.1599,4.1599,4.1802,4.216,4.2451,4.2335,4.2015,4.1686,4.157,4.1424,4.0786,4.0854,4.1048,4.0809,4.1561,4.2474,4.2759,4.3414,0.0,0.0,4.3519,4.3967,4.4523,4.4485,4.4725,4.6052,4.6292,4.6411,4.676,4.7886,4.9093,5.0092,5.0799,5.1206,5.1206,5.0907,5.0966,5.1636,5.1086,5.1128,5.2127,5.1576,5.1206,5.1206,5.0601,5.0541,5.1187,5.0877,5.0877,5.1206,5.1206,5.1206,5.1206,5.0877,5.1056,5.1666,5.0996,5.0877,5.1217,5.1546,5.1696,5.1786,5.3144,5.3683,5.3815,5.4803,5.5192,5.5162,5.482,5.4491,5.4149,0.0,0.0,0.0,0.0,0.0,0.0,0.0,0.0,0.0,0.0,0.0,0.0,0.0,0.0,0.0,0.0,0.0,0.0,0.0,3.4478,3.4382,3.4382,3.4382,3.4382,3.4382,3.4382,3.4382,3.4382,3.4382,3.4382,3.4382,3.4382,3.4382,3.442,0.0,3.4603,3.4623,3.5433,3.6043,3.6597,3.7999,3.9189,4.0176,4.0844,4.1522,4.2092,4.2092,4.2179,4.2335,4.2712,4.3003,4.3079,4.2469,4.2712,4.3003,4.1957,4.2065,4.2428,4.2059,4.2595,4.3398,4.4048,4.4014,4.3717,0.0,0.0,0.0,4.3805,4.3558,4.3638,4.4736,4.4576,4.4596,4.5583,4.661,4.7638,4.8588,4.9942,5.0828,5.0828,5.035,5.0249,5.0769,5.0338,5.0249,5.0799,5.0828,5.0828,5.0828,5.0828,5.0888,5.0996,5.0996,5.1056,5.1206,5.1206,5.1206,5.1176,5.0656,5.0697,5.1187,5.0518,5.0506,5.1026,5.1468,5.1858,5.2276,5.3222,5.394,5.4461,5.497,5.5192,5.5119,5.4581,5.4299,5.4119,3.4689,3.4572,0.0,0.0,3.4437,0.0,0.0,0.0,0.0,0.0,0.0,0.0,0.0,0.0,0.0,0.0,0.0,0.0,3.5238,0.0,0.0,3.4382,3.4382,3.4382,3.4382,3.4382,3.4382,3.4382,3.4382,3.4382,3.4382,3.4382,3.4382,3.442,3.5026,3.5305,3.5363,3.6577,3.7119,3.7351,3.916,3.9973,4.0176,4.0844,4.1522,4.2092,4.2092,4.244,4.2828,4.2364,4.2944,4.3757,4.3119,4.3351,4.3874,4.3699,4.3839,4.4028,4.399,4.4622,4.521,4.4959,4.5289,4.5431,4.4385,0.0,4.4017,4.3479,0.0,4.3359,4.3509,0.0,0.0,4.3718,4.5702,4.7149,4.6689,4.8308,4.9527,4.9527,4.9456,4.9426,4.9516,4.9456,4.9426,4.9516,4.9527,4.9527,4.9527,4.9527,4.9774,5.0297,5.0327,5.0596,5.1176,5.1206,5.1206,5.1206,5.1116,5.1116,5.1187,5.0518,5.0237,5.0297,4.9834,5.0624,5.2157,5.1726,5.2923,5.5089,5.5162,5.5192,5.5192,5.5089,5.47,5.4179,3.4521,3.4471,0.0,0.0,3.4382,3.4382,0.0,0.0,0.0,0.0,0.0,0.0,0.0,0.0,0.0,0.0,0.0,3.5473,0.0,0.0,0.0,0.0,3.4777,3.4814,3.4412,3.4382,3.4382,3.4382,3.4382,3.4382,3.4382,3.4382,3.4382,3.442,3.5093,3.5392,3.5479,3.6751,3.7496,3.797,3.9479,4.0321,4.0757,4.1424,4.186,4.2092,4.2092,4.248,4.2974,4.2712,4.3467,4.4483,4.4193,4.4309,4.4512,4.4512,4.4414,4.4315,4.4443,4.4862,4.5253,4.5177,4.5378,4.5369,4.4496,4.4307,4.4207,4.3938,0.0,0.0,0.0,0.0,0.0,0.0,4.4566,4.5593,4.5713,4.6452,4.757,4.9108,4.8618,4.8128,4.8128,4.8828,4.9288,4.9288,4.9288,4.9288,4.9288,4.9288,4.9595,5.0177,5.0207,5.0327,5.0637,5.0996,5.0996,5.0626,5.0996,5.1206,5.1176,5.0907,5.0787,5.0787,5.093,5.145,5.2247,5.2743,5.3611,5.467,5.5029,5.5192,5.5192,5.5192,5.5029,5.479,0.0,0.0,0.0,0.0,3.4382,3.4382,3.4382,3.5349,3.5889,3.545,3.6092,0.0,3.7235,3.7003,0.0,0.0,3.7061,3.6373,0.0,0.0,3.5093,0.0,0.0,0.0,3.4412,3.4382,3.4382,3.4382,3.4382,3.4382,3.4382,3.4382,3.4382,3.4449,3.5288,3.5645,3.5723,3.7186,3.8077,3.858,3.9857,4.0786,4.1435,4.1918,4.2092,4.2092,4.2092,4.248,4.3003,4.3003,4.3845,4.489,4.489,4.5046,4.5133,4.5014,4.4967,4.4931,4.4979,4.5313,4.5683,4.5811,4.5723,4.5454,4.4965,4.4725,4.4576,4.4576,4.3848,0.0,0.0,0.0,4.3289,4.3519,0.0,4.4676,4.4975,4.5035,4.5823,4.7959,4.75,4.7089,4.7268,4.8188,4.8678,4.8498,4.8468,4.8468,4.8468,4.8468,4.8835,4.965,4.986,4.9949,4.9949,5.0787,5.0877,5.0207,5.0877,5.1206,5.1206,5.1206,5.1206,5.1247,5.1696,5.2037,5.2276,5.3264,5.3773,5.3982,5.467,5.491,5.494,5.5119,5.5192,5.5192,3.4382,3.4382,0.0,0.0,3.4382,3.4382,3.4382,3.4997,3.5421,3.5392,3.6498,3.7264,0.0,0.0,0.0,0.0,0.0,3.7264,3.7244,0.0,3.5093,0.0,0.0,3.4412,0.0,3.4382,3.4382,3.4382,3.4382,3.4382,3.4382,3.4382,3.4382,3.4441,3.5697,3.6277,3.6402,3.8318,3.916,3.9276,4.0564,4.1453,4.2063,4.2092,4.2092,4.2092,4.2092,4.248,4.3003,4.3003,4.3845,4.489,4.489,4.5354,4.5766,4.5314,4.583,4.6447,4.6054,4.6577,4.7238,4.7238,4.676,4.6271,4.6241,4.5743,4.5285,4.5285,4.5255,4.5214,4.5214,4.5225,4.5005,0.0,4.4825,0.0,0.0,4.4326,4.4606,4.5334,4.5952,4.66,4.7249,4.7339,4.7089,4.645,4.639,4.639,4.639,4.639,4.6999,4.8308,4.8977,4.9318,4.9318,5.0571,5.0877,5.0207,5.0877,5.1206,5.1206,5.1206,5.1206,5.1206,5.1206,5.1606,5.2187,5.2247,5.2648,5.3306,5.3982,5.4239,5.4299,5.497,5.5192,5.5192,0.0,0.0,0.0,0.0,3.4382,3.4536,3.4989,3.5598,3.6295,3.7137,3.7622,3.8405,3.9683,3.9596,3.9741,4.0408,3.9305,3.8367,3.7932,3.7108,0.0,3.5697,0.0,3.5938,3.5084,3.5055,3.4843,3.4382,3.4382,3.4382,3.4382,3.4382,3.4382,3.4449,3.5726,3.6306,3.6431,3.8367,3.9421,3.9915,4.1221,4.2131,4.2654,4.2237,4.2092,4.2092,4.2092,4.248,4.3061,4.3525,4.4222,4.4977,4.5413,4.5732,4.5893,4.5872,4.6204,4.6605,4.6588,4.6946,4.7179,4.676,4.679,4.673,4.5832,4.5802,4.5832,4.5394,4.5315,4.5315,4.5315,4.5315,4.5065,0.0,0.0,4.4396,0.0,4.3628,4.3718,4.3938,4.5343,4.639,4.661,4.6629,4.654,4.633,4.5892,4.5832,4.6271,4.63,4.6909,4.8248,4.8947,4.9108,4.8648,5.0331,5.0649,4.9625,5.0679,5.1206,5.1206,5.1206,5.1206,5.1206,5.1206,5.1337,5.1576,5.2007,5.2336,5.2636,5.376,5.4209,5.4269,5.494,5.5192,5.5192,3.4449,0.0,0.0,3.4382,3.4603,3.4901,3.5334,3.6295,3.7264,3.8086,3.858,3.945,4.0941,4.0699,4.0738,4.1395,4.0495,3.9509,3.8609,3.7961,3.7244,3.6335,3.6713,3.6548,3.5723,3.5723,3.5395,3.4756,3.4756,3.4623,3.4382,3.4382,3.4536,3.4806,3.5842,3.6422,3.6771,3.8696,3.9741,4.0205,4.1551,4.2324,4.2654,4.2248,4.2237,4.2382,4.2179,4.248,4.309,4.3776,4.4396,4.5006,4.5674,4.5933,4.6005,4.6006,4.6484,4.6993,4.6767,4.7149,4.7478,4.6809,4.6969,4.7059,4.6202,4.6341,4.652,4.6112,4.5992,4.5933,4.5683,4.5663,4.5364,0.0,0.0,0.0,0.0,4.316,4.33,4.3339,4.4875,4.5952,4.5952,4.6151,4.6091,4.5613,4.5204,4.5244,4.5922,4.5952,4.655,4.7919,4.8577,4.8618,4.7948,4.9871,5.032,4.9318,5.0601,5.1206,5.1206,5.1206,5.1206,5.1206,5.1206,5.1206,5.1236,5.1905,5.2067,5.1995,5.3581,5.4059,5.3952,5.4862,5.5192,5.5192,3.4536,3.442,3.4449,3.4507,3.4968,3.5392,3.5479,3.7021,3.8202,3.8289,3.9363,4.0408,4.1076,4.1144,4.1395,4.2034,4.1482,4.0583,3.9363,3.8667,3.7757,3.6539,3.6481,3.6452,3.6393,3.6393,3.6083,3.545,3.5421,3.5055,3.4449,3.442,3.4748,3.5421,3.6034,3.6684,3.7467,3.9305,4.0157,4.0321,4.1599,4.2121,4.215,4.2121,4.2509,4.2974,4.2364,4.2498,4.3119,4.3816,4.4425,4.5006,4.5674,4.6034,4.6141,4.5745,4.6675,4.7629,4.6625,4.7279,4.8098,4.7459,4.7309,4.7309,4.7309,4.7309,4.7309,4.7309,4.7309,4.7089,4.642,4.63,4.5852,0.0,0.0,0.0,4.258,4.291,4.3309,4.3339,4.4477,4.5244,4.5315,4.5862,4.5672,4.4396,4.4267,4.4546,4.5244,4.5315,4.5903,4.7249,4.7948,4.7997,4.7369,4.9232,4.9871,4.9378,5.0571,5.1187,5.1206,5.1206,5.1206,5.1206,5.1206,5.1206,5.1236,5.1887,5.1756,5.1397,5.3371,5.3803,5.3456,5.4743,5.5192,5.5192,3.4536,3.4814,3.5288,3.5726,3.5175,3.5154,3.6577,3.7215,3.8028,3.9421,4.0321,4.1105,4.1773,4.1831,4.1918,4.2092,4.1482,4.096,4.0641,3.9973,3.9479,3.9131,3.9131,3.8667,3.7738,3.7709,3.7157,3.6054,3.5616,3.5305,3.5113,3.4623,3.4748,3.5421,3.6034,3.6916,3.8048,3.9479,4.067,4.1609,4.1947,4.2353,4.2712,4.2266,4.2789,4.367,4.2992,4.2857,4.3177,4.428,4.4774,4.5006,4.5674,4.6034,4.6229,4.6326,4.6734,4.7142,4.7054,4.7298,4.7519,4.7339,4.7309,4.7309,4.7309,4.7309,4.7309,4.7309,4.7309,4.7089,4.642,4.63,4.5852,4.4506,4.3878,4.3289,4.25,4.291,4.313,4.27,4.3788,4.4766,4.5244,4.4995,4.4655,4.4337,4.3848,4.4057,4.5255,4.5315,4.5903,4.7249,4.7948,4.8218,4.8027,4.9026,4.9673,4.9979,5.0297,5.0727,5.1206,5.1206,5.1206,5.1206,5.1206,5.1206,5.1206,5.1397,5.1367,5.1367,5.2887,5.3964,5.4743,5.5072,5.5192,5.5192,3.496,3.5337,3.5976,3.6635,3.6364,3.6539,3.7912,3.8144,3.8725,4.0331,4.0873,4.125,4.1628,4.1918,4.2092,4.2092,4.1744,4.1395,4.1105,4.0767,4.0408,4.0118,4.0089,3.9625,3.8667,3.8638,0.0,3.6742,3.6092,3.5674,3.5392,3.4719,3.4893,3.581,3.6141,3.7012,3.8289,3.9567,4.0873,4.2092,4.2092,4.2295,0.0,4.2248,4.2712,4.3554,4.3467,4.3612,4.3932,4.4658,4.5093,4.5384,4.579,4.6102,4.6403,4.6546,4.7029,4.7463,4.7336,4.7519,4.7668,4.7358,4.7309,4.7309,4.7309,4.7309,4.7309,4.7309,4.7309,4.7089,4.642,4.63,4.5852,4.4506,4.3758,4.319,4.2851,4.31,4.316,4.2821,4.3439,4.3997,4.4396,4.4366,4.4187,4.3878,4.3778,4.4177,4.5244,4.5574,4.6232,4.7279,4.8218,4.8588,4.8308,4.9535,5.014,5.0207,5.0506,5.0847,5.1206,5.1206,5.1206,5.1206,5.1206,5.1206,5.1206,5.1206,5.1206,5.1325,5.2677,5.4024,5.5192,5.5192,5.5192,5.5192,3.5761,3.6121,3.6742,3.7331,3.7999,3.8696,3.9441,3.9567,4.0002,4.1192,4.1435,4.1464,4.1377,4.186,4.2179,4.2121,4.2092,4.186,4.1279,4.1221,4.096,4.0379,4.035,4.0089,3.945,3.9354,3.8686,3.7418,3.6655,3.6005,3.5392,3.4719,3.5087,3.6306,3.6306,3.709,3.8522,3.9712,4.096,4.2092,4.2092,4.2092,4.2092,4.2092,4.2538,4.3206,4.3787,4.4396,4.4919,4.5006,4.5413,4.5917,4.594,4.6225,4.662,4.6613,4.7369,4.8038,4.7459,4.7728,4.8038,4.7459,4.7309,4.7309,4.7309,4.7309,4.7309,4.7309,4.7309,4.7089,4.642,4.6241,4.5792,4.4636,4.3938,4.3569,4.3569,4.3569,4.3539,4.3449,4.3419,0.0,4.33,4.3908,4.4057,4.3479,4.3967,4.4576,4.5244,4.5862,4.6491,4.7149,4.8457,4.8917,4.8438,5.0122,5.0727,5.0327,5.0847,5.1128,5.1206,5.1206,5.1206,5.1206,5.1206,5.1206,5.1206,5.1206,5.1307,5.1576,5.2737,5.4024,5.5192,5.5192,5.5192,5.5222,3.6983,3.7438,3.7903,3.8028,3.9015,4.0176,4.1395,4.1599,4.186,4.2557,4.3148,4.3282,4.2741,4.276,4.2654,4.215,4.2092,4.2063,4.1918,4.1918,4.186,4.1744,4.1754,4.1424,4.0786,4.0244,3.9305,3.8057,3.6858,3.6005,3.5392,3.4719,3.5087,3.6306,3.6306,3.7583,3.9828,4.0583,4.1366,4.2092,4.2092,4.2092,4.2092,4.2092,4.2828,4.3845,4.3961,4.4396,4.4977,4.554,4.579,4.594,4.6102,4.6358,4.6613,4.68,4.7151,4.7459,4.7328,4.7399,4.7459,4.7339,4.7309,4.7309,4.7309,4.7309,4.7309,4.7309,4.7309,4.7089,4.642,4.5862,4.5394,4.5155,4.5035,4.4945,4.4945,4.4945,4.4725,4.4187,4.4117,4.3908,4.3359,4.3908,4.4247,4.4117,4.4237,4.4576,4.5244,4.5394,4.5773,4.645,4.7799,4.8678,4.9127,4.9456,5.0103,5.1026,5.0566,5.0656,5.1206,5.1206,5.1206,5.1206,5.1206,5.1206,5.1206,5.1206,5.1846,5.2857,5.3097,5.4024,5.5192,5.5192,5.5192,5.5281,3.8696,3.8725,3.8928,3.9596,4.0495,4.1464,4.2422,4.3409,4.3816,4.309,4.2712,4.2509,4.2538,4.2528,4.2538,4.2567,4.2266,4.2092,4.2092,4.2092,4.2092,4.2092,4.2092,4.1773,4.1105,4.0437,3.9663,3.8725,3.7438,3.6489,3.5868,3.5532,3.5697,3.6335,3.6974,3.8347,4.0118,4.0437,4.1163,4.2092,4.2092,4.2092,4.2121,4.2451,4.3177,4.4048,4.4367,4.489,4.5471,4.579,4.5956,4.6068,4.618,4.6469,4.6767,4.6876,4.7084,4.7309,4.7309,4.7309,4.7309,4.7309,4.7309,4.7309,4.7309,4.7309,4.7309,4.7309,4.7309,4.7209,4.6879,4.6281,4.5832,4.5832,4.5514,4.5315,4.5315,4.5315,4.5035,4.4366,4.4307,4.4177,4.3848,4.4426,4.4516,4.3838,4.4426,4.4825,4.4785,4.5783,4.6341,4.63,4.8256,4.9284,4.9288,5.0295,5.0942,5.1206,5.0877,5.0877,5.1206,5.1206,5.1206,5.1206,5.1206,5.1206,5.1247,5.1576,5.2306,5.3216,5.3575,5.4324,5.5192,5.5192,5.5192,5.5311,4.0205,4.0031,4.0147,4.1144,4.1976,4.2654,4.3148,4.4629,4.518,4.3816,4.2741,4.2335,4.2857,4.2673,4.2654,4.2974,4.2451,4.2092,4.2092,4.2092,4.2092,4.2092,4.2092,4.186,4.1308,4.0534,3.9799,3.9189,3.7932,3.6887,3.6112,3.6248,3.6364,3.6568,3.7854,3.9044,4.0118,4.0263,4.0989,4.2092,4.2092,4.2179,4.2324,4.2828,4.3496,4.4251,4.4716,4.5325,4.5906,4.5906,4.6023,4.6236,4.6325,4.6613,4.692,4.6975,4.7117,4.7309,4.7309,4.7309,4.7309,4.7309,4.7309,4.7309,4.7309,4.7309,4.7309,4.7309,4.7309,4.7309,4.7309,4.6879,4.651,4.651,4.6072,4.5734,4.5734,4.5734,4.5424,4.4606,4.4516,4.4396,4.4127,4.4576,4.4486,4.3569,4.4606,4.5065,4.4546,4.6012,4.664,4.6091,4.8514,4.9632,4.9288,5.0942,5.1576,5.1206,5.1206,5.1206,5.1206,5.1206,5.1206,5.1206,5.1206,5.1277,5.1457,5.2127,5.2797,5.3456,5.3982,5.461,5.5192,5.5192,5.5192,5.5311,4.0989,4.1453,4.186,4.1976,4.3021,4.3845,4.3903,4.4541,4.5151,4.5558,4.5529,4.5471,4.5529,4.4512,4.3612,4.3061,4.2451,4.2092,4.2092,4.2092,4.2092,4.2092,4.2092,4.2063,4.2005,4.0757,3.9799,3.9189,3.7932,3.6673,3.5508,3.6034,3.6626,3.7264,3.8551,3.9479,4.0147,4.0767,4.1424,4.2092,4.2092,4.2422,4.2915,4.2974,4.3757,4.4832,4.489,4.5325,4.5906,4.5906,4.6023,4.628,4.6712,4.6876,4.6953,4.7201,4.7287,4.7309,4.7309,4.7309,4.7309,4.7309,4.7309,4.7309,4.7309,4.7309,4.7309,4.7309,4.7309,4.7309,4.7309,4.7238,4.7209,4.7209,4.7149,4.713,4.713,4.713,4.6651,4.5374,4.5214,4.4736,4.3509,4.3449,4.3698,4.4177,4.4885,4.5274,4.5214,4.5364,4.5454,4.5394,4.741,4.8727,4.9288,5.0021,5.0656,5.1206,5.1206,5.1206,5.1206,5.1206,5.1206,5.1206,5.1206,5.1546,5.2157,5.2827,5.3503,5.4119,5.4179,5.461,5.5192,5.5192,5.5192,5.5311,4.1686,4.1928,4.2324,4.3119,4.3961,4.4541,4.4541,4.5401,4.6,4.5906,4.5238,4.489,4.5267,4.4164,4.3467,4.3583,4.2673,4.2092,4.2092,4.2092,4.2092,4.2092,4.2092,4.2092,4.2092,4.1163,4.0379,3.9741,3.887,3.7796,3.6557,3.7157,3.7796,3.8492,3.9363,4.0089,4.0728,4.0989,4.1482,4.2121,4.2498,4.2789,4.309,4.3845,4.4454,4.4948,4.5354,4.5674,4.5951,4.6243,4.6358,4.6469,4.6657,4.6909,4.7149,4.7277,4.7309,4.7309,4.7309,4.7309,4.7309,4.7309,4.7309,4.7309,4.7309,4.7309,4.7309,4.7309,4.7309,4.7309,4.7309,4.7309,4.7309,4.7309,4.7309,4.7309,4.7309,4.7309,4.68,4.5454,4.5315,4.4945,4.3997,4.3908,4.4356,4.5403,4.5394,4.5315,4.5315,4.6052,4.6322,4.5922,4.7859,4.9048,4.9288,5.029,5.0936,5.1206,5.1206,5.1206,5.1206,5.1206,5.1427,5.1816,5.2217,5.2558,5.2857,5.3503,5.3952,5.4239,5.464,5.497,5.5192,5.5192,5.5192,5.5251,4.2818,4.2905,4.3206,4.4106,4.5093,4.5558,4.4977,4.6156,4.6812,4.5993,4.5122,4.4716,4.5151,4.3874,4.3206,4.367,4.2731,4.2092,4.2092,4.2092,4.2092,4.2092,4.2092,4.2092,4.2092,4.1424,4.0873,4.0379,3.9596,3.8638,3.7554,3.7999,3.8667,3.9479,4.0118,4.0651,4.1105,4.1308,4.1657,4.2131,4.2567,4.2974,4.338,4.428,4.4861,4.5267,4.5732,4.5951,4.6034,4.6358,4.6569,4.669,4.6796,4.7048,4.7309,4.7309,4.7309,4.7309,4.7309,4.7309,4.7309,4.7309,4.7309,4.7309,4.7309,4.7309,4.7309,4.7309,4.7309,4.7309,4.7309,4.7309,4.7309,4.7309,4.7309,4.7309,4.7309,4.7309,4.689,4.5723,4.5603,4.5234,4.4396,4.4307,4.4696,4.5642,4.5454,4.5394,4.5563,4.6491,4.679,4.63,4.8068,4.9108,4.9288,5.0361,5.0996,5.1206,5.1206,5.1307,5.1487,5.1696,5.2067,5.2516,5.3216,5.3486,5.3545,5.4221,5.4478,5.4551,5.5012,5.5192,5.5192,5.5192,5.5192,5.5192,4.4483,4.4861,4.4861,4.489,4.6487,4.7137,4.518,4.6556,4.7341,4.6051,4.5877,4.5877,4.5877,4.4164,4.3003,4.3003,4.2451,4.2092,4.2092,4.2092,4.2092,4.2092,4.2092,4.2092,4.2092,4.1424,4.1105,4.1076,3.9828,3.8841,3.8202,3.8202,3.887,4.0118,4.0786,4.1076,4.1134,4.1802,4.2092,4.2092,4.2121,4.2857,4.399,4.4019,4.4803,4.5877,4.5906,4.6023,4.6213,4.6213,4.6495,4.6942,4.7222,4.7298,4.7309,4.7309,4.7309,4.7309,4.7309,4.7309,4.7309,4.7309,4.7309,4.7309,4.7309,4.7309,4.7309,4.7309,4.7309,4.7309,4.7309,4.7309,4.7309,4.7309,4.7309,4.7309,4.7309,4.7309,4.7059,4.636,4.63,4.5762,4.4426,4.4307,4.4307,4.4326,4.4915,4.5603,4.6241,4.63,4.63,4.63,4.7608,4.8618,4.9288,4.9901,5.0536,5.1206,5.1206,5.1546,5.2217,5.2857,5.3169,5.3228,5.3892,5.4179,5.4239,5.491,5.5192,5.5192,5.5192,5.5192,5.5192,5.5192,5.5192,5.5192,4.2876,4.4019,4.4774,4.4367,4.6226,4.7312,4.5819,4.6446,4.6812,4.5993,4.55,4.5064,4.4658,4.3641,4.3166,4.3641,4.2702,4.2092,4.2092,4.2092,4.2092,4.2092,4.2092,4.2092,4.2092,4.1889,4.1551,4.1105,4.0699,4.0147,3.9509,3.9973,4.0379,4.0815,4.1482,4.1773,4.1802,4.2005,4.2335,4.2741,4.3206,4.3863,4.4658,4.5122,4.5558,4.5929,4.6057,4.6158,4.6258,4.658,4.6789,4.6953,4.7233,4.7309,4.7309,4.7309,4.7309,4.7309,4.7309,4.7309,4.7309,4.7309,4.7309,4.7309,4.7309,4.7309,4.7309,4.7309,4.7309,4.7309,4.7309,4.7309,4.7309,4.7309,4.7309,4.7309,4.7309,4.7309,4.7059,4.639,4.63,4.5942,4.5065,4.4975,4.5174,4.5642,4.5852,4.6061,4.63,4.6719,4.6969,4.6969,4.8278,4.9067,4.9288,5.0361,5.0996,5.1217,5.1666,5.2247,5.2917,5.3563,5.3892,5.3922,5.4581,5.488,5.491,5.5089,5.5192,5.5192,5.5192,5.5192,5.5251,5.57,5.5581,5.5311,4.2712,4.3932,4.4774,4.4396,4.6255,4.7358,4.608,4.6621,4.6882,4.6022,4.554,4.5122,4.4745,4.3699,4.309,4.3253,4.2567,4.2092,4.2092,4.2092,4.2092,4.2092,4.2092,4.2092,4.2092,4.2092,4.1889,4.1482,4.1221,4.0873,4.0466,4.0902,4.1221,4.1482,4.1918,4.2092,4.2121,4.2335,4.2654,4.3061,4.3728,4.4367,4.4948,4.5354,4.5674,4.594,4.6135,4.6269,4.6414,4.6789,4.6975,4.7073,4.7255,4.7309,4.7309,4.7309,4.7309,4.7309,4.7309,4.7309,4.7309,4.7309,4.7309,4.7309,4.7309,4.7309,4.7309,4.7309,4.7309,4.7309,4.7309,4.7309,4.7309,4.7309,4.7309,4.7309,4.7309,4.7309,4.7149,4.673,4.667,4.6401,4.5753,4.5693,4.5743,4.5922,4.639,4.657,4.63,4.6939,4.7429,4.7668,4.8738,4.9396,4.9655,5.093,5.1576,5.1576,5.2516,5.3174,5.3605,5.4281,5.4581,5.461,5.5012,5.5192,5.5192,5.5192,5.5192,5.5192,5.5192,5.5341,5.5623,5.6042,5.5953,5.57,4.3757,4.457,4.5035,4.5035,4.6574,4.7387,4.6138,4.6922,4.7253,4.6051,4.5906,4.5877,4.5859,4.4222,4.2886,4.2266,4.2179,4.215,4.215,4.2219,4.2237,4.2237,4.2237,4.2237,4.2237,4.2237,4.2237,4.2237,4.1512,4.1192,4.1221,4.1221,4.157,4.215,4.215,4.215,4.2208,4.277,4.3032,4.3119,4.3787,4.4425,4.4977,4.4977,4.5354,4.594,4.6146,4.6391,4.6613,4.6855,4.7084,4.7309,4.7309,4.7309,4.7309,4.7309,4.7309,4.7309,4.7309,4.7309,4.7309,4.7309,4.7309,4.7309,4.7309,4.7339,4.7369,4.7298,4.7358,4.7429,4.7309,4.7339,4.7369,4.7298,4.7309,4.7309,4.7309,4.7309,4.7309,4.7309,4.7309,4.7059,4.642,4.636,4.6102,4.5494,4.6591,4.7059,4.648,4.7059,4.7698,4.8278,4.8977,4.9643,5.0267,5.1546,5.2247,5.2366,5.3581,5.4209,5.4299,5.4922,5.5192,5.5192,5.5192,5.5192,5.5192,5.5192,5.5192,5.5192,5.5192,5.5611,5.6192,5.6192,5.6222,5.6282,4.3845,4.5285,4.6337,4.6337,4.7143,4.7532,4.6725,4.6446,4.6226,4.5935,4.5906,4.5714,4.518,4.4727,4.4193,4.3612,4.3079,4.2799,4.2799,4.3264,4.3554,4.3554,4.3554,4.3554,4.3554,4.3554,4.3554,4.3554,4.2422,4.2092,4.2567,4.2567,4.2625,4.2799,4.2799,4.2799,4.2799,4.2944,4.3293,4.3816,4.4425,4.5064,4.5674,4.5674,4.5761,4.5962,4.6347,4.6535,4.6675,4.7051,4.7255,4.7309,4.7309,4.7309,4.7309,4.7309,4.7309,4.7309,4.7309,4.7309,4.7309,4.7309,4.7309,4.7309,4.7309,4.7698,4.7919,4.7399,4.8098,4.8528,4.7489,4.7739,4.7919,4.7388,4.7309,4.7309,4.7309,4.7309,4.7309,4.7309,4.7309,4.7249,4.7089,4.7059,4.6999,4.683,4.7119,4.7459,4.7818,4.8457,4.8648,4.8308,4.9392,5.0308,5.0966,5.1786,5.2725,5.373,5.4059,5.4461,5.4982,5.5132,5.5192,5.5192,5.5192,5.5192,5.5192,5.5192,5.5192,5.5192,5.5192,5.5611,5.6192,5.6192,5.6492,5.6958,4.428,4.5709,4.6888,4.719,4.7317,4.7306,4.7288,4.6475,4.5906,4.5906,4.5906,4.5761,4.5384,4.5093,4.4774,4.4425,4.3816,4.3467,4.3467,4.3816,4.399,4.399,4.399,4.399,4.399,4.399,4.399,4.399,4.3322,4.3148,4.3467,4.3467,4.3467,4.3438,4.3148,4.3177,4.3467,4.3467,4.3816,4.4483,4.5093,4.5587,4.5906,4.5906,4.5945,4.6079,4.6447,4.6646,4.6789,4.7179,4.7309,4.7309,4.7309,4.7309,4.7309,4.7309,4.7309,4.7309,4.7309,4.7309,4.7309,4.7309,4.7309,4.7369,4.7698,4.8038,4.8278,4.8218,4.8798,4.9078,4.8338,4.8248,4.8188,4.7829,4.7489,4.7309,4.7309,4.7309,4.7309,4.7309,4.7309,4.7429,4.7728,4.7758,4.7758,4.7758,4.8038,4.8368,4.8738,4.9655,5.0014,4.9643,5.0589,5.1427,5.2127,5.3084,5.3922,5.467,5.5239,5.5568,5.5683,5.594,5.591,5.5671,5.5671,5.5671,5.5671,5.5671,5.582,5.606,5.606,5.6466,5.7064,5.7064,5.7274,5.762,4.4919,4.6,4.7004,4.7677,4.7248,4.6975,4.7561,4.6661,4.5906,4.5906,4.5906,4.5906,4.5906,4.5384,4.5035,4.5035,4.457,4.4251,4.4135,4.4222,4.428,4.428,4.428,4.428,4.428,4.4193,4.4193,4.428,4.4077,4.4048,4.4135,4.4135,4.4135,4.4106,4.3554,4.3612,4.4135,4.4135,4.4425,4.4948,4.5616,4.5906,4.5906,4.594,4.6046,4.6247,4.6535,4.6756,4.6942,4.7222,4.7309,4.7309,4.7309,4.7309,4.7309,4.7309,4.7309,4.7309,4.7309,4.7309,4.7328,4.7429,4.7459,4.7608,4.8158,4.8457,4.8727,4.9198,4.9456,4.9527,4.9348,4.8828,4.8409,4.8319,4.7728,4.7309,4.7309,4.7309,4.7339,4.7429,4.7459,4.7698,4.8409,4.8468,4.8468,4.8468,4.9067,4.9486,4.9576,5.081,5.1546,5.1666,5.2127,5.2737,5.3486,5.4743,5.5401,5.5491,5.6598,5.6838,5.6342,5.6868,5.6778,5.6205,5.6312,5.6282,5.6222,5.6312,5.6628,5.7094,5.7094,5.75,5.8085,5.7995,5.8098,5.8234,4.5627,4.6319,4.7004,4.7677,4.7248,4.683,4.6946,4.6359,4.5906,4.5906,4.5906,4.5906,4.5906,4.5819,4.5732,4.5732,4.5645,4.5354,4.4803,4.5296,4.5616,4.5616,4.5616,4.5616,4.5616,4.5035,4.5035,4.5616,4.4541,4.4251,4.4774,4.4774,4.4774,4.4745,4.4658,4.4658,4.4774,4.4774,4.4803,4.4948,4.5616,4.5906,4.5929,4.609,4.618,4.6269,4.6701,4.6876,4.6942,4.7222,4.7309,4.7309,4.7309,4.7309,4.7309,4.7309,4.7309,4.7309,4.7309,4.7309,4.7429,4.8008,4.8158,4.8158,4.8278,4.9123,4.98,4.9366,5.0163,5.0571,4.9486,4.9198,4.8947,4.8409,4.7728,4.7309,4.7309,4.7309,4.7519,4.8068,4.8158,4.8397,4.9078,4.9127,4.9127,4.9127,4.9722,5.0308,5.0858,5.2169,5.3144,5.373,5.3306,5.3635,5.4892,5.5653,5.6312,5.6808,5.7017,5.7034,5.6958,5.7077,5.6778,5.6222,5.6748,5.6658,5.6252,5.6748,5.7017,5.7094,5.7094,5.75,5.8025,5.744,5.7962,5.8846,4.6261,4.6911,4.7433,4.7735,4.7248,4.6789,4.6789,4.6301,4.5906,4.5906,4.5906,4.5906,4.5906,4.5906,4.5906,4.5906,4.5906,4.5761,4.5442,4.5732,4.5906,4.5906,4.5906,4.5906,4.5906,4.5587,4.5587,4.5906,4.5296,4.5151,4.5442,4.5064,4.489,4.489,4.457,4.46,4.489,4.489,4.5093,4.5471,4.579,4.5956,4.6068,4.6169,4.6369,4.6613,4.6833,4.6997,4.7117,4.7266,4.7309,4.7309,4.7309,4.7309,4.7309,4.7309,4.7309,4.7309,4.7309,4.7309,4.7459,4.8128,4.8308,4.8487,4.9183,4.977,5.0207,5.0301,5.0799,5.1008,5.0421,4.9756,4.9307,4.9303,4.8196,4.7429,4.7788,4.7859,4.7948,4.8248,4.8895,4.9602,5.0253,5.0642,5.0852,5.0852,5.1109,5.1576,5.2247,5.2857,5.3665,5.47,5.4773,5.5114,5.573,5.6735,5.7184,5.7094,5.7842,5.7992,5.7649,5.8022,5.7842,5.7244,5.75,5.7483,5.7244,5.75,5.7859,5.8171,5.8171,5.8381,5.8607,5.8291,5.856,5.9069,4.6493,4.6998,4.737,4.737,4.7044,4.6743,4.6598,4.6319,4.6051,4.5906,4.5906,4.5906,4.5906,4.5906,4.5906,4.5906,4.5906,4.5906,4.5906,4.5906,4.5906,4.5906,4.5906,4.5906,4.5906,4.5906,4.5906,4.5906,4.5906,4.5906,4.5877,4.5384,4.5122,4.5093,4.4658,4.4687,4.5122,4.5122,4.5442,4.5917,4.5933,4.6057,4.6225,4.6336,4.6602,4.692,4.6975,4.7117,4.7309,4.7309,4.7309,4.7309,4.7309,4.7309,4.7309,4.7309,4.7309,4.7369,4.7668,4.7638,4.7728,4.8536,4.8745,4.9015,4.9968,5.0446,5.0817,5.1337,5.1546,5.1606,5.1457,5.0522,4.9804,4.9949,4.8734,4.7889,4.8248,4.8536,4.8805,4.8966,4.9961,5.0936,5.1606,5.2127,5.2426,5.2426,5.2576,5.2875,5.3396,5.3575,5.4204,5.5401,5.5923,5.6342,5.6628,5.762,5.7919,5.7573,5.862,5.8816,5.8367,5.889,5.8726,5.8115,5.8264,5.8234,5.8115,5.8278,5.8637,5.9099,5.9099,5.9099,5.9099,5.9099,5.9099,5.9099,4.5964,4.5993,4.6051,4.6051,4.6464,4.6598,4.6051,4.6406,4.6522,4.5964,4.5906,4.5906,4.5906,4.5906,4.5906,4.5906,4.5906,4.5906,4.5906,4.5906,4.5906,4.5906,4.5906,4.5906,4.5906,4.5906,4.5906,4.5906,4.5906,4.5906,4.5906,4.5848,4.583,4.5819,4.579,4.579,4.583,4.583,4.5848,4.5929,4.6102,4.6202,4.6258,4.669,4.6887,4.6942,4.716,4.7287,4.7309,4.7309,4.7309,4.7309,4.7309,4.7309,4.7309,4.7309,4.7309,4.7578,4.8828,4.8708,4.8517,4.974,5.0058,5.0088,5.0177,5.1146,5.2067,5.2127,5.2618,5.2857,5.2247,5.1546,5.069,4.9546,4.9258,4.8947,4.8379,4.9333,5.0297,5.0907,5.1606,5.2306,5.2977,5.3097,5.3139,5.3139,5.3713,5.4059,5.4119,5.4713,5.5371,5.6102,5.6162,5.6778,5.7949,5.8055,5.8397,5.8936,5.9069,5.9056,5.9039,5.9069,5.8726,5.8115,5.8756,5.8667,5.8145,5.8756,5.9069,5.9099,5.9099,5.9099,5.9099,5.9099,5.9099,5.9099,4.5906,4.5906,4.5906,4.5906,4.6098,4.6301,4.6435,4.6348,4.6301,4.6435,4.6127,4.5906,4.5906,4.5906,4.5906,4.5906,4.5906,4.5906,4.5906,4.5906,4.5906,4.5906,4.5906,4.5906,4.5906,4.5906,4.5906,4.5906,4.5906,4.5906,4.5877,4.5471,4.5267,4.5267,4.5267,4.5267,4.5296,4.5732,4.5956,4.609,4.618,4.6351,4.6638,4.6844,4.6997,4.7149,4.7266,4.7309,4.7309,4.7309,4.7309,4.7309,4.7309,4.7309,4.7309,4.7309,4.7309,4.7489,4.8438,4.8487,4.8607,4.9878,5.0207,5.0327,5.0727,5.1206,5.1696,5.2127,5.2396,5.2618,5.2797,5.2276,5.1798,5.1732,5.1031,5.0541,5.0702,5.0532,5.0736,5.1715,5.2117,5.272,5.3711,5.4204,5.4593,5.5025,5.5294,5.5431,5.5431,5.5671,5.6299,5.7363,5.7393,5.762,5.8085,5.8517,5.8846,5.9099,5.9099,5.9099,5.9099,5.9099,5.8966,5.8726,5.9009,5.8949,5.8726,5.8996,5.9099,5.9099,5.9099,5.9099,5.9099,5.9099,5.9099,5.9099,4.5906,4.5906,4.5906,4.5906,4.6051,4.6272,4.6493,4.6319,4.6272,4.6493,4.6156,4.5906,4.5906,4.5906,4.5906,4.5906,4.5906,4.5906,4.5906,4.5906,4.5906,4.5906,4.5906,4.5906,4.5906,4.5906,4.5906,4.5906,4.5906,4.5906,4.5877,4.5442,4.5209,4.5209,4.5209,4.5209,4.5249,4.5781,4.6068,4.6225,4.6369,4.6624,4.692,4.6997,4.7127,4.7309,4.7309,4.7309,4.7309,4.7309,4.7309,4.7309,4.7309,4.7309,4.7339,4.7549,4.7608,4.7788,4.8656,4.8895,4.9093,4.9968,5.0518,5.0877,5.1146,5.1684,5.2205,5.2456,5.2845,5.3204,5.3486,5.3144,5.2845,5.2887,5.2205,5.181,5.2145,5.1812,5.1868,5.2718,5.3102,5.3587,5.4446,5.5119,5.57,5.6162,5.6372,5.6492,5.6492,5.6688,5.7184,5.8055,5.8308,5.8427,5.8427,5.8876,5.9099,5.9099,5.9099,5.9099,5.9099,5.9099,5.9099,5.9099,5.9099,5.9099,5.9099,5.9099,5.9099,5.9099,5.9099,5.9099,5.9099,5.9099,5.9099,5.9099,4.5906,4.5906,4.5906,4.5906,4.6406,4.6598,4.5993,4.6406,4.6569,4.5993,4.5906,4.5906,4.5906,4.5906,4.5906,4.5906,4.5906,4.5906,4.5906,4.5906,4.5906,4.5906,4.5906,4.5906,4.5906,4.5906,4.5906,4.5906,4.5906,4.5906,4.5906,4.5906,4.5906,4.5906,4.5906,4.5906,4.5929,4.6124,4.6213,4.6258,4.6693,4.6909,4.6942,4.7212,4.7309,4.7309,4.7309,4.7309,4.7309,4.7309,4.7309,4.7309,4.7309,4.7298,4.7429,4.8098,4.8308,4.8577,4.9848,5.0207,5.0207,5.0207,5.1206,5.2007,5.1367,5.2743,5.4012,5.3348,5.4264,5.497,5.4341,5.4209,5.376,5.2426,5.2567,5.266,5.227,5.3133,5.3893,5.4184,5.479,5.5179,5.5222,5.5803,5.6192,5.6222,5.6778,5.7094,5.7137,5.7739,5.8085,5.8115,5.8756,5.9099,5.9099,5.9099,5.9099,5.9099,5.9099,5.9099,5.9099,5.9099,5.9099,5.9099,5.9099,5.9099,5.9099,5.9099,5.9099,5.9099,5.9099,5.9099,5.9099,5.9099,5.9099,5.9099,4.5906,4.5906,4.5906,4.5906,4.6051,4.6243,4.6493,4.6319,4.6272,4.6493,4.6156,4.5906,4.5906,4.5906,4.5906,4.5906,4.5906,4.5906,4.5906,4.5906,4.5906,4.5906,4.5906,4.5906,4.5906,4.5906,4.5906,4.5906,4.5906,4.5906,4.5906,4.5906,4.5906,4.5906,4.5906,4.5967,4.6113,4.618,4.6403,4.6682,4.6855,4.7008,4.7201,4.7277,4.7309,4.7309,4.7309,4.7309,4.7309,4.7309,4.7309,4.7388,4.7848,4.8008,4.8128,4.8798,4.9007,4.9067,4.9475,4.9871,5.0327,5.0775,5.1206,5.1457,5.1236,5.2025,5.2875,5.3126,5.3892,5.4581,5.485,5.4759,5.4534,5.4346,5.4236,5.422,5.4316,5.3862,5.3868,5.4779,5.4327,5.4455,5.5786,5.6072,5.6568,5.7483,5.7709,5.8008,5.8471,5.8248,5.8338,5.8786,5.9009,5.9099,5.9099,5.9099,5.9099,5.9099,5.9099,5.9099,5.9099,5.9099,5.9099,5.9099,5.9099,5.9099,5.9099,5.9099,5.9099,5.9099,5.9099,5.9099,5.9099,5.9099,5.9099,5.9099,4.5906,4.5906,4.5906,4.5906,4.5906,4.6022,4.6377,4.6127,4.6022,4.6406,4.6127,4.5906,4.5906,4.5906,4.5906,4.5906,4.5906,4.5906,4.5906,4.5906,4.5906,4.5906,4.5906,4.5906,4.5906,4.5906,4.5906,4.5906,4.5906,4.5906,4.5906,4.5906,4.5906,4.5906,4.5967,4.609,4.6225,4.6414,4.6646,4.692,4.7019,4.7149,4.7309,4.7309,4.7309,4.7309,4.7309,4.7309,4.7309,4.7309,4.7309,4.7429,4.8098,4.8308,4.8487,4.9385,4.9643,4.9714,4.9984,5.032,5.0697,5.1086,5.1606,5.1846,5.1325,5.2115,5.3025,5.3156,5.3713,5.4364,5.492,5.4917,5.4866,5.5032,5.5023,5.5044,5.5188,5.4694,5.4648,5.5492,5.4932,5.4938,5.6098,5.6658,5.7393,5.8427,5.8517,5.8667,5.9069,5.8726,5.8697,5.9099,5.9099,5.9099,5.9099,5.9099,5.9099,5.9099,5.9099,5.9099,5.9099,5.9099,5.9099,5.9099,5.9099,5.9099,5.9099,5.9099,5.9099,5.9099,5.9099,5.9099,5.9099,5.9099,5.9099,5.9099,4.5906,4.5906,4.5906,4.5906,4.5906,4.5906,4.5906,4.5906,4.5906,4.5906,4.5906,4.5906,4.5906,4.5906,4.5906,4.5906,4.5906,4.5906,4.5906,4.5906,4.5906,4.5906,4.5906,4.5906,4.5906,4.5906,4.5906,4.5906,4.5906,4.5906,4.5906,4.5906,4.5906,4.5917,4.6113,4.6225,4.6269,4.6723,4.692,4.6964,4.7212,4.7309,4.7309,4.7309,4.7309,4.7309,4.7309,4.7309,4.7309,4.7309,4.7309,4.7429,4.8098,4.8338,4.8637,4.9848,5.0237,5.0416,5.1026,5.1206,5.1206,5.1206,5.2217,5.2857,5.1576,5.2743,5.394,5.3371,5.3795,5.4366,5.4696,5.4764,5.4777,5.4803,5.5032,5.5223,5.5257,5.5521,5.5814,5.6128,5.6179,5.6222,5.6282,5.7453,5.8457,5.9069,5.9099,5.9099,5.9099,5.9099,5.9099,5.9099,5.9099,5.9099,5.9099,5.9099,5.9099,5.9099,5.9099,5.9099,5.9099,5.9099,5.9099,5.9099,5.9099,5.9099,5.9099,5.9099,5.9099,5.9099,5.9099,5.9099,5.9099,5.9099,5.9099,5.9129,4.5906,4.5906,4.5906,4.5906,4.5906,4.5906,4.5906,4.5906,4.5906,4.5906,4.5906,4.5906,4.5906,4.5906,4.5906,4.5906,4.5906,4.5906,4.5906,4.5906,4.5906,4.5906,4.5906,4.5906,4.5906,4.5906,4.5906,4.5906,4.5906,4.5906,4.5906,4.5906,4.5906,4.5917,4.6113,4.6325,4.6524,4.6789,4.7019,4.7233,4.7287,4.7309,4.7309,4.7309,4.7309,4.7309,4.7309,4.7309,4.7309,4.7309,4.7309,4.7429,4.8098,4.8648,4.9247,4.9979,5.0566,5.0996,5.1146,5.1206,5.1206,5.1206,5.2217,5.2977,5.2187,5.2737,5.3454,5.3615,5.4208,5.4624,5.4445,5.4394,5.45,5.4777,5.4631,5.4774,5.5482,5.566,5.5736,5.5801,5.6051,5.6402,5.6868,5.8112,5.8949,5.9099,5.9099,5.9099,5.9099,5.9099,5.9099,5.9099,5.9099,5.9099,5.9099,5.9099,5.9099,5.9099,5.9099,5.9099,5.9099,5.9099,5.9099,5.9099,5.9099,5.9099,5.9099,5.9099,5.9099,5.9099,5.9099,5.9099,5.9099,5.9099,5.9099,5.9189,4.5906,4.5906,4.5906,4.5906,4.5906,4.5906,4.5906,4.5906,4.5906,4.5906,4.5906,4.5906,4.5906,4.5906,4.5906,4.5906,4.5906,4.5906,4.5906,4.5906,4.5906,4.5906,4.5906,4.5906,4.5906,4.5906,4.5906,4.5906,4.5906,4.5906,4.5906,4.5906,4.5933,4.6046,4.6291,4.6524,4.6756,4.6986,4.716,4.7309,4.7309,4.7309,4.7309,4.7309,4.7309,4.7309,4.7309,4.7309,4.7309,4.7309,4.7309,4.7429,4.8098,4.8768,4.9426,5.0009,5.0656,5.1206,5.1206,5.1427,5.1606,5.1277,5.1977,5.2618,5.2276,5.2965,5.3711,5.3779,5.4085,5.4311,5.4296,5.4304,5.4394,5.4764,5.5058,5.5404,5.5866,5.6337,5.6565,5.6381,5.6793,5.7363,5.7992,5.8397,5.8756,5.9069,5.9099,5.9099,5.9099,5.9099,5.9099,5.9099,5.9099,5.9099,5.9099,5.9099,5.9099,5.9099,5.9099,5.9099,5.9099,5.9099,5.9099,5.9099,5.9099,5.9099,5.9099,5.9099,5.9099,5.9099,5.9099,5.9099,5.9099,5.9099,5.9099,5.9159,4.5906,4.5906,4.5906,4.5906,4.5906,4.5906,4.5906,4.5906,4.5906,4.5906,4.5906,4.5906,4.5906,4.5906,4.5906,4.5906,4.5906,4.5906,4.5906,4.5906,4.5906,4.5906,4.5906,4.5906,4.5906,4.5906,4.5906,4.5906,4.5922,4.5933,4.5933,4.6019,4.6102,4.6291,4.6535,4.6734,4.6931,4.7201,4.7309,4.7309,4.7309,4.7309,4.7309,4.7309,4.7309,4.7309,4.7309,4.7309,4.7309,4.7309,4.7309,4.7429,4.8098,4.8768,4.9426,5.0009,5.0656,5.1206,5.1206,5.1696,5.2067,5.1517,5.1941,5.2486,5.2486,5.325,5.3953,5.3911,5.3891,5.3951,5.4202,5.4278,5.4397,5.4607,5.5496,5.611,5.6046,5.6912,5.7407,5.7079,5.7653,5.8338,5.8876,5.8517,5.8517,5.9069,5.9099,5.9099,5.9099,5.9099,5.9099,5.9099,5.9099,5.9099,5.9099,5.9099,5.9099,5.9099,5.9099,5.9099,5.9099,5.9099,5.9099,5.9099,5.9099,5.9099,5.9099,5.9099,5.9099,5.9099,5.9099,5.9099,5.9099,5.9099,5.9099,5.9099,4.5906,4.5906,4.5906,4.5906,4.5906,4.5906,4.5906,4.5906,4.5906,4.5906,4.5906,4.5906,4.5906,4.5906,4.5906,4.5906,4.5906,4.5906,4.5906,4.5906,4.5906,4.5906,4.5906,4.5906,4.5906,4.5906,4.5906,4.5906,4.6068,4.6169,4.6169,4.6391,4.6532,4.6546,4.6767,4.6887,4.6931,4.7201,4.7309,4.7309,4.7309,4.7309,4.7309,4.7309,4.7309,4.7309,4.7309,4.7309,4.7309,4.7309,4.7309,4.7429,4.8098,4.8768,4.9426,5.0009,5.0656,5.1206,5.1206,5.1696,5.2187,5.2097,5.2837,5.357,5.357,5.329,5.3233,5.4065,5.422,5.4189,5.3993,5.4136,5.4239,5.4062,5.4822,5.5437,5.5427,5.6245,5.6806,5.676,5.755,5.8145,5.8248,5.8667,5.9009,5.9099,5.9099,5.9099,5.9099,5.9099,5.9099,5.9099,5.9099,5.9099,5.9099,5.9099,5.9099,5.9099,5.9099,5.9099,5.9099,5.9099,5.9099,5.9099,5.9099,5.9099,5.9099,5.9099,5.9099,5.9099,5.9099,5.9099,5.9099,5.9099,5.9099,5.9099,4.5906,4.5906,4.5906,4.5906,4.5906,4.5906,4.5906,4.5906,4.5906,4.5906,4.5906,4.5906,4.5906,4.5906,4.5906,4.5906,4.5906,4.5906,4.5906,4.5906,4.5906,4.5906,4.5906,4.5933,4.6068,4.6068,4.6135,4.628,4.6236,4.6291,4.6425,4.6524,4.6646,4.6767,4.6866,4.6986,4.7117,4.7255,4.7309,4.7309,4.7309,4.7309,4.7309,4.7309,4.7309,4.7369,4.7728,4.7608,4.7429,4.8158,4.8158,4.7978,4.8648,4.9295,4.9871,5.0117,5.0656,5.1265,5.1666,5.2247,5.2731,5.2574,5.3179,5.375,5.3617,5.3342,5.3364,5.4152,5.4304,5.4265,5.4149,5.4097,5.4165,5.4375,5.5214,5.5942,5.6258,5.7176,5.787,5.8017,5.8078,5.8234,5.8637,5.8949,5.9099,5.9099,5.9099,5.9099,5.9099,5.9099,5.9099,5.9099,5.9099,5.9099,5.9099,5.9099,5.9099,5.9099,5.9099,5.9099,5.9099,5.9099,5.9099,5.9099,5.9099,5.9099,5.9099,5.9099,5.9099,5.9099,5.9099,5.9099,5.9099,5.9099,5.9099,5.9099]},{"header":{"parameterUnit":"m.s-1","parameterCategory":1,"la1":30.6,"la2":28.766,"lo1":-90.7593,"lo2":-88.6598,"dy":0.0162,"dx":0.0183,"nx":116,"ny":114,"refTime":"2023-05-23T12:00:00:Z","depth":0,"parameterNumber":3,"parameterNumberName":"V-component_of_WINDS"},"data":[0.0,0.0,0.0,0.0,0.0,0.0,0.0,0.0,0.0,0.0,0.0,0.0,0.0,0.0,0.0,0.0,0.0,0.0,0.0,0.0,0.0,0.0,0.0,0.0,0.0,0.0,0.0,0.0,0.0,0.0,0.0,0.0,0.0,0.0,0.0,0.0,0.0,0.0,0.0,0.0,0.0,0.0,0.0,0.0,0.0,0.0,0.0,0.0,0.0,0.0,0.0,0.0,0.0,0.0,0.0,0.0,0.0,0.0,0.0,0.0,0.0,0.0,0.0,0.0,0.0,0.0,0.0,0.0,0.0,0.0,0.0,0.0,0.0,0.0,0.0,0.0,0.0,0.0,0.0,0.0,0.0,0.0,0.0,0.0,0.0,0.0,0.0,0.0,0.0,0.0,0.0,0.0,0.0,0.0,0.0,0.0,0.0,0.0,0.0,0.0,0.0,0.0,0.0,0.0,0.0,0.0,0.0,0.0,0.0,0.0,0.0,0.0,0.0,0.0,0.0,0.0,0.0,0.0,0.0,0.0,0.0,0.0,0.0,0.0,0.0,0.0,0.0,0.0,0.0,0.0,0.0,0.0,0.0,0.0,0.0,0.0,0.0,0.0,0.0,0.0,0.0,0.0,0.0,0.0,0.0,0.0,0.0,0.0,0.0,0.0,0.0,0.0,0.0,0.0,0.0,0.0,0.0,0.0,0.0,0.0,0.0,0.0,0.0,0.0,0.0,0.0,0.0,0.0,0.0,0.0,0.0,0.0,0.0,0.0,0.0,0.0,0.0,0.0,0.0,0.0,0.0,0.0,0.0,0.0,0.0,0.0,0.0,0.0,0.0,0.0,0.0,0.0,0.0,0.0,0.0,0.0,0.0,0.0,0.0,0.0,0.0,0.0,0.0,0.0,0.0,0.0,0.0,0.0,0.0,0.0,0.0,0.0,0.0,0.0,0.0,0.0,0.0,0.0,0.0,0.0,0.0,0.0,0.0,0.0,0.0,0.0,0.0,0.0,0.0,0.0,0.0,0.0,0.0,0.0,0.0,0.0,0.0,0.0,0.0,0.0,0.0,0.0,0.0,0.0,0.0,0.0,0.0,0.0,0.0,0.0,0.0,0.0,0.0,0.0,0.0,0.0,0.0,0.0,0.0,0.0,0.0,0.0,0.0,0.0,0.0,0.0,0.0,0.0,0.0,0.0,0.0,0.0,0.0,0.0,0.0,0.0,0.0,0.0,0.0,0.0,0.0,0.0,0.0,0.0,0.0,0.0,0.0,0.0,0.0,0.0,0.0,0.0,0.0,0.0,0.0,0.0,0.0,0.0,0.0,0.0,0.0,0.0,0.0,0.0,0.0,0.0,0.0,0.0,0.0,0.0,0.0,0.0,0.0,0.0,0.0,0.0,0.0,0.0,0.0,0.0,0.0,0.0,0.0,0.0,0.0,0.0,0.0,0.0,0.0,0.0,0.0,0.0,0.0,0.0,0.0,0.0,0.0,0.0,0.0,0.0,0.0,0.0,0.0,0.0,0.0,0.0,0.0,0.0,0.0,0.0,0.0,0.0,0.0,0.0,0.0,0.0,0.0,0.0,0.0,0.0,0.0,0.0,0.0,0.0,0.0,0.0,0.0,0.0,0.0,0.0,0.0,0.0,0.0,0.0,0.0,0.0,0.0,0.0,0.0,0.0,0.0,0.0,0.0,0.0,0.0,0.0,0.0,0.0,0.0,0.0,0.0,0.0,0.0,0.0,0.0,0.0,0.0,0.0,0.0,0.0,0.0,0.0,0.0,0.0,0.0,0.0,0.0,0.0,0.0,0.0,0.0,0.0,0.0,0.0,0.0,0.0,0.0,0.0,0.0,0.0,0.0,0.0,0.0,0.0,0.0,0.0,0.0,0.0,0.0,0.0,0.0,0.0,0.0,0.0,0.0,0.0,0.0,0.0,0.0,0.0,0.0,0.0,0.0,0.0,0.0,0.0,0.0,0.0,0.0,0.0,0.0,0.0,0.0,0.0,0.0,0.0,0.0,0.0,0.0,0.0,0.0,0.0,0.0,0.0,0.0,0.0,0.0,0.0,0.0,0.0,0.0,0.0,0.0,0.0,0.0,0.0,0.0,0.0,0.0,0.0,0.0,0.0,0.0,0.0,0.0,0.0,0.0,0.0,0.0,0.0,0.0,0.0,0.0,0.0,0.0,0.0,0.0,0.0,0.0,0.0,0.0,0.0,0.0,0.0,0.0,0.0,0.0,0.0,0.0,0.0,0.0,0.0,0.0,0.0,0.0,0.0,0.0,0.0,0.0,0.0,0.0,0.0,0.0,0.0,0.0,0.0,0.0,0.0,0.0,0.0,0.0,0.0,0.0,0.0,0.0,0.0,0.0,0.0,0.0,0.0,0.0,0.0,0.0,0.0,0.0,0.0,0.0,0.0,0.0,0.0,0.0,0.0,0.0,0.0,0.0,0.0,0.0,0.0,0.0,0.0,0.0,0.0,0.0,0.0,0.0,0.0,0.0,0.0,0.0,0.0,0.0,0.0,0.0,0.0,0.0,0.0,0.0,0.0,0.0,0.0,0.0,0.0,0.0,0.0,0.0,0.0,0.0,0.0,0.0,0.0,0.0,0.0,0.0,0.0,0.0,0.0,0.0,0.0,0.0,0.0,0.0,0.0,0.0,0.0,0.0,0.0,0.0,0.0,0.0,0.0,0.0,0.0,0.0,0.0,0.0,0.0,0.0,0.0,0.0,0.0,0.0,0.0,0.0,0.0,0.0,0.0,0.0,0.0,0.0,0.0,0.0,0.0,0.0,0.0,0.0,0.0,0.0,0.0,0.0,0.0,0.0,0.0,0.0,0.0,0.0,0.0,0.0,0.0,0.0,0.0,0.0,0.0,0.0,0.0,0.0,0.0,0.0,0.0,0.0,0.0,0.0,0.0,0.0,0.0,0.0,0.0,0.0,0.0,0.0,0.0,0.0,0.0,0.0,0.0,0.0,0.0,0.0,0.0,0.0,0.0,0.0,0.0,0.0,0.0,0.0,0.0,0.0,0.0,0.0,0.0,0.0,0.0,0.0,0.0,0.0,0.0,0.0,0.0,0.0,0.0,0.0,0.0,0.0,0.0,0.0,0.0,0.0,0.0,0.0,0.0,0.0,0.0,0.0,0.0,0.0,0.0,0.0,0.0,0.0,0.0,0.0,0.0,0.0,0.0,0.0,0.0,0.0,0.0,0.0,0.0,0.0,0.0,0.0,0.0,0.0,0.0,0.0,0.0,0.0,0.0,0.0,0.0,0.0,0.0,0.0,0.0,0.0,0.0,0.0,0.0,0.0,0.0,0.0,0.0,0.0,0.0,0.0,0.0,0.0,0.0,0.0,0.0,0.0,0.0,0.0,0.0,0.0,0.0,0.0,0.0,0.0,0.0,0.0,0.0,0.0,0.0,0.0,0.0,0.0,0.0,0.0,0.0,0.0,0.0,0.0,0.0,0.0,0.0,0.0,0.0,0.0,0.0,0.0,0.0,0.0,0.0,0.0,0.0,0.0,0.0,0.0,0.0,0.0,0.0,0.0,0.0,0.0,0.0,0.0,0.0,0.0,0.0,0.0,0.0,0.0,0.0,0.0,0.0,0.0,0.0,0.0,0.0,0.0,0.0,0.0,0.0,0.0,0.0,0.0,0.0,0.0,0.0,0.0,0.0,0.0,0.0,0.0,0.0,0.0,0.0,0.0,0.0,0.0,0.0,0.0,0.0,0.0,0.0,0.0,0.0,0.0,0.0,0.0,0.0,0.0,0.0,0.0,0.0,0.0,0.0,0.0,0.0,0.0,0.0,0.0,0.0,0.0,0.0,0.0,0.0,0.0,0.0,0.0,0.0,0.0,0.0,0.0,0.0,0.0,0.0,0.0,0.0,0.0,0.0,0.0,0.0,0.0,0.0,0.0,0.0,0.0,0.0,0.0,0.0,0.0,0.0,0.0,0.0,0.0,0.0,0.0,0.0,0.0,0.0,0.0,0.0,0.0,0.0,0.0,0.0,0.0,0.0,0.0,0.0,0.0,0.0,0.0,0.0,0.0,0.0,0.0,0.0,0.0,0.0,0.0,0.0,0.0,0.0,0.0,0.0,0.0,0.0,0.0,0.0,0.0,0.0,0.0,0.0,0.0,0.0,0.0,0.0,0.0,0.0,0.0,0.0,0.0,0.0,0.0,0.0,0.0,0.0,0.0,0.0,0.0,0.0,0.0,0.0,0.0,0.0,0.0,0.0,0.0,0.0,0.0,0.0,0.0,0.0,0.0,0.0,0.0,0.0,0.0,0.0,0.0,0.0,0.0,0.0,0.0,0.0,0.0,0.0,0.0,0.0,0.0,0.0,0.0,0.0,0.0,0.0,0.0,0.0,0.0,0.0,0.0,0.0,0.0,0.0,0.0,0.0,0.0,0.0,0.0,0.0,0.0,0.0,0.0,0.0,0.0,0.0,0.0,0.0,0.0,0.0,0.0,0.0,0.0,0.0,0.0,0.0,0.0,0.0,0.0,0.0,0.0,0.0,0.0,0.0,0.0,0.0,0.0,0.0,0.0,0.0,0.0,0.0,0.0,0.0,0.0,0.0,0.0,0.0,0.0,0.0,0.0,0.0,0.0,0.0,0.0,0.0,0.0,0.0,0.0,0.0,0.0,0.0,0.0,0.0,0.0,0.0,0.0,0.0,0.0,0.0,0.0,0.0,0.0,0.0,0.0,0.0,0.0,0.0,0.0,0.0,0.0,0.0,0.0,0.0,0.0,0.0,0.0,0.0,0.0,0.0,0.0,0.0,0.0,0.0,0.0,0.0,0.0,0.0,0.0,0.0,0.0,0.0,0.0,0.0,0.0,0.0,0.0,0.0,0.0,0.0,0.0,0.0,0.0,0.0,0.0,0.0,0.0,0.0,0.0,0.0,0.0,0.0,0.0,0.0,0.0,0.0,0.0,0.0,0.0,0.0,0.0,0.0,0.0,0.0,0.0,0.0,0.0,0.0,0.0,0.0,0.0,0.0,0.0,0.0,0.0,0.0,0.0,0.0,0.0,0.0,0.0,0.0,0.0,0.0,0.0,0.0,0.0,0.0,0.0,0.0,0.0,0.0,0.0,0.0,0.0,0.0,0.0,0.0,0.0,0.0,0.0,0.0,0.0,0.0,0.0,0.0,0.0,0.0,0.0,0.0,0.0,0.0,0.0,0.0,0.0,0.0,0.0,0.0,0.0,0.0,0.0,0.0,0.0,0.0,0.0,0.0,0.0,0.0,0.0,0.0,0.0,0.0,0.0,0.0,0.0,0.0,0.0,0.0,0.0,0.0,0.0,0.0,0.0,0.0,0.0,0.0,0.0,0.0,0.0,0.0,0.0,0.0,0.0,0.0,0.0,0.0,0.0,0.0,0.0,0.0,0.0,0.0,0.0,0.0,0.0,0.0,0.0,0.0,0.0,0.0,0.0,0.0,0.0,0.0,0.0,0.0,0.0,0.0,0.0,0.0,0.0,0.0,0.0,0.0,0.0,0.0,0.0,0.0,0.0,0.0,0.0,0.0,0.0,0.0,0.0,0.0,0.0,0.0,0.0,0.0,0.0,0.0,0.0,0.0,0.0,0.0,0.0,0.0,0.0,0.0,0.0,0.0,0.0,0.0,0.0,0.0,0.0,0.0,0.0,0.0,0.0,0.0,0.0,0.0,0.0,0.0,0.0,0.0,0.0,0.0,0.0,0.0,0.0,0.0,0.0,0.0,0.0,0.0,0.0,0.0,0.0,0.0,0.0,0.0,0.0,0.0,0.0,0.0,0.0,0.0,0.0,0.0,0.0,0.0,0.0,0.0,0.0,0.0,0.0,0.0,0.0,0.0,0.0,0.0,0.0,0.0,0.0,0.0,0.0,0.0,0.0,0.0,0.0,0.0,0.0,0.0,0.0,0.0,0.0,0.0,0.0,0.0,0.0,0.0,0.0,0.0,0.0,0.0,0.0,0.0,0.0,0.0,0.0,0.0,0.0,0.0,0.0,0.0,0.0,0.0,0.0,0.0,0.0,0.0,0.0,0.0,0.0,0.0,0.0,0.0,0.0,0.0,0.0,0.0,0.0,0.0,2.1921,2.1789,0.0,0.0,0.0,0.0,0.0,0.0,0.0,0.0,0.0,0.0,0.0,0.0,0.0,0.0,0.0,0.0,0.0,0.0,0.0,0.0,0.0,0.0,0.0,0.0,0.0,0.0,0.0,0.0,0.0,0.0,0.0,0.0,0.0,0.0,0.0,0.0,0.0,0.0,2.349,2.2952,2.3092,2.3028,2.3003,2.3,0.0,0.0,0.0,0.0,0.0,0.0,0.0,0.0,0.0,0.0,0.0,0.0,0.0,0.0,0.0,0.0,0.0,0.0,0.0,0.0,0.0,0.0,0.0,0.0,0.0,0.0,0.0,0.0,0.0,0.0,0.0,0.0,0.0,0.0,0.0,0.0,0.0,0.0,0.0,0.0,0.0,0.0,0.0,0.0,0.0,0.0,0.0,0.0,0.0,0.0,0.0,0.0,0.0,0.0,0.0,0.0,0.0,0.0,0.0,0.0,0.0,0.0,0.0,0.0,0.0,0.0,0.0,0.0,0.0,0.0,2.277,2.2335,0.0,0.0,0.0,0.0,0.0,0.0,0.0,0.0,0.0,0.0,0.0,0.0,0.0,0.0,0.0,0.0,0.0,0.0,0.0,0.0,0.0,0.0,0.0,2.4607,2.4531,2.5168,2.5042,2.5176,0.0,0.0,0.0,0.0,0.0,0.0,0.0,2.5644,2.5419,2.5702,2.443,2.3794,2.3722,2.334,2.3355,2.3695,2.3061,0.0,0.0,0.0,0.0,0.0,0.0,0.0,0.0,0.0,0.0,0.0,0.0,0.0,0.0,0.0,0.0,0.0,0.0,0.0,0.0,0.0,0.0,0.0,0.0,0.0,0.0,0.0,0.0,0.0,0.0,0.0,0.0,0.0,0.0,0.0,0.0,0.0,0.0,0.0,0.0,0.0,0.0,0.0,0.0,0.0,0.0,0.0,0.0,0.0,0.0,0.0,0.0,0.0,0.0,0.0,0.0,0.0,0.0,0.0,0.0,0.0,0.0,0.0,2.5877,2.5931,2.5937,2.5937,2.5679,2.5225,2.4315,2.3493,2.2738,2.2563,0.0,0.0,0.0,0.0,0.0,0.0,0.0,0.0,0.0,0.0,0.0,0.0,0.0,0.0,0.0,0.0,0.0,0.0,0.0,0.0,0.0,2.5753,2.582,2.6875,2.6071,2.5753,2.6348,0.0,0.0,0.0,0.0,0.0,2.572,2.4615,2.4465,2.5361,2.4876,2.5068,2.5864,2.4677,2.4162,2.4172,2.3093,2.247,2.2194,0.0,0.0,0.0,0.0,0.0,0.0,0.0,0.0,0.0,0.0,0.0,0.0,0.0,0.0,0.0,0.0,0.0,0.0,0.0,0.0,0.0,0.0,0.0,0.0,0.0,0.0,0.0,0.0,0.0,0.0,0.0,0.0,0.0,0.0,0.0,0.0,0.0,0.0,0.0,0.0,0.0,2.3536,2.3536,0.0,0.0,0.0,0.0,0.0,0.0,0.0,0.0,0.0,0.0,0.0,0.0,0.0,2.5895,2.6315,2.7186,2.7676,2.781,2.8227,2.8435,2.8443,2.8443,2.8398,2.8262,2.7287,0.0,2.366,2.2842,0.0,0.0,0.0,0.0,0.0,0.0,0.0,0.0,0.0,0.0,0.0,0.0,0.0,0.0,0.0,0.0,0.0,0.0,0.0,0.0,0.0,2.577,2.5787,2.6297,2.6214,2.6214,2.6474,2.6239,0.0,0.0,0.0,2.5511,2.608,2.5269,2.5111,2.5757,2.6552,2.6903,2.6848,2.6248,2.5672,2.5114,2.4613,2.365,2.2389,2.2525,0.0,0.0,0.0,0.0,0.0,0.0,0.0,0.0,0.0,0.0,0.0,0.0,0.0,0.0,0.0,0.0,0.0,0.0,0.0,0.0,0.0,0.0,0.0,0.0,0.0,0.0,0.0,0.0,0.0,0.0,0.0,0.0,0.0,0.0,0.0,0.0,0.0,0.0,0.0,2.3783,2.4105,2.383,2.403,2.3899,0.0,0.0,0.0,0.0,0.0,0.0,0.0,0.0,0.0,2.7199,2.7685,2.8058,2.8315,2.8967,2.9455,2.9782,2.9668,2.9654,2.9678,2.9377,2.9082,2.8749,2.8095,2.7047,2.569,2.4221,2.3463,2.3173,0.0,0.0,0.0,0.0,2.3104,2.2995,0.0,0.0,0.0,0.0,0.0,0.0,0.0,0.0,0.0,0.0,0.0,0.0,2.5804,2.5695,2.5762,2.6189,2.639,2.6558,2.6709,2.6289,2.6013,2.5871,2.5285,2.5318,2.6063,2.6172,2.6487,2.7044,2.8213,2.8514,2.8016,2.779,2.7281,2.657,2.6307,2.4935,2.2864,2.3038,2.2508,2.1532,0.0,0.0,0.0,0.0,0.0,0.0,0.0,0.0,0.0,0.0,0.0,0.0,0.0,0.0,0.0,0.0,0.0,0.0,0.0,0.0,0.0,0.0,0.0,0.0,0.0,0.0,0.0,0.0,0.0,0.0,0.0,0.0,0.0,0.0,0.0,0.0,0.0,2.4925,2.5125,2.4361,2.5059,2.5137,0.0,0.0,0.0,0.0,0.0,0.0,2.7772,2.8172,2.8665,2.9274,2.9688,3.0009,3.0273,3.0606,3.1065,3.1582,3.1168,3.1015,3.1047,3.0516,3.0057,2.9637,2.8959,2.8373,2.7744,2.5708,2.4492,2.3887,2.3898,2.3929,2.3959,2.439,2.4381,2.4258,0.0,0.0,0.0,0.0,0.0,0.0,0.0,0.0,0.0,0.0,0.0,2.5455,2.6374,2.5929,2.6239,2.7846,2.706,2.6725,2.7236,2.5753,2.4674,2.4163,2.3562,2.3747,2.4859,2.6899,2.8505,2.9605,2.9363,2.9491,2.9944,2.9096,2.8702,2.8605,2.7644,2.5922,2.3748,2.3746,2.3239,2.2411,2.2012,0.0,0.0,0.0,0.0,0.0,0.0,0.0,0.0,0.0,0.0,0.0,0.0,0.0,0.0,0.0,0.0,0.0,0.0,0.0,0.0,0.0,0.0,0.0,0.0,0.0,0.0,0.0,0.0,0.0,0.0,0.0,0.0,0.0,0.0,0.0,0.0,0.0,0.0,2.5785,2.7307,0.0,0.0,0.0,0.0,2.7772,2.7884,2.8344,2.932,2.9412,2.9871,3.0835,3.0916,3.1375,3.234,3.2363,3.2639,3.319,3.3167,3.3155,3.313,3.2602,3.2338,3.222,3.082,2.9923,2.9294,2.6909,2.587,2.5774,2.5839,2.586,2.5914,2.6367,2.598,2.5282,0.0,0.0,0.0,0.0,0.0,0.0,0.0,0.0,2.4538,2.4147,2.5395,2.6314,2.6315,2.6646,2.7143,2.7742,2.7741,2.7808,2.8003,2.6511,2.6044,2.6985,2.5649,2.5694,2.7392,2.8729,2.9848,3.0819,3.1228,3.1423,3.1455,3.1136,3.0509,2.9614,2.9253,2.8159,2.6466,2.4903,2.3559,2.2489,2.2333,2.1845,0.0,0.0,0.0,0.0,0.0,0.0,0.0,0.0,0.0,0.0,0.0,0.0,0.0,0.0,0.0,0.0,0.0,0.0,0.0,0.0,0.0,0.0,0.0,0.0,0.0,0.0,0.0,0.0,0.0,0.0,0.0,0.0,0.0,0.0,0.0,0.0,0.0,2.7713,2.8827,0.0,2.8022,2.8538,2.9028,2.9224,2.997,3.0724,3.1401,3.1763,3.2182,3.271,3.2733,3.2833,3.3006,3.3006,3.3098,3.3294,3.2937,3.2789,3.2777,3.2236,3.2007,3.2019,3.1449,3.074,2.992,2.9089,2.8029,2.6867,2.69,2.6911,2.6965,2.7424,2.7375,2.716,0.0,0.0,0.0,0.0,0.0,0.0,0.0,0.0,2.4682,2.4047,2.5622,2.6711,2.6481,2.7369,2.8038,2.8234,2.8411,2.8504,2.8497,2.7011,2.6644,2.7814,2.6841,2.7163,2.9081,3.0009,3.0949,3.1909,3.2563,3.279,3.2596,3.2548,3.1995,3.11,3.0772,2.9794,2.8328,2.6666,2.4977,2.3395,2.2943,2.2372,2.1785,0.0,0.0,0.0,0.0,0.0,0.0,0.0,0.0,0.0,0.0,0.0,0.0,0.0,0.0,0.0,0.0,0.0,0.0,0.0,0.0,0.0,0.0,0.0,0.0,0.0,0.0,0.0,0.0,0.0,0.0,0.0,0.0,0.0,0.0,2.8736,2.9343,2.9022,3.0308,3.0721,2.9343,3.0395,3.1181,3.1181,3.2043,3.2771,3.3253,3.3606,3.3814,3.3829,3.398,3.3916,3.3579,3.3579,3.3506,3.3419,3.3073,3.2863,3.2754,3.2201,3.1984,3.2031,3.1823,3.1364,3.0744,3.0794,2.9937,2.8589,2.8232,2.811,2.8166,2.8644,2.8719,2.8549,0.0,0.0,0.0,0.0,0.0,0.0,0.0,2.3719,2.4253,2.4608,2.5702,2.6585,2.6977,2.8045,2.8942,2.9478,2.9036,2.8721,2.8721,2.7139,2.6224,2.6275,2.6814,2.7935,2.9648,3.0705,3.1788,3.2926,3.3259,3.3396,3.3386,3.3186,3.309,3.3058,3.2089,3.0775,2.9224,2.8991,2.7557,2.5302,2.3854,2.3216,2.3014,0.0,0.0,0.0,0.0,0.0,0.0,0.0,0.0,0.0,0.0,0.0,0.0,0.0,0.0,0.0,0.0,0.0,0.0,0.0,0.0,0.0,0.0,0.0,0.0,0.0,0.0,0.0,0.0,0.0,0.0,0.0,0.0,0.0,2.8769,3.009,3.0686,2.9768,3.1847,3.2582,3.0572,3.2444,3.3764,3.3764,3.4035,3.4359,3.4841,3.4852,3.4653,3.4171,3.4593,3.4617,3.4159,3.4135,3.3976,3.3716,3.3716,3.3556,3.3294,3.2766,3.2524,3.2501,3.2043,3.1813,3.1813,3.1778,3.1456,3.0904,2.9941,2.9577,2.9612,3.0091,2.9973,2.9443,0.0,0.0,0.0,0.0,0.0,0.0,0.0,2.3826,2.4484,2.3699,2.5712,2.7232,2.7356,2.8635,2.9726,3.0319,2.9477,2.909,2.9477,2.7651,2.6872,2.7541,2.8918,3.023,3.1407,3.1844,3.2529,3.3484,3.3575,3.3535,3.3386,3.3186,3.309,3.3104,3.3208,3.2898,3.2217,3.1299,2.9818,2.7958,2.5962,2.4371,2.3197,0.0,0.0,0.0,0.0,0.0,0.0,0.0,0.0,0.0,0.0,0.0,0.0,0.0,0.0,0.0,0.0,0.0,0.0,0.0,0.0,0.0,0.0,0.0,0.0,0.0,0.0,0.0,0.0,0.0,0.0,0.0,2.9535,3.0592,3.0399,3.1364,3.2344,3.2988,3.4021,3.4528,3.4157,3.4866,3.5372,3.5372,3.5612,3.5835,3.5942,3.5966,3.5819,3.5486,3.5592,3.5514,3.5194,3.4792,3.4567,3.4491,3.3966,3.3666,3.3568,3.3244,3.3075,3.3052,3.2524,3.2088,3.1696,3.1352,3.1217,3.1229,3.1281,3.1084,3.0881,3.1503,3.1649,3.1491,0.0,0.0,0.0,0.0,0.0,0.0,0.0,2.38,2.4472,2.3995,2.6018,2.7603,2.7855,2.9333,3.0353,3.0438,2.9625,2.914,2.9218,2.8082,2.7986,2.927,3.0284,3.1422,3.2712,3.2849,3.3254,3.4,3.3915,3.3747,3.3524,3.3543,3.3518,3.3456,3.3997,3.3922,3.338,3.2639,3.1284,2.9503,2.7779,2.5831,2.4021,2.4284,2.4068,2.3616,2.3925,2.3826,2.3558,2.3558,0.0,0.0,0.0,0.0,0.0,0.0,0.0,0.0,0.0,0.0,0.0,0.0,0.0,0.0,0.0,0.0,0.0,0.0,0.0,0.0,0.0,0.0,0.0,0.0,3.203,3.3738,3.3314,3.3609,3.4206,3.5126,3.5712,3.6012,3.5934,3.6383,3.6586,3.6348,3.6569,3.6747,3.6747,3.6747,3.655,3.6181,3.6396,3.62,3.5606,3.5285,3.4961,3.4636,3.4205,3.3891,3.368,3.3554,3.3279,3.2962,3.2969,3.2503,3.1767,3.2055,3.1954,3.1605,0.0,0.0,0.0,0.0,3.2291,3.2277,0.0,0.0,0.0,0.0,0.0,0.0,0.0,2.3771,2.4301,2.4827,2.6425,2.7689,2.8168,2.9815,3.066,3.0057,2.951,2.8987,2.8438,2.8455,2.924,3.094,3.1061,3.1872,3.3571,3.3597,3.3849,3.4397,3.4189,3.3958,3.3704,3.4056,3.4106,3.3922,3.4527,3.4346,3.3538,3.342,3.2257,3.0374,2.9438,2.7554,2.5279,2.502,2.5199,2.5561,2.5389,2.5307,2.5255,2.5255,0.0,0.0,0.0,0.0,0.0,0.0,0.0,0.0,0.0,0.0,0.0,0.0,0.0,0.0,0.0,0.0,0.0,0.0,0.0,0.0,0.0,0.0,0.0,0.0,3.4919,3.7254,3.6671,3.6373,3.636,3.6685,3.7143,3.7237,3.6806,3.7397,3.7601,3.708,3.7242,3.7348,3.7276,3.7228,0.0,0.0,0.0,3.6675,3.5797,3.5702,3.5327,3.4638,3.4591,3.4298,3.3817,3.3792,3.3377,3.2671,3.3242,3.2912,3.203,3.3159,3.3039,3.2116,3.1684,3.1944,3.253,3.253,3.253,3.2491,0.0,0.0,0.0,0.0,0.0,0.0,0.0,2.4032,2.4137,2.4249,2.6174,2.7376,2.7051,2.8978,3.004,2.9492,2.8926,2.8508,2.8403,2.8848,2.9684,3.094,3.1399,3.2261,3.3571,3.3597,3.3849,3.4397,3.4189,3.3958,3.3704,3.4056,3.4106,3.3947,3.4917,3.524,3.5042,3.4667,3.3315,3.1422,3.1249,2.9364,2.656,2.5872,2.5804,2.6082,2.6204,2.6746,2.7405,2.7405,2.7114,2.6639,2.5923,2.5094,0.0,0.0,0.0,0.0,0.0,0.0,0.0,0.0,0.0,0.0,0.0,0.0,0.0,0.0,0.0,0.0,0.0,0.0,0.0,3.3254,3.6076,3.8114,3.776,3.8728,3.9292,3.8723,3.8743,3.885,3.8974,3.9115,3.8984,3.8457,3.8462,3.831,3.7867,3.7434,3.7361,3.7674,3.694,3.6675,3.6892,3.6464,3.6162,3.6015,3.578,0.0,3.4567,3.436,3.3942,3.3373,3.3067,3.2907,3.2835,3.2663,3.2802,3.3129,3.304,3.3407,3.3984,3.3984,3.3984,3.3984,0.0,0.0,0.0,0.0,0.0,0.0,0.0,2.4111,2.4222,2.4525,2.579,2.6671,2.6685,2.7959,2.8577,2.8045,2.7976,2.8211,2.8821,2.9658,3.0652,3.1793,3.2636,3.3515,3.4424,3.446,3.458,3.4842,3.4736,3.4503,3.4176,3.4911,3.5038,3.4728,3.5568,3.5956,3.5896,3.5143,3.4208,3.3182,3.2345,3.1108,2.9626,2.8451,2.8178,2.841,2.8355,2.8197,2.8082,2.858,2.8092,2.7327,2.7495,2.72,2.6653,0.0,0.0,0.0,0.0,0.0,0.0,0.0,0.0,0.0,0.0,0.0,0.0,0.0,0.0,3.219,3.2756,0.0,3.6976,3.6604,3.9347,4.1158,4.0191,4.0958,4.1195,3.9954,3.9798,3.984,3.998,3.9753,3.9379,3.885,3.8802,3.8575,3.8035,3.8246,3.8274,3.8013,3.7594,3.7142,3.6602,3.6339,3.6064,3.5807,3.5659,3.5319,3.4775,3.4286,3.3904,3.3636,3.3717,3.3703,3.3574,3.335,3.3705,3.4317,3.4034,3.4105,3.4397,3.4397,3.4397,3.4397,0.0,0.0,0.0,0.0,0.0,0.0,0.0,2.4111,2.4275,2.4775,2.5492,2.6086,2.6345,2.7053,2.7271,2.6737,2.7175,2.8055,2.9362,3.0408,3.1558,3.2813,3.3849,3.4685,3.5286,3.5391,3.5448,3.5405,3.5405,3.509,3.4546,3.5694,3.5904,3.5394,3.6068,3.6393,3.6344,3.5425,3.4874,3.4542,3.3351,3.2842,3.2665,3.1575,3.096,3.0616,3.0397,2.9489,2.8532,2.9435,2.8953,2.8088,2.8965,2.9262,2.9113,2.8112,2.8594,0.0,0.0,0.0,0.0,0.0,0.0,0.0,0.0,3.1653,3.2059,3.2712,3.4157,3.5596,3.6471,3.8921,4.0646,4.0058,4.2598,4.4141,4.2633,4.2893,4.2735,4.1377,4.0819,4.0561,4.0561,4.0348,3.993,3.9166,3.9308,3.9059,3.8217,3.9063,3.9117,3.8027,3.8165,3.7572,3.6158,3.6252,3.61,3.5673,3.5793,3.5599,3.5089,3.4382,3.4002,3.3922,3.4662,3.4805,3.4479,3.4437,3.4766,3.5234,3.4643,3.4397,3.4397,3.4397,3.4397,3.4397,0.0,0.0,0.0,0.0,0.0,0.0,0.0,0.0,2.4111,2.4189,2.5597,2.624,2.528,2.6574,2.7271,2.6737,2.7175,2.8203,2.9901,3.0634,3.1751,3.344,3.4084,3.4685,3.5286,3.5783,3.5935,3.5741,3.5741,3.5241,3.4259,3.5401,3.5543,3.4828,3.5929,3.6393,3.6381,3.6012,3.5174,3.4144,3.4896,3.4667,3.388,3.4433,3.3038,3.0767,3.0738,3.0323,2.9874,3.0454,3.0428,3.0096,2.982,2.9886,2.9817,2.8604,2.8741,2.9019,2.7602,2.8168,2.9842,3.282,3.2882,3.2957,0.0,3.6063,3.6265,3.8037,3.8906,3.9644,4.0576,4.2173,4.3093,4.2125,4.3846,4.4906,4.3755,4.4076,4.4346,4.4146,4.2346,4.1114,4.1114,4.1974,4.1898,4.0343,4.1164,4.0845,3.8808,3.9272,3.9117,3.8027,3.7796,3.7376,3.6716,3.7176,3.7382,3.7345,3.7998,3.7564,3.6186,3.5636,3.5098,3.463,3.5553,3.5907,3.5825,3.5381,3.5222,3.5234,3.4643,3.4397,3.4397,3.4397,3.4397,3.4397,0.0,0.0,0.0,0.0,0.0,0.0,0.0,0.0,0.0,2.4111,2.5048,2.5403,2.4577,2.5103,2.5704,2.613,2.6984,2.8247,3.0005,3.1287,3.2473,3.3545,3.4737,3.5521,3.5757,3.6188,3.6352,3.6278,3.6154,3.5768,3.5215,3.6001,3.6113,3.5716,3.6192,3.6393,3.6381,3.611,3.5596,3.4969,3.5596,3.5464,3.4933,3.4918,3.3964,3.2558,3.1693,3.0989,0.0,3.0946,3.0973,3.1011,3.1994,3.2141,3.1732,3.0643,3.0787,3.1226,3.0998,3.1715,3.2993,3.4763,3.5849,3.683,3.8207,3.8925,3.9543,4.0499,4.2027,4.3401,4.4023,4.5598,4.6573,4.5857,4.6448,4.6743,4.5942,4.5445,4.5163,4.5062,4.365,4.2794,4.3139,4.3954,4.3886,4.2474,4.2524,4.1945,4.0406,4.0459,4.0052,3.9011,3.854,3.814,3.7787,3.7515,3.7444,3.7585,3.7899,3.7535,3.654,3.5897,3.5698,3.5886,3.6383,3.6619,3.6541,3.5678,3.5286,3.5234,3.4643,3.4397,3.4397,3.4397,3.4397,3.4397,0.0,0.0,0.0,0.0,0.0,0.0,0.0,0.0,0.0,0.0,2.4865,2.5048,2.4607,2.4293,2.4555,2.5696,2.6723,2.8073,2.9979,3.1591,3.2773,3.3469,3.5176,3.6031,3.5914,3.6541,3.6779,3.6642,3.6482,3.6264,3.6061,3.6452,3.6622,3.6619,3.6619,3.6708,3.681,3.6559,3.6255,3.5962,3.6131,3.5933,3.5456,3.5058,3.4445,3.3592,3.2355,3.134,3.0606,3.0734,3.0852,3.1188,3.2578,3.3029,3.2852,3.1852,3.1631,3.1975,3.3207,3.4053,3.4987,3.6561,3.8418,4.0017,4.069,4.1659,4.2622,4.3313,4.4927,4.6422,4.7065,4.8339,4.9152,4.8772,4.8558,4.8245,4.7645,4.6558,4.5741,4.5471,4.4568,4.4072,4.4267,4.5232,4.5403,4.4357,4.395,4.315,4.1879,4.1556,4.0963,3.9942,3.9525,3.9146,3.8713,3.8226,3.8016,3.8051,3.8116,3.7734,3.6925,3.623,3.6191,3.6707,3.7099,3.7246,3.7168,3.6175,3.5678,3.5469,3.4868,3.4565,3.4397,3.4397,3.4397,3.4397,0.0,0.0,0.0,0.0,0.0,0.0,0.0,0.0,0.0,0.0,0.0,0.0,0.0,2.4756,2.4555,2.5696,2.6381,2.7688,2.9944,3.1171,3.2231,3.3162,3.508,3.5903,3.5431,3.6785,3.721,3.6695,3.6684,3.6566,3.638,3.6405,3.6669,3.7185,3.7185,3.7475,3.794,3.768,3.7245,3.6748,3.6774,3.6165,3.5219,3.5402,3.4491,3.3047,3.2423,3.1252,2.9962,2.9589,2.9965,3.0585,3.0292,3.136,3.2475,3.1279,3.0112,2.9814,3.2632,3.337,3.429,3.8127,4.0033,4.154,4.3752,4.4731,4.5701,4.7528,4.7974,4.8405,4.9653,4.9917,4.9958,4.996,4.9443,4.8863,4.8256,4.7151,4.6172,4.5665,4.5042,4.4361,4.3605,4.5242,4.6142,4.5579,4.5521,4.4748,4.2958,4.2317,4.1489,4.0402,4.0616,4.0249,3.9195,3.9725,3.9715,3.9157,3.9434,3.8853,3.7555,3.6939,3.6674,3.6732,3.7514,3.7874,3.781,3.7209,3.6582,3.6018,3.5495,3.4931,3.4397,3.4397,3.4397,3.4397,0.0,0.0,0.0,0.0,0.0,0.0,0.0,0.0,0.0,0.0,0.0,0.0,0.0,0.0,0.0,0.0,2.6671,2.7907,2.9466,3.084,3.1928,3.2639,3.4562,3.555,3.5409,3.6416,3.6898,3.6697,3.6582,3.6476,3.6393,3.6393,3.6695,3.7198,3.7198,3.75,3.7965,3.7331,3.706,3.6986,3.6105,3.5623,3.5356,3.4317,3.3581,3.2939,0.0,3.0584,2.9809,2.9359,2.9762,3.0622,3.1527,3.195,3.1961,3.1179,3.1209,3.1852,3.3535,3.533,3.7348,3.9787,4.2137,4.4153,4.5372,4.6436,4.735,4.7968,4.7475,4.7038,4.7472,4.7569,4.7669,4.809,4.9031,4.9354,4.8335,4.8193,4.7379,4.5189,4.4758,4.4549,4.4334,4.524,4.5399,4.4296,4.4727,4.4636,4.3633,4.2618,4.1903,4.1606,4.0772,4.0427,4.0605,4.0275,3.9878,3.946,3.8789,3.8242,3.7802,3.7597,3.7494,3.7479,3.7368,3.7287,3.7246,3.6645,3.6279,3.6096,3.5913,3.5704,3.5521,3.5521,3.5521,3.5417,0.0,0.0,0.0,0.0,0.0,0.0,0.0,0.0,0.0,0.0,0.0,0.0,0.0,0.0,0.0,0.0,0.0,2.7681,2.8795,2.996,3.0916,3.1563,3.3085,3.3943,3.3965,3.4622,3.5001,3.5102,3.5168,3.5413,3.5792,3.5792,3.6306,3.7198,3.7009,3.7324,3.794,3.7132,3.6712,3.6503,3.5323,3.4667,3.4261,3.32,3.2552,0.0,3.0783,2.9945,2.9449,2.9293,2.9609,3.0274,3.1414,3.1634,3.1529,3.1584,3.2233,3.3364,3.5274,3.7229,3.9316,4.1618,4.3766,4.5525,4.642,4.7391,4.8052,4.7828,4.7014,4.6255,4.5808,4.5867,4.6029,4.6049,4.7179,4.7821,4.7082,4.6941,4.6297,4.4548,4.4161,4.3939,4.3695,4.4099,4.4347,4.4271,4.4771,4.4797,4.4172,4.284,4.2202,4.2428,4.1193,4.077,4.1299,4.0782,4.0215,3.9587,3.8646,3.8083,3.79,3.79,3.79,3.7874,3.7482,3.7314,3.7299,3.6907,3.6619,3.641,3.6175,3.6096,3.607,3.5876,3.594,3.5966,0.0,0.0,0.0,0.0,0.0,0.0,0.0,0.0,0.0,0.0,0.0,0.0,0.0,0.0,0.0,0.0,0.0,0.0,2.7989,2.8618,2.9283,2.9974,3.0823,3.1312,3.1406,3.1681,3.1959,3.2254,3.2828,3.3632,3.4628,3.4616,3.5456,3.6985,3.6458,3.6823,3.7765,3.6934,3.6149,3.5338,3.4485,3.3372,3.2198,3.2144,3.1501,3.0522,2.998,2.9418,2.8954,2.9356,2.9555,2.969,3.0095,3.065,3.1358,3.2499,3.3192,3.4296,3.76,3.8922,4.0159,4.3528,4.4839,4.5637,4.6885,4.7587,4.78,4.7185,4.6609,4.585,4.4635,4.4863,4.4912,4.3998,4.429,4.4704,4.4873,4.39,4.3389,4.3912,4.3441,4.2735,4.1996,4.2138,4.3172,4.5294,4.5475,4.5194,4.4606,4.3049,4.2424,4.2938,4.1915,4.1338,4.1338,4.1285,4.071,3.9587,3.8986,3.8423,3.79,3.79,3.79,3.79,3.79,3.79,3.79,3.79,3.7549,3.6985,3.641,3.6201,3.6123,3.5626,3.5757,3.6112,0.0,0.0,0.0,0.0,0.0,0.0,0.0,0.0,0.0,0.0,0.0,0.0,0.0,0.0,0.0,0.0,0.0,0.0,2.7284,2.8094,2.8631,2.8835,3.0067,3.0979,3.1396,3.185,3.2353,3.2878,3.3004,3.3241,3.3506,3.3343,3.3726,3.4522,3.4214,3.4445,3.5042,3.4244,3.3991,3.4049,3.2742,3.223,3.2168,3.1333,3.0849,3.0522,2.998,2.9418,2.8954,2.9356,3.0256,3.1298,3.1876,3.2437,3.3153,3.4293,3.5319,3.6443,3.8109,3.9904,4.1675,4.3381,4.4562,4.5525,4.6335,4.6267,4.5877,4.5369,4.3689,4.201,4.0943,4.1134,4.1544,4.1801,4.3803,4.5513,4.5996,4.5808,4.5485,4.5207,4.4278,4.3584,4.3385,4.3427,4.3533,4.3636,4.3651,4.3782,4.4045,4.3677,4.3493,4.3651,4.2564,4.1977,4.1977,4.1089,4.0292,3.9587,3.8986,3.8423,3.79,3.79,3.79,3.79,3.79,3.79,3.79,3.79,3.7821,3.7665,3.7496,3.7456,3.7429,3.7299,3.7314,3.7351,0.0,0.0,0.0,0.0,0.0,0.0,0.0,0.0,0.0,0.0,0.0,0.0,0.0,0.0,0.0,0.0,0.0,0.0,0.0,2.7357,2.7726,2.7907,2.8479,2.906,2.9588,2.9914,3.0216,3.0552,3.1296,3.1522,3.125,3.1556,3.1846,3.2144,3.219,3.2512,3.2958,3.2531,3.2367,0.0,0.0,3.099,3.0962,3.0443,3.0256,3.0206,2.9905,2.9845,2.9977,3.0481,3.1342,3.2339,3.3169,3.3859,3.4607,3.6018,3.7037,3.7987,3.9374,4.1005,4.2692,4.4085,4.4712,4.5087,4.5503,4.5106,4.4215,4.2626,4.1258,3.982,3.8206,3.8744,3.9492,3.9658,4.194,4.4077,4.5196,4.5353,4.5509,4.594,4.5441,4.5037,4.5037,4.4814,4.4617,4.4539,4.4055,4.3794,4.3886,4.3886,4.3886,4.3886,4.2787,4.2081,4.1807,4.1129,4.0501,3.9953,3.9378,3.8803,3.8228,3.8004,3.79,3.79,3.79,3.79,3.79,3.79,3.79,3.7874,3.7612,3.7665,3.7874,3.7612,3.7653,3.7836,0.0,0.0,0.0,0.0,0.0,0.0,0.0,0.0,0.0,0.0,0.0,0.0,0.0,0.0,0.0,0.0,0.0,0.0,0.0,0.0,2.6931,2.7286,2.6918,2.6968,2.7503,2.7503,2.7503,2.7503,2.896,2.9377,2.8822,2.9571,2.9921,2.9945,3.0185,3.0575,3.109,3.109,3.0845,3.0472,3.0252,2.9826,2.9389,0.0,2.9814,2.9814,2.9814,3.0353,3.1224,3.1956,3.2639,3.3336,3.4397,3.526,3.6201,3.7862,3.8634,3.9312,4.0986,4.2162,4.3322,4.4974,4.4911,4.4476,4.4456,4.3871,4.2526,3.9764,3.9222,3.8559,3.6316,3.7327,3.8417,3.8178,3.9916,4.1993,4.3965,4.4174,4.4775,4.6527,4.6606,4.6527,4.6592,4.6067,4.5936,4.6461,4.5532,4.4682,4.4134,4.4043,4.3938,4.3807,4.2814,4.199,4.1311,4.1311,4.0972,4.0292,3.9822,3.9247,3.8568,3.8097,3.79,3.79,3.79,3.79,3.79,3.79,3.79,3.7848,3.7314,3.7456,3.7848,3.7314,3.7456,3.79,0.0,0.0,0.0,0.0,0.0,0.0,0.0,0.0,0.0,0.0,2.7851,2.7695,0.0,0.0,0.0,0.0,0.0,0.0,0.0,0.0,0.0,2.7286,2.7629,2.8063,2.8605,2.8631,2.8631,2.8631,2.8907,2.8781,2.8229,2.8067,2.7998,2.7979,2.7708,2.7883,2.8376,2.8376,2.8593,2.8913,2.9194,2.9244,2.9199,2.9634,0.0,0.0,2.9814,3.0109,3.0756,3.2325,3.4032,3.5626,3.6332,3.7612,3.909,4.0345,4.0772,4.1096,4.2354,4.3158,4.3804,4.4641,4.4345,4.3727,4.33,4.196,4.0308,3.846,3.7706,3.6954,3.5646,3.6846,3.8306,3.9166,4.0835,4.297,4.5678,4.5611,4.5936,4.769,4.7062,4.6656,4.7112,4.6656,4.6383,4.6487,4.6304,4.5924,4.5335,4.4825,4.4133,4.3193,4.2958,4.2357,4.1311,4.1311,4.0763,3.9744,3.9639,3.9038,3.8031,3.7941,3.79,3.79,3.79,3.79,3.79,3.79,3.79,3.79,3.7795,3.7821,3.79,3.7795,3.7821,3.79,0.0,0.0,0.0,0.0,0.0,0.0,0.0,0.0,2.731,2.778,2.7902,2.8,2.8089,2.8582,0.0,0.0,0.0,0.0,0.0,0.0,0.0,0.0,2.7971,2.8213,2.848,2.8756,2.8747,2.848,0.0,2.848,2.7661,2.7263,2.6925,2.6661,2.6843,2.7042,2.7315,2.7878,2.8331,2.8687,2.8983,2.916,2.9307,0.0,0.0,0.0,2.9814,3.0355,3.132,3.2587,3.4708,3.6943,3.7645,3.8867,4.024,4.1402,4.1781,4.1951,4.2775,4.3428,4.3992,4.4571,4.4011,4.3023,4.1869,4.048,3.8762,3.6489,3.6055,3.58,3.4989,3.5992,3.7351,3.8516,3.9913,4.1951,4.5114,4.5309,4.6015,4.8396,4.7899,4.7611,4.8198,4.7716,4.7376,4.7376,4.71,4.6537,4.5635,4.5034,4.4316,4.3493,4.3167,4.2592,4.1781,4.1442,4.1024,4.0475,4.0162,3.9718,3.9195,3.8907,3.862,3.8318,3.8318,3.8161,3.79,3.79,3.79,3.79,3.79,3.79,3.79,3.79,3.79,3.79,0.0,0.0,0.0,0.0,0.0,0.0,0.0,2.7096,2.7147,2.7695,2.7963,2.8243,2.8651,2.9074,2.9094,0.0,0.0,0.0,0.0,0.0,0.0,0.0,0.0,0.0,2.8464,0.0,0.0,2.8263,2.8696,0.0,0.0,0.0,0.0,0.0,2.6511,2.6724,2.6787,2.7816,2.8391,0.0,0.0,2.9253,2.9428,0.0,0.0,0.0,0.0,3.0741,3.1909,3.2782,3.4899,3.7289,3.8164,3.9525,4.0958,4.1767,4.2369,4.2866,4.3402,4.399,4.4543,4.4811,4.4032,4.2682,4.0692,3.9356,3.7732,3.4972,3.4763,3.4946,3.4476,3.5338,3.6488,3.7717,3.896,4.0893,4.4081,4.4839,4.6041,4.8605,4.871,4.8736,4.9232,4.8736,4.8448,4.8553,4.7911,4.6941,4.5661,4.5139,4.4578,4.3912,4.3441,4.2866,4.2225,4.1729,4.1364,4.1102,4.0632,4.0345,4.0214,3.9736,3.9202,3.8628,3.8558,3.8257,3.7819,3.7819,3.7854,3.79,3.79,3.7854,3.7819,3.7877,3.7854,3.7819,0.0,0.0,0.0,0.0,0.0,0.0,0.0,2.696,2.7119,2.8192,2.8181,2.8499,2.9557,2.9717,2.9708,0.0,0.0,0.0,0.0,0.0,0.0,0.0,0.0,0.0,0.0,0.0,0.0,2.8822,2.8872,0.0,0.0,0.0,0.0,0.0,0.0,2.6166,2.6223,2.6987,0.0,0.0,0.0,0.0,0.0,0.0,0.0,0.0,0.0,3.1029,3.1868,3.3001,3.4531,3.6152,3.7252,3.9663,4.1951,4.1507,4.2905,4.4697,4.5231,4.5794,4.6135,4.564,4.4658,4.3088,4.0313,3.8798,3.7287,3.4894,3.445,3.4486,3.4397,3.5338,3.6488,3.7717,3.9273,4.1181,4.3637,4.535,4.6827,4.8134,4.9154,4.9782,4.9834,4.9337,4.9232,4.9703,4.8736,4.7388,4.5687,4.5557,4.5022,4.3938,4.386,4.3284,4.2225,4.2134,4.1572,4.0475,4.0423,4.0136,3.9653,3.9358,3.8925,3.8418,3.8109,3.7811,3.754,3.754,3.7667,3.79,3.79,3.7762,3.7563,3.7808,3.775,3.7563,0.0,0.0,0.0,0.0,0.0,0.0,2.6969,2.6799,2.7059,2.8089,2.8158,2.8524,2.9688,2.9814,2.9814,0.0,0.0,0.0,0.0,0.0,0.0,0.0,0.0,0.0,0.0,0.0,2.9679,2.9443,2.9082,0.0,0.0,0.0,0.0,0.0,0.0,2.707,2.7103,2.7854,0.0,0.0,0.0,0.0,0.0,0.0,0.0,0.0,0.0,0.0,3.2088,3.272,3.4126,3.5664,3.5867,3.8106,4.0775,4.1598,4.2735,4.3977,4.5243,4.6055,4.6356,4.5754,4.4473,4.2709,4.0162,3.8736,3.7235,3.4868,3.4685,3.4946,3.4946,3.5312,3.5992,3.7168,3.7915,3.9285,4.1951,4.2918,4.4565,4.7821,4.8277,4.8889,5.0289,4.9912,4.9546,4.9442,4.8657,4.7611,4.6212,4.5806,4.5231,4.4408,4.4056,4.3677,4.3232,4.2539,4.2121,4.1952,4.1285,4.0949,4.0904,4.0441,3.9826,3.91,3.8978,3.867,3.829,3.829,3.8132,3.7917,3.7917,3.7821,3.775,3.7845,3.7821,3.775,0.0,0.0,0.0,0.0,0.0,2.7019,2.6739,2.6662,2.6989,2.7955,2.8088,2.8524,2.9688,2.9814,2.9814,2.9814,0.0,0.0,0.0,0.0,0.0,0.0,0.0,0.0,0.0,0.0,2.9814,2.9814,2.9368,2.9129,0.0,0.0,2.7939,2.7741,0.0,0.0,0.0,0.0,0.0,0.0,0.0,0.0,0.0,0.0,0.0,0.0,0.0,0.0,0.0,0.0,0.0,3.5649,3.5215,3.6931,3.9337,4.0564,4.2173,4.3768,4.4813,4.6029,4.6827,4.6041,4.4565,4.267,4.0371,3.8829,3.7325,3.5312,3.5234,3.5547,3.5547,3.5678,3.607,3.6881,3.7429,3.8516,4.0737,4.1625,4.3337,4.6761,4.7086,4.7937,5.0095,5.0226,4.986,4.9154,4.871,4.7951,4.6801,4.627,4.5604,4.4721,4.433,4.4016,4.374,4.2971,4.2619,4.2735,4.1931,4.1581,4.1634,4.1132,4.0401,3.9508,3.9433,3.9128,3.8679,3.8679,3.8358,3.7906,3.7906,3.7859,3.7823,3.7882,3.7859,3.7823,0.0,0.0,0.0,0.0,0.0,0.0,0.0,2.6602,2.6901,2.7971,2.8088,2.8524,2.9688,2.9814,2.9814,2.9814,0.0,0.0,0.0,0.0,0.0,0.0,0.0,0.0,0.0,0.0,2.9814,2.9814,2.9789,2.9647,2.9399,2.9374,2.8995,2.8291,0.0,0.0,0.0,0.0,0.0,0.0,0.0,0.0,0.0,0.0,0.0,0.0,0.0,0.0,0.0,0.0,0.0,0.0,0.0,3.6611,3.7926,3.7952,4.118,4.4644,4.4069,4.599,4.7899,4.6775,4.5194,4.3284,4.0919,3.909,3.7549,3.6321,3.6096,3.6096,3.6096,3.6593,3.6985,3.7011,3.8449,3.977,4.0345,4.2408,4.4082,4.4682,4.5794,4.7193,4.8945,5.0121,5.0331,4.918,4.9102,4.8564,4.7359,4.7034,4.62,4.4733,4.4695,4.4273,4.3419,4.3393,4.2975,4.2103,4.2103,4.1809,4.1298,4.1012,4.0324,3.9297,3.9007,3.8717,3.8384,3.8384,3.82,3.7906,3.7906,3.7775,3.7645,3.7835,3.7763,3.7645,0.0,0.0,0.0,0.0,0.0,0.0,0.0,2.6533,2.6901,2.7971,2.8088,2.8524,2.9688,2.9814,2.9814,2.9814,0.0,0.0,0.0,0.0,0.0,0.0,0.0,0.0,0.0,0.0,2.9814,2.9814,2.9814,2.975,2.9672,2.9502,2.9271,2.9054,2.8899,2.8742,0.0,0.0,0.0,0.0,0.0,0.0,3.1938,0.0,0.0,0.0,0.0,0.0,0.0,0.0,0.0,0.0,0.0,0.0,0.0,3.707,3.9284,4.1925,4.2578,4.3663,4.4487,4.3755,4.2513,4.1115,3.9599,3.8542,3.756,3.6358,3.6436,3.6724,3.6724,3.6869,3.7273,3.8045,3.862,3.9326,4.0266,4.1755,4.3546,4.5677,4.8344,5.0185,5.0775,5.0435,5.0043,4.9662,4.8919,4.8058,4.7071,4.6959,4.6504,4.5629,4.5006,4.4555,4.4278,4.3535,4.3198,4.3308,4.25,4.1947,4.1623,4.1137,4.0411,3.9574,3.9484,3.9397,3.9297,3.9297,3.902,3.859,3.859,3.854,3.8503,3.8565,3.854,3.844,0.0,0.0,0.0,0.0,0.0,0.0,0.0,2.6508,2.6901,2.7971,2.8088,2.8524,2.9688,2.9814,2.9814,2.9814,0.0,0.0,0.0,0.0,0.0,0.0,0.0,0.0,0.0,3.0005,3.0005,2.9814,3.0005,3.0005,2.9814,2.9643,2.965,2.984,2.9727,2.9668,0.0,0.0,0.0,0.0,0.0,0.0,3.1913,0.0,0.0,0.0,0.0,0.0,0.0,0.0,0.0,0.0,0.0,0.0,0.0,0.0,3.7298,3.8929,4.0601,4.2005,4.2879,4.2343,4.1284,4.0162,3.9247,3.8449,3.7691,3.6922,3.709,3.7351,3.7351,3.7496,3.7862,3.8568,3.9064,3.9744,4.0906,4.2107,4.3755,4.6214,4.8971,5.067,5.067,5.0302,4.9965,4.9731,4.8752,4.7825,4.7037,4.692,4.6693,4.6307,4.5272,4.4661,4.4537,4.3618,4.3296,4.3556,4.2803,4.2277,4.1953,4.156,4.0999,4.0287,4.0099,3.9998,0.0,3.9772,3.9383,3.8894,3.8894,3.8894,3.8894,3.8894,3.8894,3.8843,0.0,0.0,0.0,0.0,0.0,0.0,0.0,0.0,2.6901,2.7971,2.8088,2.8524,2.9688,2.9814,2.9814,2.9814,0.0,0.0,0.0,0.0,0.0,0.0,0.0,0.0,0.0,3.0372,3.0397,2.9905,3.0372,3.0347,2.9864,2.9814,3.008,3.0588,3.0573,3.0538,0.0,0.0,0.0,0.0,0.0,0.0,0.0,0.0,0.0,0.0,0.0,0.0,0.0,0.0,0.0,0.0,0.0,0.0,0.0,0.0,0.0,0.0,0.0,4.0683,4.2423,4.1925,4.0998,4.0059,3.9587,3.8646,0.0,3.79,3.79,3.7926,3.7941,3.8333,3.8672,3.8803,3.9665,4.0775,4.2029,4.331,4.4749,4.6409,4.8187,4.9218,4.9072,4.9817,5.0048,4.9474,4.8592,4.7846,4.7253,4.697,4.6791,4.6776,4.5449,4.4611,4.432,4.3722,4.3265,4.3014,4.3014,4.2713,4.2199,4.2199,4.1845,4.1227,4.0725,4.0487,4.0412,3.9898,3.9409,3.8944,3.8944,3.8944,3.8944,3.8944,3.8944,3.8944,0.0,0.0,0.0,0.0,0.0,0.0,0.0,0.0,0.0,0.0,2.8088,2.8524,2.9688,2.9814,2.9814,0.0,0.0,0.0,0.0,0.0,0.0,0.0,0.0,0.0,0.0,3.0934,3.1145,3.1019,3.0748,3.0548,3.0397,2.998,3.008,3.0588,3.0181,0.0,0.0,0.0,0.0,0.0,0.0,0.0,0.0,0.0,0.0,0.0,3.2727,3.2767,0.0,0.0,0.0,0.0,0.0,0.0,0.0,0.0,3.5175,3.5324,3.5916,0.0,3.788,3.7975,3.8076,3.8204,0.0,3.8083,3.79,3.79,3.79,3.8031,3.8449,3.828,3.8527,3.9796,3.9874,4.0357,4.1977,4.467,4.6825,4.769,4.9703,5.0406,4.8807,4.9639,5.0121,4.9754,4.8702,4.7935,4.7525,4.7054,4.6686,4.6446,4.57,4.5069,4.4529,4.399,4.3459,4.3014,4.3014,4.2713,4.2199,4.2199,4.1658,4.0675,4.0549,4.0261,3.9873,3.9747,3.9635,3.9509,3.9509,3.9509,3.9509,3.9509,3.9509,3.9459,0.0,0.0,0.0,0.0,0.0,0.0,0.0,0.0,0.0,0.0,0.0,0.0,0.0,0.0,0.0,0.0,0.0,0.0,0.0,0.0,0.0,0.0,0.0,0.0,3.0959,3.1486,3.1537,3.1035,3.0984,3.0708,3.0231,2.9939,3.008,3.0598,3.0306,0.0,0.0,0.0,0.0,0.0,3.1878,0.0,0.0,0.0,0.0,0.0,3.239,3.2491,0.0,3.352,3.3746,3.3653,0.0,0.0,0.0,0.0,3.4171,3.4171,3.4171,3.5223,3.6319,3.6493,3.7022,3.754,3.7667,3.7611,3.756,3.7836,3.7679,3.7665,3.824,3.8306,3.8646,3.9848,4.024,4.1155,4.3441,4.5362,4.7124,4.8788,4.986,5.023,4.9748,5.0137,5.0191,4.9616,4.8604,4.7825,4.7389,4.6859,4.6506,4.6326,4.6024,4.5472,4.4614,4.4077,4.3528,4.3014,4.3014,4.2838,4.2576,4.2576,4.2085,4.1254,4.0989,4.0549,4.0049,3.9798,3.9697,3.9697,3.9697,3.9697,3.9697,3.9697,3.9697,3.966,0.0,0.0,0.0,0.0,0.0,0.0,0.0,0.0,0.0,0.0,0.0,0.0,0.0,0.0,0.0,0.0,0.0,0.0,0.0,0.0,0.0,0.0,0.0,3.1271,3.1271,3.1803,3.1627,3.0723,3.111,3.0809,2.9905,2.9839,3.008,3.0588,3.0698,0.0,0.0,0.0,0.0,0.0,3.1978,0.0,0.0,0.0,0.0,0.0,0.0,0.0,0.0,3.3258,3.3355,3.304,3.3395,0.0,0.0,0.0,0.0,0.0,3.3208,3.4738,3.6226,3.608,3.6765,3.7479,3.7448,3.7282,3.7273,3.7795,3.7496,3.7351,3.8019,3.8475,3.8986,3.986,4.1102,4.2892,4.5623,4.6145,4.7124,4.9419,4.9523,4.9696,5.0488,5.0539,5.0177,4.9286,4.8391,4.7666,4.7124,4.6587,4.6286,4.6286,4.6286,4.5759,4.4614,4.4152,4.3614,4.3014,4.3014,4.3014,4.3014,4.3014,4.2713,4.2174,4.1567,4.1001,4.0462,3.9923,3.9697,3.9697,3.9697,3.9697,3.9697,3.9697,3.9697,3.9697,0.0,0.0,0.0,0.0,0.0,0.0,0.0,0.0,0.0,0.0,0.0,0.0,0.0,0.0,0.0,0.0,0.0,0.0,0.0,0.0,0.0,0.0,3.0959,3.0723,3.0723,3.126,3.1436,3.1271,3.0899,3.0648,3.0472,3.0005,3.008,3.0623,3.106,3.1371,0.0,0.0,0.0,0.0,3.1978,0.0,0.0,0.0,0.0,0.0,0.0,0.0,0.0,3.2104,3.2405,3.2254,3.1888,0.0,0.0,0.0,0.0,0.0,3.3781,3.5054,3.5865,3.5051,3.6187,3.7422,3.7133,3.7421,3.7795,3.7874,3.7821,3.8071,3.9143,3.8986,3.939,4.1454,4.3572,4.5623,4.7519,4.8616,4.9113,4.8762,4.995,5.008,4.8212,4.933,4.9812,4.8938,4.8265,4.7666,4.7124,4.6587,4.6286,4.6286,4.6286,4.5759,4.4614,4.4529,4.3976,4.3014,4.3014,4.3014,4.3014,4.3014,4.2713,4.2174,4.1567,4.1001,4.0462,3.9923,3.9697,3.9697,3.9697,3.9697,3.9697,3.9697,3.9697,3.9697,0.0,0.0,0.0,0.0,0.0,0.0,0.0,0.0,0.0,0.0,0.0,0.0,0.0,0.0,0.0,0.0,0.0,0.0,0.0,0.0,0.0,3.1421,3.0884,3.0748,3.1035,3.126,3.1271,3.0959,3.0723,3.0447,3.0156,2.9914,3.0231,3.1035,3.0984,3.1461,3.2311,0.0,0.0,0.0,0.0,0.0,0.0,0.0,0.0,0.0,0.0,0.0,0.0,0.0,3.2204,3.2104,3.1572,0.0,0.0,0.0,0.0,0.0,3.2981,3.4419,3.5632,3.5197,3.6556,3.7862,3.7384,3.7353,3.7586,3.8214,3.8097,3.8344,3.977,4.0083,4.0972,4.3598,4.5192,4.6578,4.8004,4.7974,4.8084,4.8905,4.9239,4.9291,4.8937,4.9641,4.9732,4.8859,4.8234,4.7666,4.7124,4.6587,4.6286,4.6286,4.6286,4.5909,4.5095,4.4754,4.4052,4.3014,4.3014,4.3014,4.3014,4.3014,4.2713,4.2174,4.1895,4.1304,4.0487,4.0236,3.9973,3.9697,3.9697,3.9697,3.9697,3.9697,3.9697,3.9697,0.0,0.0,0.0,0.0,0.0,0.0,0.0,0.0,0.0,0.0,0.0,0.0,0.0,0.0,0.0,0.0,0.0,0.0,0.0,0.0,3.1396,3.1396,3.1009,3.0849,3.1019,3.1019,3.0809,3.0422,3.0422,3.0281,2.999,2.999,3.0557,3.1572,3.115,3.1838,3.3266,3.2781,0.0,0.0,0.0,0.0,0.0,0.0,0.0,0.0,0.0,0.0,0.0,0.0,0.0,0.0,0.0,0.0,0.0,3.1662,3.1888,3.2265,3.2604,3.407,3.552,3.555,3.6953,3.8244,3.8039,3.7776,3.7978,3.9259,3.9076,3.9128,4.0566,4.152,4.2879,4.5217,4.6552,4.7638,4.8657,4.788,4.7811,4.9481,4.8979,4.8895,4.9906,4.9976,4.9652,4.8859,4.8234,4.7666,4.7124,4.6587,4.6286,4.6286,4.6286,4.605,4.5512,4.4905,4.4127,4.3176,4.3051,4.3014,4.3014,4.3014,4.2788,4.2375,4.2249,4.1619,4.0688,4.0563,4.0186,3.9697,3.9697,3.9697,3.9697,3.9697,3.9697,3.9735,0.0,0.0,0.0,0.0,0.0,0.0,0.0,0.0,0.0,0.0,0.0,0.0,0.0,0.0,0.0,0.0,0.0,0.0,0.0,0.0,3.1396,3.1396,3.1371,3.0894,2.9939,2.9914,2.9914,2.9864,2.9864,3.0096,3.0538,3.0538,3.1115,3.2154,3.2104,3.2731,3.3847,3.3796,3.4087,0.0,0.0,0.0,0.0,0.0,0.0,0.0,0.0,0.0,0.0,0.0,0.0,0.0,0.0,0.0,3.1547,3.2003,3.2179,3.2483,3.3777,3.4813,3.5528,3.5727,3.6858,3.8217,3.9223,3.9418,3.9886,4.1611,4.1455,4.1259,4.1951,4.3441,4.4788,4.5492,4.7885,4.9886,5.0514,5.0675,5.0684,5.0539,5.0175,4.9865,4.967,4.9638,4.9396,4.8843,4.8234,4.7666,4.7124,4.6587,4.6286,4.6286,4.6286,4.605,4.5512,4.4905,4.4303,4.374,4.3226,4.3014,4.3014,4.3014,4.2989,4.2914,4.2425,4.1845,4.1188,4.07,4.0186,3.9697,3.9697,3.9697,3.9697,3.9697,3.9697,3.9772,0.0,0.0,0.0,0.0,0.0,0.0,0.0,0.0,0.0,0.0,0.0,0.0,0.0,0.0,0.0,0.0,0.0,0.0,0.0,0.0,3.1396,3.1396,3.1396,3.0894,2.9804,2.9814,2.9814,2.9814,2.9814,3.008,3.0588,3.0588,3.1165,3.2204,3.2204,3.2641,3.3431,3.3757,3.4022,3.4187,0.0,0.0,0.0,0.0,0.0,0.0,0.0,0.0,0.0,0.0,3.0588,3.0538,3.0206,3.0708,3.1361,3.125,3.1533,3.2095,3.3005,3.4169,3.5336,3.6145,3.7401,3.8516,3.8934,3.9587,4.0514,4.1898,4.2578,4.3088,4.365,4.5494,4.6984,4.7179,4.9322,5.1037,5.1272,5.0996,5.0757,5.0604,5.012,4.9735,4.9606,4.959,4.938,4.8843,4.8234,4.7666,4.7124,4.6587,4.6286,4.6286,4.6286,4.605,4.5512,4.4905,4.4328,4.379,4.3251,4.3014,4.3014,4.3014,4.3014,4.2989,4.2788,4.2386,4.1845,4.1644,4.1217,4.0675,4.0675,4.0675,4.0675,4.0675,4.0675,4.0725,0.0,0.0,0.0,0.0,0.0,0.0,0.0,0.0,0.0,0.0,0.0,0.0,0.0,0.0,0.0,0.0,0.0,0.0,3.1095,3.1321,3.1396,3.1396,3.1396,3.0969,3.008,2.9889,2.9814,2.9814,2.9955,3.0331,3.0849,3.1024,3.1602,3.248,3.248,3.2803,3.338,3.3746,3.3997,3.4137,3.3972,3.3897,0.0,0.0,0.0,0.0,0.0,0.0,0.0,0.0,3.0347,3.0347,3.0306,3.0819,3.1381,3.1246,3.1559,3.201,3.2326,3.3496,3.4839,3.5664,3.7166,3.8646,3.9352,4.0397,4.1756,4.3703,4.4265,4.4605,4.5166,4.6578,4.7768,4.8134,5.0015,5.1424,5.1424,5.0842,5.0455,5.0455,4.9944,4.959,4.959,4.959,4.938,4.8843,4.8234,4.7666,4.7124,4.6587,4.621,4.605,4.605,4.5773,4.5221,4.4629,4.4152,4.379,4.3251,4.3014,4.3014,4.3014,4.3014,4.3014,4.3014,4.2688,4.2199,4.2199,4.1845,4.1289,4.1289,4.1289,4.1314,4.1517,4.1592,4.1617,0.0,0.0,0.0,0.0,0.0,0.0,0.0,0.0,0.0,0.0,0.0,0.0,0.0,0.0,0.0,0.0,0.0,0.0,3.0563,3.111,3.1396,3.1396,3.1396,3.1135,3.0588,3.008,2.9814,2.9814,3.0322,3.0874,3.1421,3.1928,3.2516,3.309,3.3101,3.338,3.3872,3.3897,3.4187,3.4628,3.4123,3.3897,0.0,0.0,0.0,0.0,0.0,0.0,0.0,0.0,2.9814,2.999,3.1045,3.1396,3.1563,3.2282,3.2501,3.2426,3.2112,3.3034,3.4094,3.411,3.6047,3.8516,4.0789,4.2187,4.3977,4.7481,4.6839,4.5806,4.6409,4.6527,4.6906,4.803,4.9843,5.1104,5.1104,5.0518,5.0113,5.0113,4.9799,4.959,4.959,4.959,4.938,4.8843,4.8234,4.7666,4.7124,4.6587,4.605,4.5512,4.5512,4.5221,4.4589,4.4066,4.379,4.379,4.3251,4.3014,4.3014,4.3014,4.3014,4.3014,4.3014,4.2688,4.2199,4.2199,4.187,4.1314,4.1314,4.1314,4.1403,4.1984,4.2224,4.2299,0.0,0.0,0.0,0.0,0.0,0.0,0.0,0.0,0.0,0.0,0.0,0.0,0.0,0.0,0.0,0.0,0.0,0.0,3.0563,3.0748,3.0849,3.0849,3.0849,3.0583,3.0055,3.0256,3.0347,3.0347,3.0146,3.0507,3.1396,3.1572,3.1723,3.1934,3.2738,3.2727,3.22,3.3004,3.3431,3.3556,3.3406,3.3654,0.0,0.0,0.0,0.0,0.0,0.0,0.0,0.0,0.0,0.0,3.039,3.1386,3.2332,3.175,3.2244,3.2983,3.2874,3.3286,3.4121,3.5737,3.7634,3.9808,4.2513,4.3075,4.3977,4.7481,4.7794,4.7466,4.7664,4.8344,4.8893,4.884,5.0317,5.1361,5.1136,5.0725,5.0359,5.0145,4.9799,4.959,4.959,4.959,4.938,4.8843,4.8234,4.7666,4.7124,4.6587,4.605,4.5512,4.5512,4.502,4.4066,4.389,4.3614,4.3226,4.3076,4.3014,4.3014,4.3014,4.3014,4.3014,4.3014,4.2914,4.2763,4.2763,4.2649,4.2484,4.2484,4.2484,4.2559,4.3126,4.3327,4.3352,0.0,0.0,0.0,0.0,0.0,0.0,0.0,0.0,0.0,0.0,0.0,0.0,0.0,0.0,0.0,0.0,0.0,0.0,0.0,3.0472,3.0487,3.0297,3.0497,3.0447,3.0121,3.0648,3.1024,3.125,3.0708,3.0658,3.1085,3.1512,3.1712,3.1763,3.2688,3.2587,3.1763,3.2451,3.2753,3.2753,3.2753,3.3208,3.3734,0.0,0.0,0.0,0.0,0.0,0.0,0.0,0.0,0.0,3.0741,3.1519,3.2141,3.1775,3.208,3.2645,3.3213,3.3824,3.4711,3.6541,3.8646,4.0972,4.365,4.5023,4.6421,4.8762,4.8866,4.8683,4.9154,4.9416,4.9625,4.9755,5.057,5.1126,5.0946,5.0518,5.0136,4.9928,4.9719,4.959,4.959,4.9405,4.9053,4.8476,4.7908,4.7365,4.6798,4.6486,4.5934,4.5171,4.5146,4.4618,4.3489,4.3478,4.3427,4.3327,4.3101,4.3101,4.3302,4.3115,4.3014,4.3014,4.3014,4.3126,4.3327,4.3327,4.3452,4.3653,4.3653,4.3653,4.3689,4.4267,4.4317,4.4127,0.0,0.0,0.0,0.0,0.0,0.0,0.0,0.0,0.0,0.0,0.0,0.0,0.0,0.0,0.0,0.0,0.0,0.0,0.0,0.0,3.0297,2.9804,3.0297,3.0648,3.0738,3.121,3.1687,3.2129,3.1587,3.111,3.0688,3.1677,3.2104,3.2079,3.2727,3.2652,3.2043,3.2043,3.2054,3.2074,3.2054,3.2573,3.3174,3.1846,0.0,0.0,0.0,0.0,0.0,0.0,0.0,0.0,3.1689,3.1725,3.1466,3.2153,3.2028,3.198,3.338,3.4502,3.5626,3.6985,3.9508,4.2278,4.4592,4.7585,5.0028,5.054,4.9912,4.9599,5.0655,5.0043,4.9677,5.0697,5.0737,5.062,5.0588,5.0056,4.9622,4.959,4.959,4.959,4.959,4.9104,4.8551,4.7958,4.74,4.6873,4.6336,4.6286,4.5809,4.4729,4.4679,4.4177,4.3165,4.3115,4.3327,4.379,4.3251,4.3251,4.3714,4.3226,4.3014,4.3014,4.3101,4.3402,4.379,4.379,4.4127,4.4589,4.4489,4.4514,4.4665,4.5171,4.502,4.4589,0.0,0.0,0.0,0.0,0.0,0.0,0.0,0.0,0.0,0.0,0.0,0.0,0.0,0.0,0.0,0.0,0.0,0.0,0.0,0.0,2.9905,2.9814,3.0297,3.0989,3.1853,3.1978,3.1888,3.1562,3.1024,3.0934,3.1235,3.1461,3.1361,3.0999,3.1953,3.1853,3.0939,3.0939,3.104,3.1155,3.1009,3.162,3.2483,3.1411,3.1275,0.0,0.0,0.0,0.0,0.0,0.0,0.0,3.1416,3.1964,3.2319,3.2016,3.2515,3.3396,3.4622,3.5103,3.5992,3.8934,4.2187,4.5179,4.7036,4.8736,4.9834,4.952,4.9991,5.0644,5.1309,5.1246,5.1126,5.1387,5.1184,5.0915,5.0636,5.0248,4.9879,4.9622,4.959,4.959,4.959,4.9104,4.8551,4.7958,4.74,4.6873,4.6336,4.6286,4.5984,4.5321,4.5311,4.497,4.4252,4.384,4.3689,4.379,4.3251,4.3051,4.3176,4.3051,4.3014,4.3065,4.389,4.4077,4.379,4.379,4.4127,4.4529,4.3664,4.3865,4.4564,4.4267,4.4353,4.4554,0.0,0.0,0.0,0.0,0.0,0.0,0.0,0.0,0.0,0.0,0.0,0.0,0.0,0.0,0.0,0.0,0.0,0.0,0.0,0.0,2.9814,2.9814,3.0297,3.0974,3.1813,3.1813,3.1813,3.1788,3.0999,3.0598,3.0643,3.117,3.1246,3.1009,3.1828,3.1752,3.0959,3.0808,3.0757,3.0767,3.0866,3.1444,3.2169,3.1366,3.1243,3.1423,3.0905,0.0,0.0,0.0,0.0,0.0,0.0,0.0,3.2313,3.2574,3.3117,3.3901,3.5312,3.6305,3.7769,4.1193,4.3846,4.591,4.7115,4.8265,4.9102,4.9102,5.0226,5.1178,5.1204,5.1413,5.1366,5.0664,5.0509,5.0258,4.9688,4.9276,4.8976,4.8802,4.9038,4.9229,4.9229,4.8702,4.8234,4.7917,4.7164,4.6572,4.6311,4.6286,4.605,4.5512,4.5512,4.5085,4.4227,4.394,4.379,4.379,4.3251,4.3126,4.3377,4.3126,4.3014,4.3025,4.3589,4.3815,4.379,4.379,4.4127,4.4539,4.3976,4.4292,4.4955,4.4378,4.4353,4.4529,0.0,0.0,0.0,0.0,0.0,0.0,0.0,0.0,0.0,0.0,0.0,0.0,0.0,0.0,0.0,0.0,0.0,0.0,0.0,0.0,0.0,2.993,3.0347,3.0849,3.1396,3.1396,3.1562,3.1928,3.1039,0.0,0.0,0.0,0.0,3.1286,3.1738,3.1687,3.1231,3.0902,3.0694,3.0586,3.0924,3.1391,3.1836,0.0,0.0,3.1351,3.091,3.0755,3.0851,3.1567,0.0,0.0,0.0,0.0,3.2173,3.3273,3.3597,3.3963,3.5652,3.7575,3.9939,4.3232,4.4905,4.5936,4.6618,4.7585,4.85,4.8997,5.0185,5.1047,5.0723,5.0964,5.0825,4.9602,4.9508,4.9321,4.8608,4.8151,4.7908,4.7908,4.835,4.8626,4.8626,4.8109,4.7767,4.7767,4.6838,4.6286,4.6286,4.6286,4.605,4.5512,4.5512,4.501,4.394,4.384,4.379,4.379,4.3251,4.3327,4.3915,4.3377,4.3176,4.3277,4.3377,4.3678,4.4091,4.4091,4.4353,4.4754,4.464,4.4955,4.5412,4.4729,4.4529,4.4514,0.0,0.0,0.0,0.0,0.0,0.0,0.0,0.0,0.0,0.0,0.0,0.0,0.0,0.0,0.0,0.0,0.0,0.0,2.9814,0.0,0.0,3.0472,3.0573,3.0849,3.1396,3.1396,3.121,3.0814,0.0,0.0,0.0,0.0,0.0,3.0698,0.0,3.0773,3.0683,3.0365,3.0295,3.0423,3.048,3.0761,0.0,0.0,0.0,0.0,3.0997,3.0971,3.105,3.1615,3.1745,0.0,0.0,0.0,3.2698,3.3414,3.3597,3.3963,3.5652,3.8463,4.1547,4.4069,4.5534,4.667,4.7742,4.85,4.8997,4.9076,4.9285,4.9546,4.9965,4.9841,4.9628,4.9442,4.8989,4.8624,4.8527,4.8151,4.7908,4.7908,4.7983,4.8033,4.8033,4.7541,4.7199,4.7199,4.6637,4.6286,4.6286,4.6286,4.605,4.5512,4.5512,4.5171,4.4503,4.4027,4.379,4.379,4.3251,4.3514,4.4478,4.394,4.394,4.4428,4.4945,4.5211,4.5286,4.5286,4.5336,4.5321,4.4805,4.4955,4.5386,4.4292,4.4202,4.4453,0.0,0.0,0.0,0.0,0.0,0.0,0.0,0.0,0.0,0.0,0.0,0.0,0.0,0.0,0.0,2.9814,2.9814,2.9814,2.9814,2.9468,2.9543,3.0131,3.0156,3.0397,3.0934,3.0658,3.0532,3.0588,0.0,0.0,0.0,3.1312,3.1518,0.0,0.0,0.0,0.0,3.0646,3.0406,3.0425,3.0644,3.0757,0.0,0.0,0.0,0.0,0.0,0.0,3.1035,3.1278,3.1356,3.1513,3.2411,0.0,0.0,0.0,3.4303,3.5077,3.7429,3.9404,4.1442,4.4081,4.5375,4.6276,4.7426,4.8172,4.8605,4.8605,4.8605,4.8762,4.9363,4.9583,4.9345,4.8337,4.8215,4.8039,4.7369,4.712,4.6988,4.6988,4.7265,4.745,4.745,4.7249,4.7099,4.7099,4.6612,4.6286,4.6286,4.6024,4.5723,4.5512,4.5171,4.4729,4.4152,4.3915,4.379,4.379,4.3564,4.4016,4.5081,4.4503,4.4202,4.4177,4.4443,4.4543,4.4543,4.4543,4.4719,4.4955,4.469,4.4955,4.5412,4.4554,4.4604,4.4995,0.0,0.0,0.0,0.0,0.0,0.0,0.0,0.0,0.0,0.0,0.0,0.0,0.0,0.0,0.0,0.0,2.9654,2.9503,2.9387,2.9057,2.9107,2.9553,2.9704,2.999,3.0397,3.0005,3.0009,0.0,0.0,0.0,3.1786,3.1929,3.2604,0.0,3.3096,3.2361,0.0,0.0,0.0,0.0,0.0,0.0,0.0,0.0,0.0,0.0,0.0,0.0,0.0,3.0992,3.1087,3.1339,3.2202,3.2568,0.0,0.0,0.0,3.5626,3.8228,3.943,4.0658,4.3545,4.493,4.5896,4.7046,4.7766,4.8187,4.8187,4.8187,4.8314,4.8685,4.8882,4.8569,4.7202,4.7123,4.6906,4.5984,4.5859,4.5909,4.6075,4.6296,4.6572,4.6873,4.6772,4.6763,4.6873,4.6537,4.6235,4.61,4.5738,4.5361,4.5085,4.4629,4.4127,4.3589,4.3589,4.3664,4.379,4.3664,4.4192,4.5246,4.4654,4.4177,4.3815,4.394,4.4016,4.4016,4.4016,4.4227,4.4629,4.478,4.5095,4.5462,4.498,4.5121,4.5412,0.0,0.0,0.0,0.0,0.0,0.0,0.0,0.0,0.0,0.0,0.0,0.0,0.0,2.9814,2.9814,2.9814,2.9292,2.8731,2.8213,2.8631,2.8922,2.8947,2.9493,0.0,2.9839,2.9804,2.9911,0.0,0.0,0.0,3.2818,3.2637,3.3539,3.5248,3.4212,3.2803,3.1281,0.0,0.0,0.0,0.0,0.0,0.0,0.0,0.0,0.0,0.0,0.0,0.0,0.0,3.133,3.1771,3.1823,3.2235,3.2813,0.0,0.0,0.0,3.6645,3.7941,3.9482,4.2383,4.4355,4.5896,4.7046,4.7766,4.8187,4.8187,4.8187,4.8125,4.7817,4.7122,4.6543,4.6462,4.5519,4.4758,4.4704,4.4704,4.4905,4.5472,4.5056,4.5141,4.6235,4.5874,4.5799,4.6286,4.6311,4.6075,4.5587,4.5512,4.4995,4.3915,4.3865,4.3589,4.3065,4.3039,4.3302,4.379,4.3277,4.3603,4.4629,4.4077,4.384,4.384,4.4328,4.4564,4.4564,4.4564,4.4564,4.4654,4.5221,4.5487,4.5512,4.5462,4.5487,4.5412,0.0,0.0,0.0,0.0,0.0,0.0,0.0,0.0,0.0,0.0,0.0,0.0,0.0,2.9208,2.9092,2.875,2.8514,2.8455,2.8605,2.8797,2.8897,2.8897,2.9478,2.9814,2.9814,2.9924,3.003,0.0,0.0,3.0924,3.2327,3.2428,3.3014,3.3972,3.3591,3.3075,3.2441,3.1789,0.0,0.0,0.0,0.0,0.0,0.0,0.0,0.0,0.0,0.0,0.0,0.0,0.0,0.0,0.0,0.0,3.3388,3.3963,3.4528,3.526,3.6645,3.7575,3.8867,4.1781,4.3219,4.4329,4.587,4.6682,4.7219,4.7556,4.7609,4.7653,4.7684,4.7434,4.7126,4.6724,4.6294,4.582,4.525,4.5457,4.5633,4.5512,4.5623,4.5859,4.6261,4.6125,4.61,4.6301,4.6286,4.6075,4.5537,4.5121,4.4593,4.3815,4.3478,4.3176,4.3014,4.3014,4.3277,4.379,4.3614,4.389,4.4589,4.4403,4.4127,4.384,4.4378,4.4589,4.4589,4.4589,4.5016,4.5708,4.5924,4.6024,4.6024,4.6024,4.6024,4.5974,0.0,0.0,0.0,0.0,0.0,0.0,0.0,0.0,0.0,0.0,0.0,0.0,0.0,0.0,2.9088,2.8608,2.8502,2.8541,2.8708,2.8965,2.9066,2.9001,2.965,3.0001,3.0001,3.0145,3.0216,0.0,0.0,0.0,0.0,3.2056,3.254,3.3327,3.2917,3.2839,0.0,0.0,0.0,3.1278,0.0,0.0,3.1313,0.0,0.0,0.0,0.0,0.0,0.0,0.0,0.0,0.0,0.0,0.0,0.0,0.0,3.4528,3.5234,3.6384,3.7142,3.824,4.0918,4.194,4.2775,4.4616,4.5254,4.5722,4.6561,4.6818,4.6947,4.7213,4.717,4.6913,4.6307,4.5982,4.5597,4.4999,4.5246,4.5472,4.5512,4.5648,4.5884,4.6261,4.5959,4.5884,4.6261,4.5934,4.5673,4.5512,4.4593,4.3815,4.3277,4.2914,4.2813,4.3014,4.3014,4.3176,4.3528,4.3528,4.3714,4.4052,4.4052,4.3966,4.3815,4.3991,4.4177,4.4353,4.4529,4.5181,4.6024,4.6024,4.615,4.6286,4.6286,4.6286,4.6286,0.0,0.0,0.0,0.0,0.0,0.0,0.0,0.0,0.0,0.0,0.0,0.0,0.0,0.0,0.0,2.9527,2.9328,2.8981,2.8466,2.913,2.9437,2.9209,2.9976,3.0406,3.0406,3.0406,3.0492,3.0698,3.0501,3.088,3.1771,0.0,3.2214,3.3493,3.2329,3.213,3.2708,0.0,3.2845,3.1797,0.0,3.1823,3.1954,0.0,0.0,3.3613,3.3613,3.365,3.3571,3.2996,0.0,0.0,0.0,0.0,0.0,0.0,0.0,3.4643,0.0,0.0,0.0,3.9758,4.0591,4.1373,4.3336,4.3582,4.3812,4.5227,4.5723,4.6011,4.6326,4.6108,4.57,4.5142,4.4367,4.3815,4.379,4.3815,4.4242,4.5336,4.4945,4.5056,4.616,4.5257,4.5066,4.621,4.5242,4.4855,4.5437,4.3854,4.2738,4.2249,4.2199,4.245,4.2989,4.3014,4.3014,4.3014,4.3014,4.3014,4.3025,4.3025,4.3302,4.3765,4.3277,4.3352,4.384,4.4378,4.4955,4.5512,4.5512,4.5849,4.6286,4.6286,4.6286,4.6286,0.0,0.0,0.0,0.0,0.0,0.0,0.0,0.0,0.0,0.0,0.0,0.0,0.0,0.0,2.9211,2.9486,2.9448,2.9335,2.92,2.9802,2.9939,2.9446,3.0042,3.0406,3.0406,3.053,3.0641,3.0698,3.0802,3.0984,3.1235,3.1161,0.0,0.0,3.1954,3.1876,3.2042,3.181,0.0,3.1797,3.1797,3.2068,3.2489,3.2813,3.3467,3.4173,3.4173,3.4711,3.5391,3.5208,3.5155,3.5077,0.0,0.0,0.0,0.0,0.0,0.0,3.5312,0.0,0.0,0.0,0.0,0.0,4.0679,4.1132,4.1853,4.3464,4.3848,4.4211,4.5268,4.5392,4.5059,4.4288,4.4285,4.4227,4.3865,4.4127,4.4353,4.4292,4.4478,4.4905,4.5648,4.5031,4.5066,4.621,4.5242,4.4503,4.4292,4.2671,4.2082,4.2763,4.24,4.245,4.2989,4.3014,4.3014,4.3014,4.3014,4.3201,4.3578,4.3578,4.3664,4.384,4.4507,4.4432,4.384,4.4378,4.4955,4.5537,4.5924,4.616,4.6286,4.6286,4.6286,4.6286,0.0,0.0,0.0,0.0,0.0,0.0,0.0,0.0,0.0,0.0,0.0,0.0,0.0,0.0,0.0,3.0063,3.004,2.9994,2.9994,3.0406,3.0477,3.0019,3.0406,3.0653,3.0653,3.0783,3.084,3.084,3.0953,3.0992,3.0992,3.0992,0.0,0.0,0.0,0.0,0.0,0.0,3.1304,3.1823,3.2068,3.2662,3.3467,3.3937,3.4685,3.5495,3.5495,3.607,3.6765,3.6279,3.6096,0.0,0.0,0.0,0.0,0.0,0.0,0.0,0.0,0.0,0.0,3.7603,0.0,0.0,3.8996,3.9259,3.9813,4.1479,4.2003,4.2557,4.3815,4.3981,4.379,4.3506,4.3539,4.3639,4.379,4.4077,4.4227,4.4127,4.4403,4.4729,4.5095,4.4604,4.4629,4.5533,4.4554,4.3689,4.3151,4.2434,4.2208,4.2637,4.235,4.245,4.2989,4.3014,4.3014,4.3014,4.2763,4.2939,4.3452,4.3226,4.3377,4.3815,4.4281,4.4206,4.384,4.4378,4.4955,4.5547,4.61,4.6286,4.6261,4.605,4.5974,4.5924,0.0,0.0,0.0,0.0,0.0,0.0,0.0,0.0,0.0,0.0,0.0,0.0,0.0,0.0,0.0,0.0,3.0849,3.0726,3.0726,3.0905,3.0934,3.0736,3.0905,3.0992,3.0992,3.0992,3.0992,3.0992,3.0992,3.0992,3.0992,0.0,0.0,0.0,0.0,0.0,0.0,3.1061,3.1408,3.1964,3.2489,3.3404,3.4607,3.5626,3.6425,3.7011,3.7011,3.7403,3.7743,3.6671,3.6253,3.6123,3.5626,0.0,0.0,0.0,3.5312,0.0,0.0,0.0,0.0,0.0,3.753,0.0,3.7987,3.7869,3.7973,3.9473,4.0198,4.0919,4.2059,4.2122,4.2149,4.2562,4.2386,4.2537,4.3578,4.3714,4.389,4.4378,4.4428,4.4453,4.4503,4.4041,4.3966,4.4554,4.3614,4.2788,4.2299,4.2612,4.2663,4.2299,4.2224,4.245,4.2989,4.3014,4.3014,4.2989,4.2526,4.2576,4.3076,4.2537,4.2813,4.3689,4.3201,4.3277,4.3765,4.4353,4.4905,4.5462,4.606,4.6286,4.6235,4.5748,4.5562,4.5437,0.0,0.0,0.0,0.0,0.0,0.0,0.0,0.0,0.0,0.0,0.0,0.0,0.0,0.0,0.0,0.0,3.0971,3.0953,3.0953,3.099,3.099,3.0953,3.099,3.0992,3.0992,3.0992,3.0992,3.0992,3.0992,3.0992,3.0992,3.0992,0.0,0.0,0.0,0.0,0.0,3.1451,3.1973,3.2542,3.2656,3.3666,3.5155,3.5365,3.6096,3.7011,3.7011,3.7403,3.7862,3.7639,3.722,3.6802,3.6698,3.641,3.607,3.5835,0.0,0.0,0.0,0.0,0.0,3.6879,3.7567,0.0,3.7017,3.7027,3.7483,3.825,3.8478,3.8919,4.0064,4.059,4.0727,4.0413,4.1381,4.2425,4.3065,4.3151,4.3176,4.3302,4.3302,4.3478,4.3915,4.3478,4.3564,4.4529,4.3614,4.2964,4.2838,4.2069,4.1993,4.2813,4.2425,4.245,4.2989,4.3014,4.3014,4.3014,4.2889,4.3126,4.3628,4.309,4.2964,4.3151,4.3065,4.3065,4.3226,4.4202,4.4665,4.488,4.5909,4.6286,4.6301,4.6175,4.5874,4.5487,0.0,0.0,0.0,0.0,0.0,0.0,0.0,0.0,0.0,0.0,0.0,0.0,0.0,0.0,0.0,0.0,0.0,0.0,0.0,3.0992,3.0992,3.0992,3.0992,3.0992,3.0992,3.0992,3.0992,3.0992,3.0992,3.0992,3.0992,3.0992,0.0,0.0,0.0,0.0,3.1044,3.1572,3.2156,3.2761,3.331,3.4397,3.573,3.6044,3.6698,3.7456,3.7456,3.7639,3.7941,3.8202,3.8097,3.781,3.7534,3.7429,3.7299,3.6724,3.6765,3.6899,3.6464,3.6912,3.7413,3.7027,3.7284,0.0,0.0,3.6679,3.6995,3.7608,3.7472,3.755,3.8642,3.8843,3.8944,3.9258,4.0225,4.1217,4.2032,4.2649,4.3014,4.3014,4.2763,4.2813,4.3352,4.2914,4.2925,4.374,4.3302,4.3014,4.3014,4.2459,4.2409,4.2975,4.2738,4.2738,4.3014,4.3014,4.3014,4.3014,4.2738,4.2889,4.3377,4.2838,4.2738,4.3,4.3277,4.3402,4.3478,4.4593,4.5045,4.5131,4.5959,4.6286,4.6261,4.5999,4.5723,4.5462,0.0,0.0,0.0,0.0,0.0,0.0,0.0,0.0,0.0,0.0,0.0,0.0,0.0,0.0,0.0,0.0,0.0,0.0,0.0,3.1061,3.0992,3.0992,3.0992,3.0992,3.0992,3.0992,3.0992,3.0992,3.0992,3.0992,3.0992,3.0992,3.0992,3.1009,0.0,3.1156,3.1192,3.1869,3.2417,3.297,3.4214,3.5286,3.6175,3.6776,3.7366,3.79,3.79,3.7978,3.8097,3.8437,3.8698,3.8789,3.824,3.8437,3.8698,3.7758,3.7813,3.7993,3.7292,3.7334,3.7601,3.7745,3.7364,3.6928,0.0,0.0,0.0,3.7187,3.6814,3.6658,3.7538,3.7424,3.7462,3.8291,3.9132,3.9973,4.0725,4.1907,4.2674,4.2674,4.2272,4.221,4.2624,4.2286,4.221,4.2649,4.2674,4.2674,4.2674,4.2674,4.2724,4.2838,4.2838,4.2889,4.3014,4.3014,4.3014,4.2989,4.2576,4.2587,4.2975,4.2436,4.245,4.2864,4.3187,4.3514,4.3865,4.4683,4.5286,4.5698,4.6125,4.6286,4.625,4.5799,4.5587,4.5437,3.0707,3.084,0.0,0.0,3.099,0.0,0.0,0.0,0.0,0.0,0.0,0.0,0.0,0.0,0.0,0.0,0.0,0.0,3.1676,0.0,0.0,3.0992,3.0992,3.0992,3.0992,3.0992,3.0992,3.0992,3.0992,3.0992,3.0992,3.0992,3.0992,3.1009,3.1503,3.1719,3.1771,3.2934,3.344,3.365,3.526,3.5992,3.6175,3.6776,3.7366,3.79,3.79,3.8214,3.8542,3.8124,3.8646,3.9378,3.8803,3.9012,3.9482,3.9326,3.917,3.9017,3.8941,3.9111,3.9149,3.8483,3.8638,3.8652,3.7409,0.0,3.6996,3.6605,0.0,3.6443,3.6569,0.0,0.0,3.6745,3.8391,3.9584,3.922,4.0512,4.149,4.149,4.1453,4.1428,4.1503,4.1453,4.1428,4.1503,4.149,4.149,4.149,4.149,4.1742,4.2274,4.2299,4.2526,4.2989,4.3014,4.3014,4.3014,4.2939,4.2939,4.2975,4.2436,4.2224,4.2274,4.1793,4.2431,4.3765,4.3427,4.4432,4.6225,4.6261,4.6286,4.6286,4.6225,4.5899,4.5487,3.0896,3.0953,0.0,0.0,3.0992,3.0992,0.0,0.0,0.0,0.0,0.0,0.0,0.0,0.0,0.0,0.0,0.0,3.194,0.0,0.0,0.0,0.0,3.1313,3.133,3.1018,3.0992,3.0992,3.0992,3.0992,3.0992,3.0992,3.0992,3.0992,3.1009,3.1546,3.1797,3.1876,3.3091,3.378,3.4188,3.5547,3.6305,3.6698,3.7299,3.7691,3.79,3.79,3.8228,3.8672,3.8437,3.9117,4.0031,3.977,3.9874,4.0057,4.0057,3.9641,3.9164,3.9018,3.8955,3.88,3.8287,3.8352,3.8302,3.7398,3.7198,3.7135,3.6909,0.0,0.0,0.0,0.0,0.0,0.0,3.7436,3.8278,3.8379,3.8956,3.9872,4.1138,4.075,4.0362,4.0362,4.0926,4.1289,4.1289,4.1289,4.1289,4.1289,4.1289,4.1592,4.2174,4.2199,4.2299,4.2537,4.2838,4.2838,4.2551,4.2838,4.3014,4.2989,4.2763,4.2663,4.2663,4.2735,4.3148,4.384,4.4281,4.501,4.5874,4.6175,4.6286,4.6286,4.6286,4.6175,4.5974,0.0,0.0,0.0,0.0,3.0992,3.0992,3.0992,3.1846,3.2297,3.185,3.248,0.0,3.3545,3.3336,0.0,0.0,3.3388,3.2751,0.0,0.0,3.1546,0.0,0.0,0.0,3.1018,3.0992,3.0992,3.0992,3.0992,3.0992,3.0992,3.0992,3.0992,3.1035,3.1738,3.2042,3.213,3.3483,3.4303,3.4737,3.5887,3.6724,3.7287,3.7743,3.79,3.79,3.79,3.8228,3.8698,3.8698,3.9456,4.0397,4.0397,4.0515,4.0594,4.0376,3.9959,3.9469,3.9057,3.885,3.8717,3.8504,3.8366,3.814,3.7751,3.755,3.7424,3.7424,3.6772,0.0,0.0,0.0,3.6284,3.6557,0.0,3.7487,3.7739,3.7789,3.8429,4.0198,3.9835,3.9534,3.9685,4.0412,4.08,4.065,4.0625,4.0625,4.0625,4.0625,4.0978,4.1708,4.1884,4.1959,4.1959,4.2663,4.2738,4.2199,4.2738,4.3014,4.3014,4.3014,4.3014,4.3025,4.3402,4.3664,4.3865,4.4694,4.5121,4.5296,4.5874,4.6075,4.61,4.625,4.6286,4.6286,3.0992,3.0992,0.0,0.0,3.0992,3.0992,3.0992,3.1477,3.1823,3.1797,3.2845,3.3571,0.0,0.0,0.0,0.0,0.0,3.3571,3.3535,0.0,3.1546,0.0,0.0,3.1018,0.0,3.0992,3.0992,3.0992,3.0992,3.0992,3.0992,3.0992,3.0992,3.1044,3.2159,3.2682,3.2777,3.4502,3.526,3.5365,3.6504,3.7325,3.7874,3.79,3.79,3.79,3.79,3.8228,3.8698,3.8698,3.9456,4.0397,4.0397,4.0815,4.1117,4.0333,4.028,4.0287,3.9486,3.9474,3.966,3.966,3.9258,3.8869,3.8843,3.8404,3.7977,3.7977,3.7952,3.7939,3.7939,3.7927,3.7764,0.0,3.7613,0.0,0.0,3.7235,3.7449,3.804,3.858,3.9145,3.9647,3.9722,3.9534,3.9019,3.8969,3.8969,3.8969,3.8969,3.9459,4.0512,4.1051,4.1314,4.1314,4.2434,4.2738,4.2199,4.2738,4.3014,4.3014,4.3014,4.3014,4.3014,4.3014,4.3327,4.379,4.384,4.4152,4.4704,4.5296,4.5537,4.5587,4.6125,4.6286,4.6286,0.0,0.0,0.0,0.0,3.0992,3.1113,3.1487,3.2035,3.2662,3.342,3.3875,3.458,3.573,3.5652,3.5783,3.6384,3.5391,3.4565,3.4173,3.3394,0.0,3.2159,0.0,3.2359,3.1555,3.1529,3.1356,3.0992,3.0992,3.0992,3.0992,3.0992,3.0992,3.1035,3.2185,3.2708,3.2803,3.4565,3.5495,3.594,3.7116,3.7915,3.8385,3.8031,3.79,3.79,3.79,3.8228,3.8751,3.9169,3.9796,4.0475,4.0867,4.1155,4.1209,4.0763,4.0565,4.0402,3.9944,3.9764,3.9609,3.9258,3.9283,3.9233,3.8479,3.8454,3.8479,3.809,3.8002,3.8002,3.8002,3.8002,3.7814,0.0,0.0,3.7274,0.0,3.6669,3.6745,3.6909,3.809,3.8969,3.9132,3.917,3.9095,3.8919,3.8529,3.8479,3.8869,3.8894,3.9383,4.0462,4.1026,4.1138,4.0775,4.2233,4.2523,4.1617,4.2548,4.3014,4.3014,4.3014,4.3014,4.3014,4.3014,4.3101,4.3302,4.3639,4.3915,4.4166,4.5135,4.5512,4.5562,4.61,4.6286,4.6286,3.1035,0.0,0.0,3.0992,3.1156,3.1408,3.1745,3.2662,3.3571,3.4293,3.4737,3.5521,3.6843,3.6645,3.666,3.7273,3.6462,3.5574,3.4763,3.4199,3.3535,3.2735,3.3074,3.2908,3.213,3.213,3.1852,3.1278,3.1278,3.1192,3.0992,3.0992,3.1113,3.1339,3.229,3.2813,3.3127,3.4842,3.5783,3.6201,3.7392,3.8109,3.8385,3.8019,3.8031,3.8161,3.7978,3.8228,3.8777,3.9416,3.9953,4.0501,4.1102,4.1223,4.1084,4.0613,4.0542,4.0491,3.9854,3.9826,3.9861,3.9321,3.9434,3.9509,3.8768,3.8906,3.9057,3.8693,3.8592,3.8542,3.8354,3.8316,3.8065,0.0,0.0,0.0,0.0,3.6256,3.6393,3.6406,3.7675,3.858,3.858,3.8768,3.8718,3.8316,3.7952,3.7965,3.8555,3.858,3.9082,4.0186,4.0738,4.075,4.0211,4.187,4.2247,4.1314,4.2459,4.3014,4.3014,4.3014,4.3014,4.3014,4.3014,4.3014,4.3039,4.3578,4.3689,4.3653,4.4985,4.5386,4.5271,4.601,4.6286,4.6286,3.1113,3.1009,3.1035,3.1087,3.1451,3.1797,3.1876,3.3316,3.4397,3.4476,3.5443,3.6384,3.6985,3.7026,3.7273,3.7848,3.7351,3.6541,3.5443,3.4816,3.4016,3.2918,3.2865,3.2839,3.2787,3.2787,3.2489,3.185,3.1823,3.1529,3.1035,3.1009,3.1287,3.1823,3.2427,3.3048,3.3754,3.5391,3.6138,3.6305,3.7456,3.7926,3.7952,3.7926,3.8254,3.8672,3.8124,3.8266,3.8803,3.943,3.9979,4.0501,4.1102,4.111,4.0755,3.9963,4.0262,4.0589,3.9297,3.9672,4.0337,3.9823,3.9697,3.9697,3.9697,3.9697,3.9697,3.9697,3.9697,3.9534,3.8994,3.8894,3.8517,0.0,0.0,0.0,3.567,3.6006,3.6381,3.6346,3.73,3.7965,3.8002,3.8504,3.8366,3.7274,3.7185,3.7399,3.7965,3.8002,3.8517,3.9647,4.0211,4.0275,3.9747,4.1356,4.187,4.1364,4.2434,4.2975,4.3014,4.3014,4.3014,4.3014,4.3014,4.3014,4.3039,4.3539,4.3452,4.3151,4.4809,4.5146,4.483,4.5909,4.6286,4.6286,3.1113,3.133,3.1738,3.2185,3.1689,3.1653,3.2934,3.3509,3.4241,3.5495,3.6305,3.7011,3.7612,3.7665,3.7743,3.79,3.7351,3.6881,3.6593,3.5992,3.5547,3.5234,3.5234,3.4816,3.3979,3.3953,3.3456,3.2463,3.2016,3.1719,3.1582,3.1192,3.1287,3.1823,3.2427,3.3257,3.4277,3.5547,3.6619,3.7444,3.7769,3.8135,3.8437,3.8057,3.8527,3.9299,3.871,3.8568,3.8855,3.9848,4.0292,4.0501,4.1102,4.111,4.0832,4.0426,4.0313,4.0197,3.9636,3.971,3.9873,3.9722,3.9697,3.9697,3.9697,3.9697,3.9697,3.9697,3.9697,3.9534,3.8994,3.8894,3.8517,3.7386,3.6859,3.6344,3.5583,3.6006,3.623,3.577,3.6722,3.7563,3.7965,3.7776,3.7512,3.7223,3.6833,3.7009,3.7952,3.8002,3.8517,3.9647,4.0211,4.0437,4.03,4.1115,4.1681,4.1984,4.2274,4.2612,4.3014,4.3014,4.3014,4.3014,4.3014,4.3014,4.3014,4.3151,4.3126,4.3126,4.4353,4.5257,4.5909,4.6185,4.6286,4.6286,3.146,3.18,3.2375,3.2986,3.2761,3.2918,3.4136,3.4345,3.4868,3.6294,3.6802,3.7142,3.7482,3.7743,3.79,3.79,3.7586,3.7273,3.7011,3.6686,3.6384,3.6123,3.6096,3.5678,3.4816,3.4789,0.0,3.3101,3.248,3.2068,3.1797,3.1261,3.1418,3.2208,3.2542,3.3326,3.4476,3.5626,3.6802,3.79,3.79,3.8083,0.0,3.8019,3.8437,3.9195,3.9117,3.9247,3.9535,4.0188,4.058,4.0841,4.1207,4.1034,4.0694,4.0529,4.0389,4.0181,3.9786,3.9873,3.9998,3.976,3.9697,3.9697,3.9697,3.9697,3.9697,3.9697,3.9697,3.9534,3.8994,3.8894,3.8517,3.7386,3.6758,3.6281,3.5956,3.6205,3.6256,3.5931,3.647,3.6959,3.7274,3.7248,3.7098,3.6859,3.6795,3.711,3.7965,3.8241,3.8793,3.9672,4.0437,4.0725,4.0512,4.1542,4.2096,4.2199,4.245,4.2713,4.3014,4.3014,4.3014,4.3014,4.3014,4.3014,4.3014,4.3014,4.3014,4.3115,4.4177,4.5307,4.6286,4.6286,4.6286,4.6286,3.2146,3.2506,3.3101,3.3613,3.4214,3.4842,3.5532,3.5626,3.6018,3.709,3.7287,3.7314,3.7235,3.7691,3.7978,3.7926,3.79,3.7691,3.7168,3.7116,3.6881,3.6358,3.6332,3.6096,3.5521,3.5454,3.4852,3.3692,3.3022,3.2401,3.1797,3.1261,3.161,3.2708,3.2708,3.3414,3.4685,3.5757,3.6881,3.79,3.79,3.79,3.79,3.79,3.828,3.8881,3.9404,3.9953,4.0423,4.0501,4.0867,4.1299,4.1274,4.0896,4.0504,4.0453,4.0412,4.0287,3.9823,4.0049,4.0287,3.9823,3.9697,3.9697,3.9697,3.9697,3.9697,3.9697,3.9697,3.9534,3.8994,3.8843,3.8467,3.7475,3.6909,3.6619,3.6619,3.6619,3.6594,3.6519,3.6494,0.0,3.6393,3.6884,3.7009,3.6544,3.6934,3.7424,3.7965,3.8504,3.9032,3.9584,4.0638,4.1001,4.06,4.2057,4.2612,4.2299,4.2713,4.2925,4.3014,4.3014,4.3014,4.3014,4.3014,4.3014,4.3014,4.3014,4.3076,4.3302,4.4227,4.5307,4.6286,4.6286,4.6286,4.6311,3.33,3.3728,3.4146,3.4241,3.5129,3.6175,3.7273,3.7456,3.7691,3.8318,3.8829,3.8972,3.8463,3.8501,3.8385,3.7952,3.79,3.7874,3.7743,3.7743,3.7691,3.7586,3.7575,3.7299,3.6724,3.6216,3.5391,3.4267,3.3205,3.2401,3.1797,3.1261,3.161,3.2708,3.2708,3.3859,3.5861,3.6541,3.7246,3.79,3.79,3.79,3.79,3.79,3.8542,3.9456,3.9561,3.9953,4.0475,4.0959,4.1207,4.1274,4.1034,4.0744,4.0453,4.0236,4.0005,3.9823,3.9735,3.9772,3.9823,3.9722,3.9697,3.9697,3.9697,3.9697,3.9697,3.9697,3.9697,3.9534,3.8994,3.8504,3.809,3.7889,3.7789,3.7713,3.7713,3.7713,3.755,3.7098,3.706,3.6884,3.6443,3.6884,3.7148,3.706,3.716,3.7424,3.7965,3.809,3.8429,3.9019,4.0086,4.08,4.1177,4.1453,4.2019,4.2864,4.25,4.2576,4.3014,4.3014,4.3014,4.3014,4.3014,4.3014,4.3014,4.3014,4.3528,4.4328,4.4529,4.5307,4.6286,4.6286,4.6286,4.6361,3.4842,3.4868,3.5051,3.5652,3.6462,3.7314,3.8176,3.9064,3.943,3.8777,3.8437,3.8254,3.828,3.8292,3.828,3.8306,3.8057,3.79,3.79,3.79,3.79,3.79,3.79,3.7612,3.7011,3.641,3.5693,3.4868,3.3728,3.2855,3.2261,3.1993,3.2159,3.2735,3.331,3.4528,3.6123,3.641,3.7063,3.79,3.79,3.79,3.7926,3.8202,3.8855,3.9639,3.9927,4.0397,4.0919,4.1207,4.1198,4.1072,4.0946,4.0618,4.0275,4.0147,3.9904,3.9697,3.9697,3.9697,3.9697,3.9697,3.9697,3.9697,3.9697,3.9697,3.9697,3.9697,3.9697,3.9635,3.9358,3.8856,3.8479,3.8479,3.8191,3.8002,3.8002,3.8002,3.7789,3.7248,3.7198,3.711,3.6833,3.7299,3.7374,3.6845,3.7299,3.7613,3.76,3.8417,3.8906,3.8894,4.0514,4.1354,4.1289,4.2155,4.2721,4.3014,4.2738,4.2738,4.3014,4.3014,4.3014,4.3014,4.3014,4.3014,4.3025,4.3302,4.389,4.4629,4.493,4.5558,4.6286,4.6286,4.6286,4.6386,3.6201,3.6044,3.6149,3.7026,3.7795,3.8385,3.8829,4.0162,4.0658,3.943,3.8463,3.8097,3.8568,3.8423,3.8385,3.8672,3.8202,3.79,3.79,3.79,3.79,3.79,3.79,3.7691,3.7194,3.6477,3.5835,3.5286,3.4173,3.3231,3.2515,3.2656,3.2761,3.2944,3.4084,3.5155,3.6123,3.6253,3.6907,3.79,3.79,3.7978,3.8109,3.8542,3.9143,3.9822,4.024,4.0789,4.1311,4.1311,4.1122,4.0883,4.0782,4.0453,4.0096,4.0032,3.9865,3.9697,3.9697,3.9697,3.9697,3.9697,3.9697,3.9697,3.9697,3.9697,3.9697,3.9697,3.9697,3.9697,3.9697,3.9358,3.907,3.907,3.868,3.8354,3.8354,3.8354,3.8115,3.7449,3.7374,3.7274,3.7048,3.7424,3.7349,3.6619,3.7449,3.7814,3.7399,3.863,3.9157,3.8718,4.0753,4.1669,4.1289,4.2721,4.3302,4.3014,4.3014,4.3014,4.3014,4.3014,4.3014,4.3014,4.3014,4.3051,4.3201,4.374,4.4278,4.483,4.5296,4.5824,4.6286,4.6286,4.6286,4.6386,3.6907,3.7325,3.7691,3.7795,3.8736,3.9456,3.9508,4.0083,4.0632,4.0998,4.0972,4.0919,4.0972,4.0057,3.9247,3.8751,3.8202,3.79,3.79,3.79,3.79,3.79,3.79,3.7874,3.7821,3.6698,3.5835,3.5286,3.4173,3.3002,3.1902,3.2427,3.2996,3.3571,3.4711,3.5547,3.6149,3.6686,3.7299,3.79,3.79,3.8176,3.862,3.8672,3.9378,4.0345,4.0397,4.0789,4.1311,4.1311,4.1122,4.0833,4.0338,4.0147,4.0057,3.9826,3.9723,3.9697,3.9697,3.9697,3.9697,3.9697,3.9697,3.9697,3.9697,3.9697,3.9697,3.9697,3.9697,3.9697,3.9697,3.966,3.9635,3.9635,3.9584,3.9546,3.9546,3.9546,3.9145,3.8053,3.7939,3.7538,3.6569,3.6519,3.6708,3.711,3.7663,3.799,3.7939,3.8065,3.814,3.809,3.9759,4.0864,4.1289,4.1996,4.2576,4.3014,4.3014,4.3014,4.3014,4.3014,4.3014,4.3014,4.3014,4.3277,4.3765,4.4303,4.4895,4.5437,4.5487,4.5824,4.6286,4.6286,4.6286,4.6386,3.7534,3.7732,3.8109,3.8803,3.9561,4.0083,4.0083,4.088,4.1441,4.1311,4.071,4.0397,4.0737,3.9744,3.9117,3.9221,3.8423,3.79,3.79,3.79,3.79,3.79,3.79,3.79,3.79,3.7063,3.6358,3.5783,3.4999,3.4031,3.2898,3.3456,3.4031,3.4659,3.5443,3.6096,3.6671,3.6907,3.7351,3.7926,3.8266,3.8527,3.8777,3.9456,4.0005,4.0449,4.0815,4.1102,4.1261,4.0934,4.0744,4.0618,4.0402,4.0109,3.9826,3.9736,3.9697,3.9697,3.9697,3.9697,3.9697,3.9697,3.9697,3.9697,3.9697,3.9697,3.9697,3.9697,3.9697,3.9697,3.9697,3.9697,3.9697,3.9697,3.9697,3.9697,3.9697,3.9697,3.927,3.814,3.8002,3.7713,3.6959,3.6884,3.7261,3.814,3.809,3.8002,3.8002,3.8642,3.8868,3.8555,4.0136,4.1088,4.1289,4.2222,4.2788,4.3014,4.3014,4.3014,4.3014,4.3014,4.3176,4.3503,4.3815,4.4077,4.4328,4.4895,4.5271,4.5537,4.5849,4.6125,4.6286,4.6286,4.6286,4.6336,3.8553,3.8632,3.8881,3.9691,4.058,4.0998,4.0475,4.1559,4.2173,4.139,4.0606,4.024,4.0632,3.9482,3.8881,3.9299,3.8475,3.79,3.79,3.79,3.79,3.79,3.79,3.79,3.79,3.7299,3.6802,3.6358,3.5652,3.4789,3.3833,3.4214,3.4816,3.5547,3.6123,3.6582,3.7011,3.7194,3.7508,3.7915,3.8306,3.8672,3.9038,3.9848,4.0371,4.0737,4.1155,4.1261,4.111,4.0744,4.0504,4.0364,4.03,4.0006,3.9697,3.9697,3.9697,3.9697,3.9697,3.9697,3.9697,3.9697,3.9697,3.9697,3.9697,3.9697,3.9697,3.9697,3.9697,3.9697,3.9697,3.9697,3.9697,3.9697,3.9697,3.9697,3.9697,3.9697,3.9346,3.8366,3.8266,3.7977,3.7274,3.7198,3.7525,3.8341,3.814,3.809,3.8253,3.9032,3.9283,3.8894,4.0312,4.1138,4.1289,4.2258,4.2838,4.3014,4.3014,4.3076,4.3226,4.3402,4.3689,4.4066,4.4629,4.4855,4.4905,4.5497,4.5738,4.5773,4.6135,4.6286,4.6286,4.6286,4.6286,4.6286,4.0031,4.0371,4.0371,4.0397,4.1834,4.2396,4.0658,4.1874,4.2579,4.1442,4.1285,4.1285,4.1285,3.9744,3.8698,3.8698,3.8202,3.79,3.79,3.79,3.79,3.79,3.79,3.79,3.79,3.7299,3.7011,3.6985,3.5861,3.4972,3.4397,3.4397,3.4999,3.6123,3.6724,3.6985,3.7037,3.7639,3.79,3.79,3.7926,3.8568,3.9587,3.9613,4.0318,4.1285,4.1311,4.1122,4.0909,4.0909,4.0529,4.007,3.98,3.971,3.9697,3.9697,3.9697,3.9697,3.9697,3.9697,3.9697,3.9697,3.9697,3.9697,3.9697,3.9697,3.9697,3.9697,3.9697,3.9697,3.9697,3.9697,3.9697,3.9697,3.9697,3.9697,3.9697,3.9697,3.9509,3.8944,3.8894,3.8441,3.7299,3.7198,3.7198,3.7235,3.7688,3.8266,3.8843,3.8894,3.8894,3.8894,3.9948,4.075,4.1289,4.1895,4.2475,4.3014,4.3014,4.3277,4.3815,4.4328,4.4564,4.4614,4.5221,4.5487,4.5537,4.6075,4.6286,4.6286,4.6286,4.6286,4.6286,4.6286,4.6286,4.6286,3.8606,3.9613,4.0292,3.9927,4.1599,4.2553,4.1233,4.1821,4.2173,4.139,4.0946,4.0554,4.0188,3.9273,3.8867,3.9273,3.8449,3.79,3.79,3.79,3.79,3.79,3.79,3.79,3.79,3.7717,3.7392,3.7011,3.6645,3.6149,3.5574,3.5992,3.6358,3.675,3.7351,3.7612,3.7639,3.7821,3.8097,3.8463,3.8881,3.9494,4.0188,4.0606,4.0998,4.1286,4.1085,4.0972,4.0858,4.0491,4.0249,4.0057,3.9787,3.9697,3.9697,3.9697,3.9697,3.9697,3.9697,3.9697,3.9697,3.9697,3.9697,3.9697,3.9697,3.9697,3.9697,3.9697,3.9697,3.9697,3.9697,3.9697,3.9697,3.9697,3.9697,3.9697,3.9697,3.9697,3.9509,3.8969,3.8894,3.8592,3.7814,3.7739,3.7927,3.8341,3.8517,3.8693,3.8894,3.9245,3.9434,3.9434,4.0487,4.1127,4.1289,4.2258,4.2838,4.3,4.3377,4.384,4.4378,4.4945,4.5221,4.5246,4.5799,4.605,4.6075,4.6225,4.6286,4.6286,4.6286,4.6286,4.6336,4.6712,4.6612,4.6386,3.8437,3.9535,4.0292,3.9953,4.1625,4.2618,4.1468,4.1977,4.2213,4.1416,4.0959,4.0606,4.0266,3.9326,3.8777,3.8945,3.8306,3.79,3.79,3.79,3.79,3.79,3.79,3.79,3.79,3.79,3.7717,3.7351,3.7116,3.6802,3.6436,3.6828,3.7116,3.7351,3.7743,3.79,3.7926,3.8097,3.8385,3.8751,3.9352,3.9927,4.0449,4.0815,4.1102,4.1274,4.0997,4.0846,4.0681,4.0249,4.0032,3.9916,3.9762,3.9697,3.9697,3.9697,3.9697,3.9697,3.9697,3.9697,3.9697,3.9697,3.9697,3.9697,3.9697,3.9697,3.9697,3.9697,3.9697,3.9697,3.9697,3.9697,3.9697,3.9697,3.9697,3.9697,3.9697,3.9697,3.9584,3.9233,3.9183,3.8956,3.8391,3.8341,3.8404,3.8555,3.8969,3.912,3.8894,3.9409,3.9798,3.9998,4.0851,4.1403,4.1642,4.2735,4.3302,4.3302,4.4066,4.4618,4.4955,4.5547,4.5799,4.5824,4.6135,4.6286,4.6286,4.6286,4.6286,4.6286,4.6286,4.6411,4.6622,4.6973,4.6898,4.6712,3.9378,4.0109,4.0528,4.0528,4.1912,4.2644,4.152,4.2226,4.2501,4.1442,4.1311,4.1285,4.1247,3.9796,3.8594,3.8057,3.7978,3.7952,3.7952,3.7993,3.8031,3.8031,3.8031,3.8031,3.8031,3.8031,3.8031,3.8031,3.7377,3.709,3.7116,3.7116,3.7429,3.7952,3.7952,3.7952,3.8004,3.8489,3.8725,3.8803,3.9404,3.9979,4.0475,4.0475,4.0815,4.1274,4.0984,4.0707,4.0453,4.0173,3.9904,3.9697,3.9697,3.9697,3.9697,3.9697,3.9697,3.9697,3.9697,3.9697,3.9697,3.9697,3.9697,3.9697,3.9697,3.9722,3.9747,3.971,3.976,3.9798,3.9697,3.9722,3.9747,3.971,3.9697,3.9697,3.9697,3.9697,3.9697,3.9697,3.9697,3.9509,3.8994,3.8944,3.8705,3.8153,3.9094,3.9509,3.9044,3.9509,4.0023,4.0487,4.1051,4.1656,4.2249,4.3277,4.384,4.394,4.4985,4.5512,4.5587,4.606,4.6286,4.6286,4.6286,4.6286,4.6286,4.6286,4.6286,4.6286,4.6286,4.6637,4.7099,4.7099,4.7124,4.7174,3.9456,4.0775,4.1767,4.1767,4.2448,4.2775,4.2095,4.1821,4.1599,4.1338,4.1311,4.1116,4.0658,4.0228,3.977,3.9247,3.8789,3.8516,3.8516,3.8934,3.9195,3.9195,3.9195,3.9195,3.9195,3.9195,3.9195,3.9195,3.8176,3.79,3.8306,3.8306,3.8359,3.8516,3.8516,3.8516,3.8516,3.8646,3.896,3.943,3.9979,4.0554,4.1102,4.1102,4.1181,4.1249,4.0757,4.0542,4.044,3.9942,3.9762,3.9697,3.9697,3.9697,3.9697,3.9697,3.9697,3.9697,3.9697,3.9697,3.9697,3.9697,3.9697,3.9697,3.9697,4.0023,4.0186,3.9772,4.0337,4.0675,3.9848,4.0036,4.0186,3.9785,3.9697,3.9697,3.9697,3.9697,3.9697,3.9697,3.9697,3.9647,3.9534,3.9509,3.9459,3.9295,3.9559,3.9823,4.0124,4.0638,4.0775,4.0512,4.1468,4.2261,4.2813,4.3478,4.4242,4.511,4.5386,4.5698,4.611,4.6235,4.6286,4.6286,4.6286,4.6286,4.6286,4.6286,4.6286,4.6286,4.6286,4.6637,4.7099,4.7099,4.735,4.7767,3.9848,4.118,4.2264,4.2513,4.2605,4.2618,4.2579,4.1847,4.1311,4.1311,4.1311,4.1181,4.0841,4.058,4.0292,3.9979,3.943,3.9117,3.9117,3.943,3.9587,3.9587,3.9587,3.9587,3.9587,3.9587,3.9587,3.9587,3.8986,3.8829,3.9117,3.9117,3.9117,3.909,3.8829,3.8855,3.9117,3.9117,3.943,4.0031,4.058,4.1024,4.1311,4.1311,4.121,4.106,4.0643,4.0415,4.0249,3.9852,3.9697,3.9697,3.9697,3.9697,3.9697,3.9697,3.9697,3.9697,3.9697,3.9697,3.9697,3.9697,3.9697,3.9747,4.0023,4.0287,4.0487,4.0437,4.0901,4.1113,4.0538,4.0462,4.0412,4.0111,3.9848,3.9697,3.9697,3.9697,3.9697,3.9697,3.9697,3.9798,4.0049,4.0074,4.0074,4.0074,4.0287,4.0563,4.0851,4.1642,4.1943,4.1656,4.2473,4.3176,4.374,4.4543,4.5246,4.5874,4.6351,4.6627,4.6672,4.6913,4.6888,4.6687,4.6687,4.6687,4.6687,4.6687,4.6813,4.7014,4.7014,4.738,4.7883,4.7883,4.8058,4.8375,4.0423,4.1441,4.2369,4.2905,4.2565,4.2343,4.2801,4.1991,4.1311,4.1311,4.1311,4.1311,4.1311,4.0841,4.0528,4.0528,4.0109,3.9822,3.9718,3.9796,3.9848,3.9848,3.9848,3.9848,3.9848,3.977,3.977,3.9848,3.9665,3.9639,3.9718,3.9718,3.9718,3.9691,3.9195,3.9247,3.9718,3.9718,3.9979,4.0449,4.105,4.1311,4.1311,4.1274,4.1097,4.0871,4.0542,4.0287,4.007,3.98,3.9697,3.9697,3.9697,3.9697,3.9697,3.9697,3.9697,3.9697,3.9697,3.9697,3.9735,3.9798,3.9823,3.9948,4.0387,4.0638,4.0864,4.1214,4.1453,4.149,4.1339,4.0926,4.0575,4.0499,4.0049,3.9697,3.9697,3.9697,3.9722,3.9798,3.9823,4.0023,4.0575,4.0625,4.0625,4.0625,4.1127,4.1478,4.1553,4.2635,4.3277,4.3377,4.374,4.4227,4.4855,4.5909,4.6461,4.6537,4.7465,4.7666,4.7224,4.7691,4.7616,4.7083,4.7199,4.7174,4.7124,4.7199,4.749,4.7908,4.7908,4.8275,4.8793,4.8718,4.8777,4.8919,4.1038,4.1729,4.2369,4.2905,4.2565,4.2212,4.2317,4.1742,4.1311,4.1311,4.1311,4.1311,4.1311,4.1233,4.1155,4.1155,4.1076,4.0815,4.0318,4.0763,4.105,4.105,4.105,4.105,4.105,4.0528,4.0528,4.105,4.0083,3.9822,4.0292,4.0292,4.0292,4.0266,4.0188,4.0188,4.0292,4.0292,4.0318,4.0449,4.105,4.1311,4.1286,4.1047,4.0946,4.0846,4.0351,4.0147,4.007,3.98,3.9697,3.9697,3.9697,3.9697,3.9697,3.9697,3.9697,3.9697,3.9697,3.9697,3.9798,4.0261,4.0387,4.0387,4.0487,4.1242,4.1833,4.1378,4.2069,4.2434,4.1478,4.1214,4.1026,4.0575,4.0049,3.9697,3.9697,3.9697,3.9873,4.0312,4.0387,4.0588,4.1113,4.1177,4.1177,4.1177,4.1744,4.2261,4.2699,4.375,4.4593,4.511,4.4704,4.498,4.6035,4.6647,4.7199,4.7641,4.7817,4.7857,4.7767,4.7867,4.7616,4.7124,4.7591,4.7516,4.7149,4.7591,4.7817,4.7908,4.7908,4.8275,4.8743,4.8225,4.8636,4.9405,4.1676,4.2239,4.2709,4.2958,4.2565,4.2199,4.2199,4.169,4.1311,4.1311,4.1311,4.1311,4.1311,4.1311,4.1311,4.1311,4.1311,4.1181,4.0893,4.1155,4.1311,4.1311,4.1311,4.1311,4.1311,4.1024,4.1024,4.1311,4.0763,4.0632,4.0893,4.0554,4.0397,4.0397,4.0109,4.0136,4.0397,4.0397,4.058,4.0919,4.1207,4.1198,4.1072,4.0959,4.0732,4.0453,4.0198,4.0006,3.9865,3.9749,3.9697,3.9697,3.9697,3.9697,3.9697,3.9697,3.9697,3.9697,3.9697,3.9697,3.9823,4.0362,4.0512,4.0663,4.1292,4.1808,4.2199,4.2208,4.2649,4.2824,4.2308,4.1704,4.1327,4.1393,4.0463,3.9798,4.0099,4.0136,4.0211,4.0462,4.1028,4.1644,4.2144,4.247,4.2646,4.2646,4.2886,4.3302,4.384,4.4328,4.5006,4.5899,4.5934,4.6195,4.6737,4.7606,4.7983,4.7908,4.8535,4.8661,4.84,4.8686,4.8535,4.8033,4.8275,4.8234,4.8033,4.8275,4.8576,4.8812,4.8812,4.8987,4.9204,4.8912,4.9138,4.9565,4.1886,4.2317,4.2605,4.2605,4.2382,4.2134,4.2003,4.1729,4.1442,4.1311,4.1311,4.1311,4.1311,4.1311,4.1311,4.1311,4.1311,4.1311,4.1311,4.1311,4.1311,4.1311,4.1311,4.1311,4.1311,4.1311,4.1311,4.1311,4.1311,4.1311,4.1285,4.0841,4.0606,4.058,4.0188,4.0214,4.0606,4.0606,4.0893,4.1299,4.1223,4.1085,4.0896,4.077,4.0466,4.0096,4.0032,3.9865,3.9697,3.9697,3.9697,3.9697,3.9697,3.9697,3.9697,3.9697,3.9697,3.9747,3.9998,3.9973,4.0049,4.0727,4.0902,4.1128,4.1998,4.24,4.2688,4.3101,4.3277,4.3327,4.3201,4.237,4.1768,4.1959,4.0916,4.0161,4.0462,4.0727,4.0953,4.1065,4.1945,4.2788,4.3327,4.374,4.3991,4.3991,4.4116,4.4367,4.478,4.493,4.5457,4.6461,4.6873,4.7224,4.749,4.8375,4.8626,4.8309,4.9188,4.938,4.9003,4.9414,4.9305,4.8818,4.8944,4.8919,4.8818,4.8928,4.9229,4.959,4.959,4.959,4.959,4.959,4.959,4.959,4.1364,4.139,4.1442,4.1442,4.1859,4.2003,4.1442,4.1807,4.1912,4.1364,4.1311,4.1311,4.1311,4.1311,4.1311,4.1311,4.1311,4.1311,4.1311,4.1311,4.1311,4.1311,4.1311,4.1311,4.1311,4.1311,4.1311,4.1311,4.1311,4.1311,4.1311,4.1259,4.1221,4.1233,4.1207,4.1207,4.1221,4.1221,4.1259,4.1286,4.1034,4.0921,4.0858,4.0364,4.0134,4.007,3.9814,3.9723,3.9697,3.9697,3.9697,3.9697,3.9697,3.9697,3.9697,3.9697,3.9697,3.9923,4.0926,4.0826,4.0688,4.1783,4.2073,4.2098,4.2174,4.2964,4.3689,4.374,4.4127,4.4328,4.384,4.3277,4.2534,4.1528,4.1264,4.1026,4.0549,4.1418,4.2274,4.2763,4.3327,4.389,4.4428,4.4529,4.4539,4.4539,4.507,4.5386,4.5437,4.5884,4.6436,4.7023,4.7074,4.7616,4.8652,4.8768,4.9028,4.948,4.9565,4.9581,4.954,4.9565,4.9305,4.8818,4.933,4.9254,4.8843,4.933,4.9565,4.959,4.959,4.959,4.959,4.959,4.959,4.959,4.1311,4.1311,4.1311,4.1311,4.1507,4.169,4.1833,4.1755,4.169,4.1833,4.1533,4.1311,4.1311,4.1311,4.1311,4.1311,4.1311,4.1311,4.1311,4.1311,4.1311,4.1311,4.1311,4.1311,4.1311,4.1311,4.1311,4.1311,4.1311,4.1311,4.1285,4.0919,4.0737,4.0737,4.0737,4.0737,4.0763,4.1155,4.1198,4.1047,4.0946,4.0693,4.0364,4.0185,4.0006,3.9826,3.9749,3.9697,3.9697,3.9697,3.9697,3.9697,3.9697,3.9697,3.9697,3.9697,3.9697,3.9848,4.06,4.0663,4.0763,4.1922,4.2199,4.2299,4.2612,4.3014,4.3402,4.374,4.3966,4.4127,4.4278,4.3865,4.3463,4.336,4.2797,4.2409,4.2521,4.3565,4.4104,4.3562,4.4957,4.5753,4.5194,4.5457,4.5784,4.612,4.6346,4.6486,4.6486,4.6687,4.7214,4.8134,4.8159,4.8375,4.8793,4.9129,4.9405,4.959,4.959,4.959,4.959,4.959,4.9506,4.9305,4.9515,4.9464,4.9305,4.9531,4.959,4.959,4.959,4.959,4.959,4.959,4.959,4.959,4.1311,4.1311,4.1311,4.1311,4.1442,4.1664,4.1886,4.1729,4.1664,4.1886,4.1559,4.1311,4.1311,4.1311,4.1311,4.1311,4.1311,4.1311,4.1311,4.1311,4.1311,4.1311,4.1311,4.1311,4.1311,4.1311,4.1311,4.1311,4.1311,4.1311,4.1285,4.0893,4.0684,4.0684,4.0684,4.0684,4.0698,4.1041,4.1072,4.0896,4.0732,4.044,4.0096,4.0006,3.9852,3.9697,3.9697,3.9697,3.9697,3.9697,3.9697,3.9697,3.9697,3.9697,3.9722,3.9898,3.9948,4.0099,4.0827,4.1028,4.1217,4.1998,4.2436,4.2738,4.2964,4.3416,4.3829,4.4016,4.4342,4.4644,4.4855,4.4593,4.4342,4.4353,4.3951,4.3691,4.3779,4.4891,4.5362,4.4432,4.5908,4.666,4.5837,4.625,4.6712,4.7074,4.7249,4.735,4.735,4.7541,4.7983,4.8768,4.8953,4.9053,4.9053,4.943,4.959,4.959,4.959,4.959,4.959,4.959,4.959,4.959,4.959,4.959,4.959,4.959,4.959,4.959,4.959,4.959,4.959,4.959,4.959,4.959,4.1311,4.1311,4.1311,4.1311,4.1807,4.2003,4.139,4.1807,4.1977,4.139,4.1311,4.1311,4.1311,4.1311,4.1311,4.1311,4.1311,4.1311,4.1311,4.1311,4.1311,4.1311,4.1311,4.1311,4.1311,4.1311,4.1311,4.1311,4.1311,4.1311,4.1311,4.1311,4.1311,4.1311,4.1311,4.1311,4.1286,4.1009,4.0909,4.0858,4.03,4.0109,4.007,3.9813,3.9697,3.9697,3.9697,3.9697,3.9697,3.9697,3.9697,3.9697,3.9697,3.971,3.9798,4.0337,4.0512,4.0738,4.1897,4.2199,4.2199,4.2199,4.3014,4.3639,4.3126,4.4281,4.5321,4.4715,4.5508,4.6125,4.5598,4.5512,4.5135,4.3991,4.4551,4.4803,4.3933,4.503,4.5826,4.5542,4.5974,4.6301,4.6311,4.6772,4.7099,4.7124,4.7616,4.7908,4.7917,4.8476,4.8793,4.8818,4.933,4.959,4.959,4.959,4.959,4.959,4.959,4.959,4.959,4.959,4.959,4.959,4.959,4.959,4.959,4.959,4.959,4.959,4.959,4.959,4.959,4.959,4.959,4.959,4.1311,4.1311,4.1311,4.1311,4.1442,4.1638,4.1886,4.1729,4.1664,4.1886,4.1559,4.1311,4.1311,4.1311,4.1311,4.1311,4.1311,4.1311,4.1311,4.1311,4.1311,4.1311,4.1311,4.1311,4.1311,4.1311,4.1311,4.1311,4.1311,4.1311,4.1311,4.1311,4.1311,4.1311,4.1311,4.1185,4.1022,4.0946,4.0694,4.0313,4.0173,3.9993,3.9826,3.9736,3.9697,3.9697,3.9697,3.9697,3.9697,3.9697,3.9697,3.9785,4.0149,4.0261,4.0362,4.0901,4.1076,4.1127,4.1491,4.187,4.2299,4.2676,4.3014,4.3201,4.3039,4.3678,4.4367,4.4554,4.5221,4.5799,4.6024,4.6254,4.6217,4.5652,4.5965,4.6104,4.5627,4.6641,4.7111,4.6169,4.694,4.7389,4.6914,4.6998,4.744,4.8234,4.8451,4.8702,4.9063,4.8903,4.8978,4.9355,4.9515,4.959,4.959,4.959,4.959,4.959,4.959,4.959,4.959,4.959,4.959,4.959,4.959,4.959,4.959,4.959,4.959,4.959,4.959,4.959,4.959,4.959,4.959,4.959,4.1311,4.1311,4.1311,4.1311,4.1311,4.1416,4.1781,4.1533,4.1416,4.1807,4.1533,4.1311,4.1311,4.1311,4.1311,4.1311,4.1311,4.1311,4.1311,4.1311,4.1311,4.1311,4.1311,4.1311,4.1311,4.1311,4.1311,4.1311,4.1311,4.1311,4.1311,4.1311,4.1311,4.1311,4.1185,4.1047,4.0896,4.0681,4.0415,4.0096,3.9981,3.9826,3.9697,3.9697,3.9697,3.9697,3.9697,3.9697,3.9697,3.9697,3.9697,3.9798,4.0337,4.0512,4.0663,4.1416,4.1656,4.1692,4.1918,4.2247,4.2587,4.2914,4.3327,4.3528,4.3115,4.3754,4.4493,4.4579,4.507,4.5692,4.6365,4.6671,4.6731,4.6536,4.6968,4.7064,4.6411,4.7232,4.7583,4.6718,4.7255,4.7547,4.715,4.7516,4.8159,4.9053,4.9129,4.9254,4.9565,4.9305,4.928,4.959,4.959,4.959,4.959,4.959,4.959,4.959,4.959,4.959,4.959,4.959,4.959,4.959,4.959,4.959,4.959,4.959,4.959,4.959,4.959,4.959,4.959,4.959,4.959,4.959,4.1311,4.1311,4.1311,4.1311,4.1311,4.1311,4.1311,4.1311,4.1311,4.1311,4.1311,4.1311,4.1311,4.1311,4.1311,4.1311,4.1311,4.1311,4.1311,4.1311,4.1311,4.1311,4.1311,4.1311,4.1311,4.1311,4.1311,4.1311,4.1311,4.1311,4.1311,4.1311,4.1311,4.1299,4.1022,4.0896,4.0846,4.0326,4.0096,4.0045,3.9813,3.9697,3.9697,3.9697,3.9697,3.9697,3.9697,3.9697,3.9697,3.9697,3.9697,3.9798,4.0337,4.0538,4.0789,4.1897,4.2224,4.2375,4.2864,4.3014,4.3014,4.3014,4.3815,4.4328,4.3302,4.4281,4.5286,4.4809,4.5215,4.5872,4.6689,4.6851,4.6836,4.6806,4.7498,4.7636,4.6572,4.7106,4.7486,4.7175,4.7114,4.7124,4.7174,4.8209,4.9079,4.9565,4.959,4.959,4.959,4.959,4.959,4.959,4.959,4.959,4.959,4.959,4.959,4.959,4.959,4.959,4.959,4.959,4.959,4.959,4.959,4.959,4.959,4.959,4.959,4.959,4.959,4.959,4.959,4.959,4.959,4.9615,4.1311,4.1311,4.1311,4.1311,4.1311,4.1311,4.1311,4.1311,4.1311,4.1311,4.1311,4.1311,4.1311,4.1311,4.1311,4.1311,4.1311,4.1311,4.1311,4.1311,4.1311,4.1311,4.1311,4.1311,4.1311,4.1311,4.1311,4.1311,4.1311,4.1311,4.1311,4.1311,4.1311,4.1299,4.1022,4.0782,4.0555,4.0249,3.9981,3.9787,3.9723,3.9697,3.9697,3.9697,3.9697,3.9697,3.9697,3.9697,3.9697,3.9697,3.9697,3.9798,4.0337,4.0775,4.1277,4.1984,4.25,4.2838,4.2964,4.3014,4.3014,4.3014,4.3815,4.4428,4.379,4.4227,4.4953,4.5489,4.6119,4.6654,4.7042,4.7102,4.7038,4.6836,4.7125,4.7379,4.7334,4.7486,4.7577,4.7501,4.7267,4.7274,4.7691,4.8761,4.9464,4.959,4.959,4.959,4.959,4.959,4.959,4.959,4.959,4.959,4.959,4.959,4.959,4.959,4.959,4.959,4.959,4.959,4.959,4.959,4.959,4.959,4.959,4.959,4.959,4.959,4.959,4.959,4.959,4.959,4.959,4.9665,4.1311,4.1311,4.1311,4.1311,4.1311,4.1311,4.1311,4.1311,4.1311,4.1311,4.1311,4.1311,4.1311,4.1311,4.1311,4.1311,4.1311,4.1311,4.1311,4.1311,4.1311,4.1311,4.1311,4.1311,4.1311,4.1311,4.1311,4.1311,4.1311,4.1311,4.1311,4.1311,4.1223,4.1097,4.082,4.0555,4.0287,4.0019,3.9814,3.9697,3.9697,3.9697,3.9697,3.9697,3.9697,3.9697,3.9697,3.9697,3.9697,3.9697,3.9697,3.9798,4.0337,4.0876,4.1428,4.2009,4.2576,4.3014,4.3014,4.3176,4.3327,4.3051,4.3614,4.4127,4.3865,4.4443,4.5194,4.5779,4.6142,4.654,4.7095,4.7205,4.7102,4.6851,4.7467,4.7844,4.7425,4.7957,4.8231,4.7783,4.784,4.8134,4.8661,4.9028,4.933,4.9565,4.959,4.959,4.959,4.959,4.959,4.959,4.959,4.959,4.959,4.959,4.959,4.959,4.959,4.959,4.959,4.959,4.959,4.959,4.959,4.959,4.959,4.959,4.959,4.959,4.959,4.959,4.959,4.959,4.959,4.964,4.1311,4.1311,4.1311,4.1311,4.1311,4.1311,4.1311,4.1311,4.1311,4.1311,4.1311,4.1311,4.1311,4.1311,4.1311,4.1311,4.1311,4.1311,4.1311,4.1311,4.1311,4.1311,4.1311,4.1311,4.1311,4.1311,4.1311,4.1311,4.1235,4.1223,4.1223,4.1186,4.1034,4.082,4.0542,4.0313,4.0083,3.9826,3.9697,3.9697,3.9697,3.9697,3.9697,3.9697,3.9697,3.9697,3.9697,3.9697,3.9697,3.9697,3.9697,3.9798,4.0337,4.0876,4.1428,4.2009,4.2576,4.3014,4.3014,4.3402,4.3689,4.3251,4.3657,4.4163,4.4163,4.4831,4.5574,4.6045,4.6129,4.6359,4.7143,4.7235,4.7157,4.6974,4.7977,4.8401,4.7394,4.8366,4.8868,4.8108,4.8457,4.8978,4.943,4.9129,4.9129,4.9565,4.959,4.959,4.959,4.959,4.959,4.959,4.959,4.959,4.959,4.959,4.959,4.959,4.959,4.959,4.959,4.959,4.959,4.959,4.959,4.959,4.959,4.959,4.959,4.959,4.959,4.959,4.959,4.959,4.959,4.959,4.1311,4.1311,4.1311,4.1311,4.1311,4.1311,4.1311,4.1311,4.1311,4.1311,4.1311,4.1311,4.1311,4.1311,4.1311,4.1311,4.1311,4.1311,4.1311,4.1311,4.1311,4.1311,4.1311,4.1311,4.1311,4.1311,4.1311,4.1311,4.1072,4.0959,4.0959,4.0707,4.0606,4.0529,4.0275,4.0134,4.0083,3.9826,3.9697,3.9697,3.9697,3.9697,3.9697,3.9697,3.9697,3.9697,3.9697,3.9697,3.9697,3.9697,3.9697,3.9798,4.0337,4.0876,4.1428,4.2009,4.2576,4.3014,4.3014,4.3402,4.379,4.3714,4.4655,4.5602,4.5602,4.5389,4.5516,4.6765,4.7003,4.7158,4.756,4.7398,4.7279,4.7541,4.7919,4.8164,4.7997,4.8304,4.849,4.8424,4.8639,4.8843,4.8903,4.9254,4.9515,4.959,4.959,4.959,4.959,4.959,4.959,4.959,4.959,4.959,4.959,4.959,4.959,4.959,4.959,4.959,4.959,4.959,4.959,4.959,4.959,4.959,4.959,4.959,4.959,4.959,4.959,4.959,4.959,4.959,4.959,4.959,4.1311,4.1311,4.1311,4.1311,4.1311,4.1311,4.1311,4.1311,4.1311,4.1311,4.1311,4.1311,4.1311,4.1311,4.1311,4.1311,4.1311,4.1311,4.1311,4.1311,4.1311,4.1311,4.1311,4.1223,4.1072,4.1072,4.0997,4.0833,4.0883,4.082,4.0669,4.0555,4.0415,4.0275,4.016,4.0019,3.9865,3.9762,3.9697,3.9697,3.9697,3.9697,3.9697,3.9697,3.9697,3.9747,4.0049,3.9948,3.9798,4.0387,4.0387,4.0236,4.0775,4.1341,4.187,4.2123,4.2576,4.3065,4.3377,4.384,4.4296,4.4482,4.5219,4.5933,4.6148,4.5988,4.6083,4.7022,4.7205,4.725,4.7383,4.7442,4.7423,4.7242,4.7944,4.8416,4.8049,4.8779,4.9289,4.9115,4.8923,4.8919,4.9229,4.9464,4.959,4.959,4.959,4.959,4.959,4.959,4.959,4.959,4.959,4.959,4.959,4.959,4.959,4.959,4.959,4.959,4.959,4.959,4.959,4.959,4.959,4.959,4.959,4.959,4.959,4.959,4.959,4.959,4.959,4.959,4.959,4.959]}]]